[[{"header":{"parameterUnit":"m.s-1","parameterCategory":1,"la1":31.0,"la2":29.5877,"lo1":-88.7671,"lo2":-86.6584,"dy":0.0162,"dx":0.0185,"nx":115,"ny":88,"refTime":"2023-09-04T12:00:00:Z","depth":0,"parameterNumber":2,"parameterNumberName":"U-component_of_WINDS"},"data":[0.0,0.0,0.0,0.0,0.0,0.0,0.0,0.0,0.0,0.0,0.0,0.0,0.0,0.0,0.0,0.0,0.0,0.0,0.0,0.0,0.0,0.0,0.0,0.0,0.0,0.0,0.0,0.0,0.0,0.0,0.0,0.0,0.0,0.0,0.0,0.0,0.0,0.0,0.0,0.0,0.0,0.0,0.0,0.0,0.0,0.0,0.0,0.0,0.0,0.0,0.0,0.0,0.0,0.0,0.0,0.0,0.0,0.0,0.0,0.0,0.0,0.0,0.0,0.0,0.0,0.0,0.0,0.0,0.0,0.0,0.0,0.0,0.0,0.0,0.0,0.0,0.0,0.0,0.0,0.0,0.0,0.0,0.0,0.0,0.0,0.0,0.0,0.0,0.0,0.0,0.0,0.0,0.0,0.0,0.0,0.0,0.0,0.0,0.0,0.0,0.0,0.0,0.0,0.0,0.0,0.0,0.0,0.0,0.0,0.0,0.0,0.0,0.0,0.0,0.0,0.0,0.0,0.0,0.0,0.0,0.0,0.0,0.0,0.0,0.0,0.0,0.0,0.0,0.0,0.0,0.0,0.0,0.0,0.0,0.0,0.0,0.0,0.0,0.0,0.0,0.0,0.0,0.0,0.0,0.0,0.0,0.0,0.0,0.0,0.0,0.0,0.0,0.0,0.0,0.0,0.0,0.0,0.0,0.0,0.0,0.0,0.0,0.0,0.0,0.0,0.0,0.0,0.0,0.0,0.0,0.0,0.0,0.0,0.0,0.0,0.0,0.0,0.0,0.0,0.0,0.0,0.0,0.0,0.0,0.0,0.0,0.0,0.0,0.0,0.0,0.0,0.0,0.0,0.0,0.0,0.0,0.0,0.0,0.0,0.0,0.0,0.0,0.0,0.0,0.0,0.0,0.0,0.0,0.0,0.0,0.0,0.0,0.0,0.0,0.0,0.0,0.0,0.0,0.0,0.0,0.0,0.0,0.0,0.0,0.0,0.0,0.0,0.0,0.0,0.0,0.0,0.0,0.0,0.0,0.0,0.0,0.0,0.0,0.0,0.0,0.0,0.0,0.0,0.0,0.0,0.0,0.0,0.0,0.0,0.0,0.0,0.0,0.0,0.0,0.0,0.0,0.0,0.0,0.0,0.0,0.0,0.0,0.0,0.0,0.0,0.0,0.0,0.0,0.0,0.0,0.0,0.0,0.0,0.0,0.0,0.0,0.0,0.0,0.0,0.0,0.0,0.0,0.0,0.0,0.0,0.0,0.0,0.0,0.0,0.0,0.0,0.0,0.0,0.0,0.0,0.0,0.0,0.0,0.0,0.0,0.0,0.0,0.0,0.0,0.0,0.0,0.0,0.0,0.0,0.0,0.0,0.0,0.0,0.0,0.0,0.0,0.0,0.0,0.0,0.0,0.0,0.0,0.0,0.0,0.0,0.0,0.0,0.0,0.0,0.0,0.0,0.0,0.0,0.0,0.0,0.0,0.0,0.0,0.0,0.0,0.0,0.0,0.0,0.0,0.0,0.0,0.0,0.0,0.0,0.0,0.0,0.0,0.0,0.0,0.0,0.0,0.0,0.0,0.0,0.0,0.0,0.0,0.0,0.0,0.0,0.0,0.0,0.0,0.0,0.0,0.0,0.0,0.0,0.0,0.0,0.0,0.0,0.0,0.0,0.0,0.0,0.0,0.0,0.0,0.0,0.0,0.0,0.0,0.0,0.0,0.0,0.0,0.0,0.0,0.0,0.0,0.0,0.0,0.0,0.0,0.0,0.0,0.0,0.0,0.0,0.0,0.0,0.0,0.0,0.0,0.0,0.0,0.0,0.0,0.0,0.0,0.0,0.0,0.0,0.0,0.0,0.0,0.0,0.0,0.0,0.0,0.0,0.0,0.0,0.0,0.0,0.0,0.0,0.0,0.0,0.0,0.0,0.0,0.0,0.0,0.0,0.0,0.0,0.0,0.0,0.0,0.0,0.0,0.0,0.0,0.0,0.0,0.0,0.0,0.0,0.0,0.0,0.0,0.0,0.0,0.0,0.0,0.0,0.0,0.0,0.0,0.0,0.0,0.0,0.0,0.0,0.0,0.0,0.0,0.0,0.0,0.0,0.0,0.0,0.0,0.0,0.0,0.0,0.0,0.0,0.0,0.0,0.0,0.0,0.0,0.0,0.0,0.0,0.0,0.0,0.0,0.0,0.0,0.0,0.0,0.0,0.0,0.0,0.0,0.0,0.0,0.0,0.0,0.0,0.0,0.0,0.0,0.0,0.0,0.0,0.0,0.0,0.0,0.0,0.0,0.0,0.0,0.0,0.0,0.0,0.0,0.0,0.0,0.0,0.0,0.0,0.0,0.0,0.0,0.0,0.0,0.0,0.0,0.0,0.0,0.0,0.0,0.0,0.0,0.0,0.0,0.0,0.0,0.0,0.0,0.0,0.0,0.0,0.0,0.0,0.0,0.0,0.0,0.0,0.0,0.0,0.0,0.0,0.0,0.0,0.0,0.0,0.0,0.0,0.0,0.0,0.0,0.0,0.0,0.0,0.0,0.0,0.0,0.0,0.0,0.0,0.0,0.0,0.0,0.0,0.0,0.0,0.0,0.0,0.0,0.0,0.0,0.0,0.0,0.0,0.0,0.0,0.0,0.0,0.0,0.0,0.0,0.0,0.0,0.0,0.0,0.0,0.0,0.0,0.0,0.0,0.0,0.0,0.0,0.0,0.0,0.0,0.0,0.0,0.0,0.0,0.0,0.0,0.0,0.0,0.0,0.0,0.0,0.0,0.0,0.0,0.0,0.0,0.0,0.0,0.0,0.0,0.0,0.0,0.0,0.0,0.0,0.0,0.0,0.0,0.0,0.0,0.0,0.0,0.0,0.0,0.0,0.0,0.0,0.0,0.0,0.0,0.0,0.0,0.0,0.0,0.0,0.0,0.0,0.0,0.0,0.0,0.0,0.0,0.0,0.0,0.0,0.0,0.0,0.0,0.0,0.0,0.0,0.0,0.0,0.0,0.0,0.0,0.0,0.0,0.0,0.0,0.0,0.0,0.0,0.0,0.0,0.0,0.0,0.0,0.0,0.0,0.0,0.0,0.0,0.0,0.0,0.0,0.0,0.0,0.0,0.0,0.0,0.0,0.0,0.0,0.0,0.0,0.0,0.0,0.0,0.0,0.0,0.0,0.0,0.0,0.0,0.0,0.0,0.0,0.0,0.0,0.0,0.0,0.0,0.0,0.0,0.0,0.0,0.0,0.0,0.0,0.0,0.0,0.0,0.0,0.0,0.0,0.0,0.0,0.0,0.0,0.0,0.0,0.0,0.0,0.0,0.0,0.0,0.0,0.0,0.0,0.0,0.0,0.0,0.0,0.0,0.0,0.0,0.0,0.0,0.0,0.0,0.0,0.0,0.0,0.0,0.0,0.0,0.0,0.0,0.0,0.0,0.0,0.0,0.0,0.0,0.0,0.0,0.0,0.0,0.0,0.0,0.0,0.0,0.0,0.0,0.0,0.0,0.0,0.0,0.0,0.0,0.0,0.0,0.0,0.0,0.0,0.0,0.0,0.0,0.0,0.0,0.0,0.0,0.0,0.0,0.0,0.0,0.0,0.0,0.0,0.0,0.0,0.0,0.0,0.0,0.0,0.0,0.0,0.0,0.0,0.0,0.0,0.0,0.0,0.0,0.0,0.0,0.0,0.0,0.0,0.0,0.0,0.0,0.0,0.0,0.0,0.0,0.0,0.0,0.0,0.0,0.0,0.0,0.0,0.0,0.0,0.0,0.0,0.0,0.0,0.0,0.0,0.0,0.0,0.0,0.0,0.0,0.0,0.0,0.0,0.0,0.0,0.0,0.0,0.0,0.0,0.0,0.0,0.0,0.0,0.0,0.0,0.0,0.0,0.0,0.0,0.0,0.0,0.0,0.0,0.0,0.0,0.0,0.0,0.0,0.0,0.0,0.0,0.0,0.0,0.0,0.0,0.0,0.0,0.0,0.0,0.0,0.0,0.0,0.0,0.0,0.0,0.0,0.0,0.0,0.0,0.0,0.0,0.0,0.0,0.0,0.0,0.0,0.0,0.0,0.0,0.0,0.0,0.0,0.0,0.0,0.0,0.0,0.0,0.0,0.0,0.0,0.0,0.0,0.0,0.0,0.0,0.0,0.0,0.0,0.0,0.0,0.0,0.0,0.0,0.0,0.0,0.0,0.0,0.0,0.0,0.0,0.0,0.0,0.0,0.0,0.0,0.0,0.0,0.0,0.0,0.0,0.0,0.0,-2.0607,0.0,0.0,0.0,0.0,0.0,0.0,0.0,0.0,0.0,0.0,0.0,0.0,0.0,0.0,0.0,0.0,0.0,0.0,0.0,0.0,0.0,0.0,0.0,0.0,0.0,0.0,0.0,0.0,0.0,0.0,0.0,0.0,0.0,0.0,0.0,0.0,0.0,0.0,0.0,0.0,0.0,0.0,0.0,0.0,0.0,0.0,0.0,0.0,0.0,0.0,0.0,0.0,0.0,0.0,0.0,0.0,0.0,0.0,0.0,0.0,0.0,0.0,0.0,0.0,0.0,0.0,0.0,0.0,0.0,0.0,0.0,0.0,0.0,0.0,0.0,0.0,0.0,0.0,0.0,0.0,0.0,0.0,0.0,0.0,0.0,0.0,0.0,0.0,0.0,0.0,0.0,0.0,0.0,0.0,0.0,0.0,0.0,0.0,0.0,0.0,0.0,0.0,0.0,0.0,0.0,0.0,0.0,0.0,0.0,0.0,-2.0605,-2.0605,-2.0601,-2.0594,-2.0542,0.0,0.0,0.0,0.0,0.0,0.0,0.0,0.0,0.0,0.0,0.0,0.0,0.0,0.0,0.0,0.0,0.0,0.0,0.0,0.0,0.0,0.0,0.0,0.0,0.0,0.0,0.0,0.0,0.0,0.0,0.0,0.0,0.0,0.0,0.0,0.0,0.0,0.0,0.0,0.0,0.0,0.0,0.0,0.0,0.0,0.0,0.0,0.0,0.0,0.0,0.0,0.0,0.0,0.0,0.0,0.0,0.0,0.0,0.0,0.0,0.0,0.0,0.0,0.0,0.0,0.0,0.0,0.0,0.0,0.0,0.0,0.0,0.0,0.0,0.0,0.0,0.0,0.0,0.0,0.0,0.0,0.0,0.0,0.0,0.0,0.0,0.0,0.0,0.0,0.0,0.0,0.0,0.0,0.0,0.0,0.0,0.0,0.0,0.0,0.0,0.0,0.0,0.0,0.0,0.0,0.0,0.0,0.0,0.0,0.0,0.0,0.0,-2.06,-2.0571,-2.0511,0.0,0.0,0.0,0.0,0.0,0.0,0.0,0.0,0.0,0.0,0.0,0.0,0.0,0.0,0.0,0.0,0.0,0.0,0.0,0.0,0.0,0.0,0.0,0.0,0.0,0.0,0.0,0.0,0.0,0.0,0.0,0.0,0.0,0.0,0.0,0.0,0.0,0.0,0.0,0.0,0.0,0.0,0.0,0.0,0.0,0.0,0.0,0.0,0.0,0.0,0.0,0.0,0.0,0.0,0.0,0.0,0.0,0.0,0.0,0.0,0.0,0.0,0.0,0.0,0.0,0.0,0.0,0.0,0.0,0.0,0.0,0.0,0.0,0.0,0.0,0.0,0.0,0.0,0.0,0.0,0.0,0.0,0.0,0.0,0.0,0.0,0.0,0.0,0.0,0.0,0.0,0.0,0.0,0.0,0.0,0.0,0.0,0.0,0.0,0.0,0.0,0.0,0.0,0.0,0.0,0.0,0.0,0.0,0.0,0.0,-2.0605,-2.0602,-2.0613,0.0,-2.0489,0.0,0.0,0.0,0.0,0.0,0.0,0.0,0.0,0.0,0.0,0.0,0.0,0.0,0.0,0.0,0.0,0.0,0.0,0.0,0.0,0.0,0.0,0.0,0.0,0.0,0.0,0.0,0.0,0.0,0.0,0.0,0.0,0.0,0.0,0.0,0.0,0.0,0.0,0.0,0.0,0.0,0.0,0.0,0.0,0.0,0.0,0.0,0.0,0.0,0.0,0.0,0.0,0.0,0.0,0.0,0.0,0.0,0.0,0.0,0.0,0.0,0.0,0.0,0.0,0.0,0.0,0.0,0.0,0.0,0.0,0.0,0.0,0.0,0.0,0.0,0.0,0.0,0.0,0.0,0.0,0.0,0.0,0.0,0.0,0.0,0.0,0.0,0.0,0.0,0.0,0.0,0.0,0.0,0.0,0.0,0.0,0.0,0.0,0.0,0.0,0.0,0.0,0.0,0.0,0.0,0.0,0.0,0.0,0.0,0.0,-2.1366,-2.1363,-2.133,-2.1053,0.0,0.0,0.0,0.0,0.0,0.0,0.0,0.0,0.0,0.0,0.0,0.0,0.0,0.0,0.0,0.0,0.0,0.0,0.0,0.0,0.0,0.0,0.0,0.0,0.0,0.0,0.0,0.0,0.0,0.0,0.0,0.0,0.0,0.0,0.0,0.0,0.0,0.0,0.0,0.0,0.0,0.0,0.0,0.0,0.0,0.0,0.0,0.0,0.0,0.0,0.0,0.0,0.0,0.0,0.0,0.0,0.0,0.0,0.0,0.0,0.0,0.0,0.0,0.0,0.0,0.0,0.0,0.0,0.0,0.0,0.0,0.0,0.0,0.0,0.0,0.0,0.0,0.0,0.0,0.0,0.0,0.0,0.0,0.0,0.0,0.0,0.0,0.0,0.0,0.0,0.0,0.0,0.0,0.0,0.0,0.0,0.0,0.0,0.0,0.0,0.0,0.0,0.0,0.0,0.0,0.0,0.0,0.0,0.0,0.0,-2.1582,-2.2009,-2.2198,-2.1945,-2.151,-2.0873,0.0,0.0,0.0,0.0,0.0,0.0,0.0,0.0,0.0,0.0,0.0,0.0,0.0,0.0,0.0,0.0,0.0,0.0,0.0,0.0,0.0,0.0,0.0,0.0,0.0,0.0,0.0,0.0,0.0,0.0,0.0,0.0,0.0,0.0,0.0,0.0,0.0,0.0,0.0,0.0,0.0,0.0,0.0,0.0,0.0,0.0,0.0,0.0,0.0,0.0,0.0,0.0,0.0,0.0,0.0,0.0,0.0,0.0,0.0,0.0,0.0,0.0,0.0,0.0,0.0,0.0,0.0,0.0,0.0,0.0,0.0,0.0,0.0,0.0,0.0,0.0,0.0,0.0,0.0,0.0,0.0,0.0,0.0,0.0,0.0,0.0,0.0,0.0,0.0,0.0,0.0,0.0,0.0,0.0,0.0,0.0,0.0,0.0,0.0,0.0,0.0,0.0,0.0,0.0,0.0,0.0,0.0,0.0,-2.1816,-2.1933,-2.2299,-2.3039,-2.2242,-2.1792,0.0,0.0,0.0,0.0,0.0,0.0,0.0,0.0,0.0,0.0,0.0,0.0,0.0,0.0,0.0,0.0,0.0,0.0,0.0,0.0,0.0,0.0,0.0,0.0,0.0,0.0,0.0,0.0,0.0,0.0,0.0,0.0,0.0,0.0,0.0,0.0,0.0,0.0,0.0,0.0,0.0,0.0,0.0,0.0,0.0,0.0,0.0,0.0,0.0,0.0,0.0,0.0,0.0,0.0,0.0,0.0,0.0,0.0,0.0,0.0,0.0,0.0,0.0,0.0,0.0,0.0,0.0,0.0,0.0,0.0,0.0,0.0,0.0,0.0,0.0,0.0,0.0,0.0,0.0,0.0,0.0,0.0,0.0,0.0,0.0,0.0,0.0,0.0,0.0,0.0,0.0,0.0,0.0,0.0,0.0,0.0,0.0,0.0,0.0,0.0,0.0,0.0,0.0,0.0,0.0,0.0,0.0,0.0,0.0,-2.2695,-2.4314,-2.5026,-2.4772,-2.4466,-2.3486,0.0,0.0,0.0,0.0,0.0,0.0,0.0,0.0,0.0,0.0,0.0,0.0,0.0,0.0,0.0,0.0,0.0,0.0,0.0,0.0,0.0,0.0,0.0,0.0,0.0,0.0,0.0,0.0,0.0,0.0,0.0,0.0,0.0,0.0,0.0,0.0,0.0,0.0,0.0,0.0,0.0,0.0,0.0,0.0,0.0,0.0,0.0,0.0,0.0,0.0,0.0,0.0,0.0,0.0,0.0,0.0,0.0,0.0,0.0,0.0,0.0,0.0,0.0,0.0,0.0,0.0,0.0,0.0,0.0,0.0,0.0,0.0,0.0,0.0,0.0,0.0,0.0,0.0,0.0,0.0,0.0,0.0,0.0,0.0,0.0,0.0,0.0,0.0,0.0,0.0,0.0,0.0,0.0,0.0,0.0,0.0,0.0,0.0,0.0,0.0,0.0,0.0,0.0,0.0,0.0,0.0,0.0,0.0,0.0,-2.4355,0.0,-2.7151,-2.6549,-2.5987,-2.483,0.0,0.0,0.0,0.0,0.0,0.0,0.0,0.0,0.0,0.0,0.0,0.0,0.0,0.0,0.0,0.0,0.0,0.0,0.0,0.0,0.0,0.0,0.0,0.0,0.0,0.0,0.0,0.0,0.0,0.0,0.0,0.0,0.0,0.0,0.0,0.0,0.0,0.0,0.0,0.0,0.0,0.0,0.0,0.0,0.0,0.0,0.0,0.0,0.0,0.0,0.0,0.0,0.0,0.0,0.0,0.0,0.0,0.0,0.0,0.0,0.0,0.0,0.0,0.0,0.0,0.0,0.0,0.0,0.0,0.0,0.0,0.0,0.0,0.0,0.0,0.0,0.0,0.0,0.0,0.0,0.0,0.0,0.0,0.0,0.0,0.0,0.0,0.0,0.0,0.0,0.0,0.0,0.0,0.0,0.0,0.0,0.0,0.0,0.0,0.0,0.0,0.0,0.0,0.0,0.0,0.0,0.0,0.0,-2.451,-2.6949,-2.7961,-2.8538,-2.832,-2.6805,-2.5784,0.0,0.0,0.0,0.0,0.0,0.0,0.0,0.0,0.0,0.0,0.0,0.0,0.0,0.0,0.0,0.0,0.0,0.0,0.0,0.0,0.0,0.0,0.0,0.0,0.0,0.0,0.0,0.0,0.0,0.0,0.0,0.0,0.0,0.0,0.0,0.0,0.0,0.0,0.0,0.0,0.0,0.0,0.0,0.0,0.0,0.0,0.0,0.0,0.0,0.0,0.0,0.0,0.0,0.0,0.0,0.0,0.0,0.0,0.0,0.0,0.0,0.0,0.0,0.0,0.0,0.0,0.0,0.0,0.0,0.0,0.0,0.0,0.0,0.0,0.0,0.0,0.0,0.0,0.0,0.0,0.0,0.0,0.0,0.0,0.0,0.0,0.0,0.0,0.0,0.0,0.0,0.0,0.0,0.0,0.0,0.0,0.0,0.0,0.0,0.0,0.0,0.0,0.0,0.0,0.0,0.0,0.0,0.0,0.0,-3.0507,-3.1967,-3.2426,-3.1807,-3.071,-2.8961,0.0,0.0,0.0,0.0,0.0,0.0,0.0,0.0,0.0,0.0,0.0,0.0,0.0,0.0,0.0,0.0,0.0,0.0,0.0,0.0,0.0,0.0,0.0,0.0,0.0,0.0,0.0,0.0,0.0,0.0,0.0,0.0,0.0,0.0,0.0,0.0,0.0,0.0,0.0,0.0,0.0,0.0,0.0,0.0,0.0,0.0,0.0,0.0,0.0,0.0,0.0,0.0,0.0,0.0,0.0,0.0,0.0,0.0,0.0,0.0,0.0,0.0,0.0,0.0,0.0,0.0,0.0,0.0,0.0,0.0,0.0,0.0,0.0,0.0,0.0,0.0,0.0,0.0,0.0,0.0,0.0,0.0,0.0,0.0,0.0,0.0,0.0,0.0,0.0,0.0,0.0,0.0,0.0,0.0,0.0,0.0,0.0,0.0,0.0,0.0,0.0,0.0,0.0,0.0,0.0,0.0,0.0,0.0,0.0,-3.4467,-3.4941,-3.493,-3.4368,-3.3191,-3.1395,-2.8887,0.0,0.0,0.0,0.0,0.0,0.0,0.0,0.0,0.0,0.0,0.0,0.0,0.0,0.0,0.0,0.0,0.0,0.0,0.0,0.0,0.0,0.0,0.0,0.0,0.0,0.0,0.0,0.0,0.0,0.0,0.0,0.0,0.0,0.0,0.0,0.0,0.0,0.0,0.0,0.0,0.0,0.0,0.0,0.0,0.0,0.0,0.0,0.0,0.0,0.0,0.0,0.0,0.0,0.0,0.0,0.0,0.0,0.0,0.0,0.0,0.0,0.0,0.0,0.0,0.0,0.0,0.0,0.0,0.0,0.0,0.0,0.0,0.0,0.0,0.0,0.0,0.0,0.0,0.0,0.0,0.0,0.0,0.0,0.0,0.0,0.0,0.0,0.0,0.0,0.0,0.0,0.0,0.0,0.0,0.0,0.0,0.0,0.0,0.0,0.0,0.0,0.0,0.0,0.0,0.0,0.0,0.0,0.0,-3.8555,-3.7068,-3.6283,-3.6202,-3.4536,-3.3114,0.0,0.0,0.0,0.0,0.0,0.0,0.0,0.0,0.0,0.0,0.0,0.0,0.0,0.0,0.0,0.0,0.0,0.0,0.0,0.0,0.0,0.0,0.0,0.0,0.0,0.0,0.0,0.0,0.0,0.0,0.0,0.0,0.0,0.0,0.0,0.0,0.0,0.0,0.0,0.0,0.0,0.0,0.0,0.0,0.0,0.0,0.0,0.0,0.0,0.0,0.0,0.0,0.0,0.0,0.0,0.0,0.0,0.0,0.0,0.0,0.0,0.0,0.0,0.0,0.0,0.0,0.0,0.0,0.0,0.0,0.0,0.0,0.0,0.0,0.0,0.0,0.0,0.0,0.0,0.0,0.0,0.0,0.0,0.0,0.0,0.0,0.0,0.0,0.0,0.0,0.0,0.0,0.0,0.0,0.0,0.0,0.0,0.0,0.0,0.0,0.0,0.0,0.0,0.0,0.0,0.0,0.0,0.0,0.0,-3.9345,-3.9655,-3.9453,-3.882,-3.7721,-3.5829,0.0,0.0,0.0,0.0,0.0,0.0,0.0,0.0,0.0,0.0,0.0,0.0,0.0,0.0,0.0,0.0,0.0,0.0,0.0,0.0,0.0,0.0,0.0,0.0,0.0,0.0,0.0,0.0,0.0,0.0,0.0,0.0,0.0,0.0,0.0,0.0,0.0,0.0,0.0,0.0,0.0,0.0,0.0,0.0,0.0,0.0,0.0,0.0,0.0,0.0,0.0,0.0,0.0,0.0,0.0,0.0,0.0,0.0,0.0,0.0,0.0,0.0,0.0,0.0,0.0,0.0,0.0,0.0,0.0,0.0,0.0,0.0,0.0,0.0,0.0,0.0,0.0,0.0,0.0,0.0,0.0,0.0,0.0,0.0,0.0,0.0,0.0,0.0,0.0,0.0,0.0,0.0,0.0,0.0,0.0,0.0,0.0,0.0,0.0,0.0,0.0,0.0,0.0,0.0,0.0,0.0,0.0,0.0,-3.8374,-4.0778,-4.1372,-4.142,-4.0916,-3.9683,-3.7769,0.0,0.0,0.0,0.0,0.0,0.0,0.0,0.0,0.0,0.0,0.0,0.0,0.0,0.0,0.0,0.0,0.0,0.0,0.0,0.0,0.0,0.0,0.0,0.0,0.0,0.0,0.0,0.0,0.0,0.0,0.0,0.0,0.0,0.0,0.0,0.0,0.0,0.0,0.0,0.0,0.0,0.0,0.0,0.0,0.0,0.0,0.0,0.0,0.0,0.0,0.0,0.0,0.0,0.0,0.0,0.0,0.0,0.0,0.0,0.0,0.0,0.0,0.0,0.0,0.0,0.0,0.0,0.0,0.0,0.0,0.0,0.0,0.0,0.0,0.0,0.0,0.0,0.0,0.0,0.0,0.0,0.0,0.0,0.0,0.0,0.0,0.0,0.0,0.0,0.0,0.0,0.0,0.0,0.0,0.0,0.0,0.0,0.0,0.0,0.0,0.0,0.0,0.0,0.0,0.0,0.0,0.0,0.0,-3.8879,-4.2213,-4.2376,-4.2382,-4.2363,-4.0959,-3.9258,0.0,0.0,0.0,0.0,0.0,0.0,0.0,0.0,0.0,0.0,0.0,0.0,0.0,0.0,0.0,0.0,0.0,0.0,0.0,0.0,0.0,0.0,0.0,0.0,0.0,0.0,0.0,0.0,0.0,0.0,0.0,0.0,0.0,0.0,0.0,0.0,0.0,0.0,0.0,0.0,0.0,0.0,0.0,0.0,0.0,0.0,0.0,0.0,0.0,0.0,0.0,0.0,0.0,0.0,0.0,0.0,0.0,0.0,0.0,0.0,0.0,0.0,0.0,0.0,0.0,0.0,0.0,0.0,0.0,0.0,0.0,0.0,0.0,0.0,0.0,0.0,0.0,0.0,0.0,0.0,0.0,0.0,0.0,0.0,0.0,0.0,0.0,0.0,0.0,0.0,0.0,0.0,0.0,0.0,0.0,0.0,0.0,0.0,0.0,0.0,0.0,0.0,0.0,0.0,0.0,0.0,0.0,0.0,-3.9489,-4.219,-4.2359,-4.2389,-4.2397,-4.271,-4.1101,0.0,0.0,0.0,0.0,0.0,0.0,0.0,0.0,0.0,0.0,0.0,0.0,0.0,0.0,0.0,0.0,0.0,0.0,0.0,0.0,0.0,0.0,0.0,0.0,0.0,0.0,0.0,0.0,0.0,0.0,0.0,0.0,0.0,0.0,0.0,0.0,0.0,0.0,0.0,0.0,0.0,0.0,0.0,0.0,0.0,0.0,0.0,0.0,-3.3491,0.0,0.0,0.0,0.0,0.0,0.0,0.0,0.0,0.0,0.0,0.0,0.0,0.0,0.0,0.0,0.0,0.0,0.0,0.0,0.0,0.0,0.0,0.0,0.0,0.0,0.0,0.0,0.0,0.0,0.0,0.0,0.0,0.0,0.0,0.0,0.0,0.0,0.0,0.0,0.0,0.0,0.0,0.0,0.0,0.0,0.0,0.0,0.0,0.0,0.0,0.0,0.0,0.0,0.0,0.0,0.0,0.0,0.0,0.0,-3.9619,-4.2151,-4.2305,-4.236,-4.2431,-4.3242,-4.1843,0.0,0.0,0.0,0.0,0.0,0.0,0.0,0.0,0.0,0.0,0.0,0.0,0.0,0.0,0.0,0.0,0.0,0.0,0.0,0.0,0.0,0.0,0.0,0.0,0.0,0.0,0.0,0.0,0.0,0.0,0.0,0.0,0.0,0.0,0.0,0.0,0.0,0.0,0.0,0.0,0.0,0.0,0.0,0.0,0.0,0.0,0.0,0.0,0.0,0.0,0.0,0.0,0.0,0.0,0.0,0.0,0.0,0.0,0.0,0.0,0.0,0.0,0.0,0.0,0.0,0.0,0.0,0.0,0.0,0.0,0.0,0.0,0.0,0.0,0.0,0.0,0.0,0.0,0.0,0.0,0.0,0.0,0.0,0.0,0.0,0.0,0.0,0.0,0.0,0.0,0.0,0.0,0.0,0.0,0.0,0.0,0.0,0.0,0.0,0.0,0.0,0.0,0.0,0.0,0.0,0.0,0.0,-3.7541,-3.9685,-4.2086,-4.2266,-4.2325,-4.2422,-4.3121,-4.1932,-3.863,0.0,0.0,0.0,0.0,0.0,0.0,0.0,0.0,0.0,0.0,0.0,0.0,0.0,0.0,0.0,0.0,0.0,0.0,0.0,0.0,0.0,0.0,0.0,0.0,0.0,0.0,0.0,0.0,0.0,0.0,0.0,0.0,0.0,0.0,0.0,0.0,0.0,0.0,-3.1513,-3.4568,0.0,0.0,0.0,0.0,0.0,0.0,0.0,0.0,-3.9509,0.0,0.0,0.0,0.0,0.0,0.0,0.0,0.0,0.0,0.0,0.0,0.0,0.0,0.0,0.0,0.0,0.0,0.0,0.0,0.0,0.0,0.0,0.0,0.0,0.0,0.0,0.0,0.0,0.0,0.0,0.0,0.0,0.0,0.0,0.0,0.0,0.0,0.0,0.0,0.0,0.0,0.0,0.0,0.0,0.0,0.0,0.0,0.0,0.0,0.0,0.0,0.0,0.0,0.0,0.0,0.0,-3.5676,-3.807,-4.025,-4.2136,-4.2267,-4.2338,-4.2412,-4.2539,-4.1344,-3.873,0.0,0.0,0.0,0.0,0.0,0.0,0.0,0.0,0.0,0.0,0.0,0.0,0.0,0.0,0.0,0.0,0.0,0.0,0.0,0.0,0.0,0.0,0.0,0.0,0.0,0.0,0.0,0.0,0.0,0.0,0.0,0.0,0.0,0.0,0.0,0.0,0.0,0.0,0.0,-3.8419,-4.0283,0.0,0.0,0.0,0.0,0.0,0.0,0.0,0.0,-4.0398,0.0,0.0,0.0,0.0,0.0,0.0,0.0,0.0,0.0,0.0,0.0,0.0,0.0,0.0,0.0,0.0,0.0,0.0,0.0,0.0,0.0,0.0,0.0,0.0,0.0,0.0,0.0,0.0,0.0,0.0,0.0,0.0,0.0,0.0,0.0,0.0,0.0,0.0,0.0,0.0,0.0,0.0,0.0,0.0,0.0,0.0,0.0,0.0,0.0,0.0,0.0,0.0,0.0,0.0,0.0,-3.6155,-3.7967,-3.9683,-4.1394,-4.1548,-4.1618,-4.1668,-4.1714,-4.0723,0.0,0.0,0.0,0.0,0.0,0.0,0.0,0.0,0.0,0.0,0.0,0.0,0.0,0.0,0.0,0.0,0.0,0.0,0.0,0.0,0.0,0.0,0.0,0.0,0.0,0.0,0.0,0.0,0.0,0.0,0.0,0.0,0.0,0.0,0.0,0.0,0.0,0.0,0.0,0.0,-4.0579,-4.2174,-4.3549,0.0,0.0,0.0,0.0,0.0,0.0,-4.3802,-4.3183,0.0,0.0,0.0,0.0,0.0,0.0,0.0,0.0,0.0,0.0,0.0,0.0,0.0,0.0,0.0,0.0,0.0,0.0,0.0,0.0,0.0,0.0,0.0,0.0,0.0,0.0,0.0,0.0,0.0,0.0,0.0,0.0,0.0,0.0,0.0,0.0,0.0,0.0,0.0,0.0,0.0,0.0,0.0,0.0,0.0,0.0,0.0,0.0,0.0,0.0,0.0,0.0,0.0,0.0,0.0,-3.6633,-3.7868,-3.9179,-4.0674,-4.0824,-4.0924,-4.0972,-4.105,-4.0264,0.0,0.0,0.0,0.0,0.0,0.0,0.0,0.0,0.0,0.0,0.0,0.0,0.0,0.0,0.0,0.0,0.0,0.0,0.0,0.0,0.0,0.0,0.0,0.0,0.0,0.0,0.0,0.0,0.0,0.0,0.0,0.0,0.0,0.0,0.0,0.0,0.0,0.0,0.0,0.0,0.0,-4.3946,-4.6356,-4.7018,0.0,0.0,0.0,0.0,-4.6693,-4.6406,0.0,0.0,0.0,0.0,0.0,0.0,0.0,0.0,0.0,0.0,0.0,0.0,0.0,0.0,0.0,0.0,0.0,0.0,0.0,0.0,0.0,0.0,0.0,0.0,0.0,0.0,0.0,0.0,0.0,0.0,0.0,0.0,0.0,0.0,0.0,0.0,0.0,0.0,0.0,0.0,0.0,0.0,0.0,0.0,0.0,0.0,0.0,0.0,0.0,0.0,0.0,0.0,0.0,0.0,0.0,0.0,-3.6567,-3.8301,-3.9636,-4.0557,-4.0732,-4.0842,-4.0917,-4.0968,-4.0205,0.0,0.0,0.0,0.0,0.0,0.0,0.0,0.0,0.0,0.0,0.0,0.0,0.0,0.0,0.0,0.0,0.0,0.0,0.0,0.0,0.0,0.0,0.0,0.0,0.0,0.0,0.0,0.0,0.0,0.0,0.0,0.0,0.0,0.0,0.0,0.0,0.0,0.0,0.0,0.0,0.0,-4.6256,-4.8143,-4.973,-5.0201,0.0,0.0,-4.9239,-4.7619,-4.6752,0.0,0.0,0.0,0.0,0.0,0.0,0.0,0.0,0.0,0.0,0.0,0.0,0.0,0.0,0.0,0.0,0.0,0.0,0.0,0.0,0.0,0.0,0.0,0.0,0.0,0.0,0.0,0.0,0.0,0.0,0.0,0.0,0.0,0.0,0.0,0.0,0.0,0.0,0.0,0.0,0.0,0.0,0.0,0.0,0.0,0.0,0.0,0.0,0.0,0.0,0.0,0.0,0.0,0.0,0.0,-3.3731,-3.7064,-3.8059,-3.9139,-4.0423,-4.0614,-4.0719,-4.0776,-4.0878,-4.0167,0.0,0.0,0.0,0.0,0.0,0.0,0.0,0.0,0.0,0.0,0.0,0.0,0.0,0.0,0.0,0.0,0.0,0.0,0.0,0.0,0.0,0.0,0.0,0.0,0.0,0.0,0.0,0.0,0.0,0.0,0.0,0.0,0.0,0.0,0.0,0.0,0.0,0.0,0.0,0.0,0.0,0.0,-5.0554,-5.1925,0.0,0.0,0.0,-5.1082,-4.9894,0.0,0.0,0.0,0.0,0.0,0.0,0.0,0.0,0.0,0.0,0.0,0.0,0.0,0.0,0.0,0.0,0.0,0.0,0.0,0.0,0.0,0.0,0.0,0.0,0.0,0.0,0.0,0.0,0.0,0.0,0.0,0.0,0.0,0.0,0.0,0.0,0.0,0.0,0.0,0.0,0.0,0.0,0.0,0.0,0.0,0.0,0.0,0.0,0.0,0.0,0.0,0.0,0.0,0.0,0.0,0.0,0.0,-3.7442,-3.7729,-3.864,-4.0285,-4.0473,-4.0586,-4.0629,-4.0754,0.0,0.0,0.0,0.0,0.0,0.0,0.0,0.0,0.0,0.0,0.0,0.0,0.0,0.0,0.0,0.0,0.0,0.0,0.0,0.0,0.0,0.0,0.0,0.0,0.0,0.0,0.0,-2.7205,0.0,0.0,0.0,0.0,0.0,0.0,0.0,0.0,0.0,0.0,0.0,0.0,0.0,0.0,-4.9495,-5.2113,-5.3215,-5.3419,0.0,0.0,-5.2168,-5.0937,-4.9664,-4.787,0.0,0.0,0.0,0.0,0.0,0.0,0.0,0.0,0.0,0.0,0.0,0.0,0.0,0.0,0.0,0.0,0.0,0.0,0.0,0.0,0.0,0.0,0.0,0.0,0.0,0.0,0.0,0.0,0.0,0.0,0.0,0.0,0.0,0.0,0.0,0.0,0.0,0.0,0.0,0.0,0.0,0.0,0.0,0.0,0.0,0.0,0.0,0.0,0.0,0.0,0.0,0.0,0.0,0.0,0.0,-3.7288,-3.7547,-3.8461,-4.0139,-4.0353,-4.0408,-4.0411,-4.0552,-3.9831,0.0,0.0,0.0,0.0,0.0,0.0,0.0,0.0,0.0,0.0,0.0,0.0,0.0,0.0,0.0,0.0,0.0,0.0,0.0,0.0,0.0,0.0,0.0,0.0,0.0,0.0,0.0,0.0,0.0,0.0,0.0,0.0,0.0,0.0,0.0,0.0,0.0,0.0,0.0,0.0,0.0,-4.9373,-5.2039,-5.3135,-5.3155,0.0,0.0,-5.1756,-4.9357,-4.8881,-4.7654,-4.4327,0.0,0.0,0.0,0.0,0.0,0.0,0.0,0.0,0.0,0.0,0.0,0.0,0.0,0.0,0.0,0.0,0.0,0.0,0.0,0.0,0.0,0.0,0.0,0.0,0.0,0.0,0.0,0.0,0.0,0.0,0.0,0.0,0.0,0.0,0.0,0.0,0.0,0.0,0.0,0.0,0.0,0.0,0.0,0.0,0.0,0.0,0.0,0.0,0.0,0.0,0.0,0.0,0.0,-3.396,-3.7206,-3.736,-3.8236,-3.987,-4.0118,-4.0225,-4.0213,-4.0353,-3.9662,0.0,0.0,0.0,0.0,0.0,0.0,0.0,0.0,0.0,0.0,0.0,0.0,0.0,0.0,0.0,0.0,0.0,0.0,0.0,0.0,0.0,0.0,0.0,0.0,0.0,0.0,0.0,0.0,-3.0838,-3.0913,-3.1176,0.0,0.0,0.0,0.0,0.0,0.0,0.0,0.0,0.0,0.0,-4.9171,-5.1244,-5.2317,0.0,0.0,-5.1872,-5.1233,-4.9773,-4.8665,-4.7031,-4.4168,-4.2983,0.0,0.0,0.0,0.0,0.0,0.0,0.0,0.0,0.0,0.0,0.0,0.0,0.0,0.0,0.0,0.0,0.0,0.0,0.0,0.0,0.0,0.0,0.0,0.0,0.0,0.0,0.0,0.0,0.0,0.0,0.0,0.0,0.0,0.0,0.0,0.0,0.0,0.0,0.0,0.0,0.0,0.0,0.0,0.0,0.0,0.0,0.0,0.0,0.0,0.0,0.0,0.0,-3.4306,-3.7107,-3.7453,-3.8282,-3.9709,-3.9922,-3.9998,-4.0011,-4.0148,-3.9428,0.0,0.0,0.0,0.0,0.0,0.0,0.0,0.0,0.0,0.0,0.0,0.0,0.0,0.0,0.0,0.0,0.0,0.0,0.0,0.0,0.0,0.0,0.0,0.0,0.0,0.0,0.0,0.0,-3.2645,-3.2618,-3.2594,0.0,0.0,0.0,0.0,0.0,0.0,0.0,0.0,0.0,0.0,-4.8887,-5.0407,-5.1192,-5.1534,-5.1317,-5.0805,-5.0155,-4.9361,-4.8004,-4.6316,-4.4042,0.0,0.0,0.0,0.0,0.0,0.0,0.0,0.0,0.0,0.0,0.0,0.0,0.0,0.0,0.0,0.0,0.0,0.0,0.0,0.0,0.0,0.0,0.0,0.0,0.0,0.0,0.0,0.0,0.0,0.0,0.0,0.0,0.0,0.0,0.0,0.0,0.0,0.0,0.0,0.0,0.0,0.0,0.0,0.0,0.0,0.0,0.0,0.0,0.0,0.0,0.0,0.0,0.0,-3.5194,-3.6979,-3.7826,-3.8681,-3.958,-3.9747,-3.9804,-3.9815,-3.9943,-3.9209,-3.7537,0.0,0.0,0.0,0.0,0.0,0.0,0.0,0.0,0.0,0.0,0.0,0.0,0.0,0.0,0.0,0.0,0.0,0.0,0.0,0.0,0.0,0.0,0.0,0.0,0.0,0.0,-3.2648,-3.2558,-3.2549,0.0,0.0,0.0,0.0,0.0,0.0,0.0,0.0,0.0,0.0,-4.709,-4.8566,-4.9564,-4.9732,-4.9491,-4.876,-4.8646,-4.8388,-4.7636,-4.6725,-4.555,0.0,0.0,0.0,0.0,0.0,0.0,0.0,0.0,0.0,0.0,0.0,0.0,0.0,0.0,0.0,0.0,0.0,0.0,0.0,0.0,0.0,0.0,0.0,0.0,0.0,0.0,0.0,-3.5118,-3.5045,0.0,0.0,0.0,0.0,0.0,0.0,0.0,0.0,0.0,0.0,0.0,-3.174,-3.1752,0.0,0.0,0.0,0.0,0.0,0.0,0.0,0.0,0.0,0.0,0.0,0.0,-3.5095,-3.6746,-3.7648,-3.8495,-3.9305,-3.9464,-3.9526,-3.9557,-3.9623,-3.889,-3.7273,0.0,0.0,0.0,0.0,0.0,0.0,0.0,0.0,0.0,0.0,0.0,0.0,0.0,0.0,0.0,0.0,0.0,0.0,0.0,0.0,0.0,0.0,0.0,0.0,0.0,-3.3591,0.0,0.0,0.0,0.0,0.0,0.0,0.0,0.0,0.0,0.0,0.0,-4.216,-4.3614,-4.5291,-4.6758,-4.7703,-4.7874,-4.8013,0.0,0.0,0.0,0.0,0.0,0.0,0.0,0.0,0.0,0.0,0.0,0.0,0.0,0.0,-3.4766,-3.3603,-3.3395,-3.3381,-3.3371,0.0,0.0,0.0,0.0,0.0,0.0,0.0,0.0,0.0,0.0,0.0,0.0,0.0,0.0,0.0,0.0,-3.5704,0.0,0.0,0.0,0.0,0.0,0.0,0.0,0.0,-3.448,-3.4374,-3.3051,-3.305,-3.349,0.0,-3.3905,-3.2995,0.0,0.0,0.0,0.0,0.0,0.0,0.0,0.0,-3.5571,-3.6897,-3.7858,-3.8567,-3.9064,-3.9237,-3.9285,-3.9285,-3.8776,-3.7915,-3.6618,-3.458,-3.3485,0.0,0.0,0.0,0.0,0.0,0.0,0.0,0.0,0.0,0.0,0.0,0.0,0.0,0.0,0.0,0.0,0.0,0.0,0.0,0.0,0.0,0.0,0.0,-3.433,0.0,0.0,0.0,0.0,0.0,0.0,0.0,0.0,0.0,-3.8042,-4.0377,-4.2326,-4.3178,-4.4528,-4.5706,-4.6309,0.0,0.0,0.0,0.0,0.0,0.0,0.0,-4.361,-4.3145,-4.2393,-4.1396,-4.0036,-3.8645,-3.7622,-3.7319,0.0,0.0,-3.451,-3.4309,-3.432,-3.4312,-3.4705,-3.5056,-3.5061,-3.545,-3.5822,0.0,0.0,0.0,0.0,0.0,0.0,0.0,0.0,-3.9167,-3.9149,0.0,-3.7707,0.0,0.0,0.0,0.0,0.0,0.0,0.0,0.0,-3.6566,-3.7138,-3.569,-3.5665,-3.6199,-3.693,-3.5502,-3.487,-3.4942,-3.3914,0.0,0.0,0.0,0.0,0.0,0.0,-3.6604,-3.7359,-3.8346,-3.8877,-3.8896,-3.9021,-3.9069,-3.9013,-3.7541,-3.6366,-3.5595,-3.4101,-3.3283,-3.3404,-3.1902,0.0,0.0,0.0,0.0,0.0,0.0,0.0,0.0,0.0,0.0,0.0,0.0,0.0,0.0,0.0,0.0,0.0,0.0,0.0,0.0,-3.4288,0.0,0.0,0.0,0.0,0.0,0.0,0.0,0.0,0.0,0.0,-3.8683,-4.111,-4.308,-4.3824,0.0,0.0,0.0,0.0,-4.4215,-4.4366,-4.3659,-4.3169,-4.3243,-4.2557,-4.2057,-4.21,0.0,0.0,-3.9919,-3.9057,-3.8151,-3.7329,-3.6538,-3.6012,-3.5975,-3.5898,-3.5933,-3.5931,-3.5857,-3.5877,-3.5883,-3.5852,-3.5856,-4.4198,0.0,0.0,0.0,0.0,-4.1563,-4.1389,-4.1209,-4.0786,-4.056,-4.0388,-3.899,0.0,0.0,0.0,0.0,0.0,0.0,-3.6759,-3.5645,-3.6861,-3.6646,-3.5281,-3.5399,-3.5566,-3.5782,-3.5553,-3.5736,-3.6231,-3.547,-3.4426,-3.3174,0.0,0.0,0.0,0.0,-3.6801,-3.7089,-3.8045,-3.8559,-3.8559,-3.8661,-3.8494,-3.7974,-3.6948,-3.6066,-3.5325,-3.4358,-3.3875,-3.3866,-3.2443,0.0,0.0,0.0,0.0,0.0,0.0,0.0,0.0,0.0,0.0,0.0,0.0,0.0,0.0,0.0,0.0,0.0,0.0,0.0,-3.4242,-3.4473,-3.455,0.0,0.0,0.0,0.0,0.0,0.0,0.0,0.0,0.0,-3.9117,-4.1127,-4.2557,0.0,0.0,-4.3461,-4.358,-4.334,-4.3224,-4.3307,0.0,0.0,0.0,-4.2459,-4.195,-4.2021,-4.0906,-3.993,-3.9762,-3.8509,-3.7433,-3.7208,-3.6501,-3.594,-3.5992,-3.6011,-3.6016,-3.6011,-3.5979,-3.5962,-3.5966,-3.5924,-3.59,-4.5486,-4.4268,-4.3354,-4.299,-4.2955,-4.2612,-4.2358,-4.2215,-4.1533,-4.1213,-4.1054,-3.9727,-3.8982,-3.8666,-3.8066,0.0,0.0,0.0,-3.7717,-3.6577,-3.7166,-3.6814,-3.5758,-3.5574,-3.5524,-3.5573,-3.5806,-3.6134,-3.6574,-3.5886,-3.538,-3.4992,0.0,0.0,-3.5255,-3.5889,-3.6368,-3.6709,-3.7053,-3.7259,-3.7259,-3.7403,-3.7131,-3.6379,-3.5861,-3.5314,-3.4601,-3.4131,-3.3921,-3.3954,-3.2839,-3.2082,0.0,0.0,0.0,0.0,0.0,0.0,0.0,0.0,0.0,0.0,0.0,-2.9345,0.0,0.0,0.0,0.0,-3.3425,-3.3911,-3.4394,-3.4397,0.0,0.0,0.0,0.0,0.0,0.0,0.0,-3.5901,-3.6852,-3.7991,-3.9674,-4.089,-4.1782,-4.2321,-4.2503,-4.2601,-4.2675,0.0,-4.2278,-4.2326,-4.2076,-4.1928,-4.2008,-4.1378,-4.0805,-4.0533,-3.971,-3.8937,-3.8631,-3.7732,-3.6996,-3.6662,-3.6219,-3.5878,-3.5936,-3.5968,-3.597,-3.6015,-3.6013,-3.6005,-3.6013,-3.5976,-3.5934,-4.606,-4.546,-4.4334,-4.3917,-4.3875,-4.3017,-4.2649,-4.2581,-4.1749,-4.1401,-4.1359,-4.0092,-3.9185,-3.8436,-3.7055,0.0,-3.6373,-3.7591,-3.7736,-3.6977,-3.7594,-3.7435,-3.6664,-3.6096,-3.589,-3.5954,-3.6079,-3.6187,-3.6203,-3.5587,-3.5649,-3.6392,-3.5402,-3.4958,-3.5066,-3.519,-3.5597,-3.6328,-3.5768,-3.5472,-3.5472,-3.567,-3.5388,-3.4591,-3.457,-3.425,-3.3603,-3.3563,-3.3615,-3.3703,-3.3054,-3.2327,-3.1568,0.0,0.0,0.0,0.0,0.0,0.0,0.0,0.0,0.0,0.0,0.0,0.0,0.0,0.0,0.0,-3.4117,0.0,-3.4173,-3.4173,0.0,0.0,0.0,-3.4092,-3.4074,-3.4086,-3.4723,-3.6395,0.0,0.0,-3.9979,0.0,-4.0582,-4.1613,-4.2056,-4.2275,-4.2286,-4.1607,-4.1213,-4.1217,-4.054,-4.0061,-4.014,-3.9657,-3.9064,-3.8518,-3.8136,-3.7843,-3.7237,-3.6934,-3.6576,-3.5976,-3.5795,-3.581,-3.5878,-3.5909,-3.5919,-3.5991,-3.6015,-3.6015,-3.6009,-3.5999,-3.5981,-4.5566,-4.4847,-4.4019,-4.3939,-4.4342,-4.4118,-4.3967,-4.3782,-4.2591,-4.2006,-4.1859,-4.0536,-3.9865,-3.9678,-3.9297,-3.9127,-3.9144,-3.9344,-3.9033,-3.8342,-3.8387,-3.7716,-3.6498,-3.643,-3.6112,-3.5554,-3.5672,-3.5756,-3.5761,-3.5696,-3.5761,-3.5941,-3.5242,-3.5379,-3.6295,-3.5887,-3.5733,-3.5946,-3.5403,-3.5187,-3.5341,-3.5375,-3.5032,-3.4245,-3.4255,-3.3944,-3.3165,-3.3193,-3.3238,-3.3247,-3.2607,-3.2141,-3.1882,-3.121,0.0,0.0,0.0,0.0,0.0,0.0,0.0,0.0,0.0,-2.9524,-3.0537,0.0,-3.2631,0.0,-3.3545,-3.3908,-3.3972,-3.3939,0.0,0.0,-3.3847,-3.3868,-3.3887,-3.3921,-3.4391,-3.5491,-3.58,-3.6313,-3.7327,-3.7492,-3.7647,-3.7977,-3.9339,-4.0332,-4.0405,-3.9808,-3.9359,-3.9382,-3.8804,-3.826,-3.835,-3.8295,-3.8177,-3.8063,-3.7545,-3.709,-3.6942,-3.6358,-3.5896,-3.5752,-3.5758,-3.5784,-3.5768,-3.5861,-3.5895,-3.5986,-3.6017,-3.6008,-3.6016,-3.6007,-3.6009,-4.4649,-4.4174,-4.3453,-4.3353,-4.3663,-4.3885,-4.3977,-4.3789,-4.235,-4.1705,-4.1622,-4.0297,-3.9696,-3.9679,-3.9696,-3.967,-3.9575,-3.9222,-3.882,-3.8326,-3.7618,-3.6821,-3.6049,-3.5837,-3.5518,-3.5078,-3.5218,-3.5159,-3.4902,-3.497,-3.4913,-3.4684,-3.4342,-3.4537,-3.5232,-3.4683,-3.4401,-3.4476,-3.3598,-3.3406,-3.3898,-3.363,-3.3417,-3.3311,-3.3344,-3.3164,-3.2787,-3.2818,-3.2707,-3.2416,-3.2335,-3.1861,-3.0854,-3.0751,-3.0282,0.0,0.0,0.0,0.0,0.0,0.0,0.0,0.0,0.0,0.0,0.0,-3.265,0.0,-3.3456,-3.3712,-3.3726,-3.3684,-3.3629,-3.3577,-3.3615,-3.3657,-3.3689,-3.3726,-3.4105,-3.4968,-3.5087,-3.5459,-3.6284,-3.6477,-3.6541,-3.6634,-3.756,-3.8328,-3.8489,-3.8214,-3.8056,-3.8109,-3.7781,-3.7386,-3.7155,-3.7201,-3.7167,-3.6849,-3.6459,-3.6188,-3.6247,-3.5558,-3.5013,-3.5078,-3.4846,-3.462,-3.466,-3.4698,-3.4773,-3.4824,-3.485,-3.5124,-3.5839,-3.6014,-3.6007,-4.3573,-4.3428,-4.2813,-4.2522,-4.2554,-4.2953,-4.312,-4.3051,-4.1602,-4.0914,-4.0783,-3.9622,-3.9098,-3.9115,-3.9098,-3.8984,-3.8734,-3.8179,-3.7748,-3.7402,-3.6133,-3.5495,-3.538,-3.4882,-3.4593,-3.4511,-3.4631,-3.4392,-3.381,-3.381,-3.3612,-3.3227,-3.3127,-3.3085,-3.3123,-3.2578,-3.24,-3.2595,-3.1425,-3.122,-3.1987,-3.141,-3.1426,-3.2056,-3.2179,-3.2231,-3.2264,-3.2247,-3.1928,-3.1304,-3.1851,-3.1336,-2.95,-2.9961,-2.9488,0.0,-2.7432,0.0,0.0,0.0,0.0,0.0,0.0,0.0,0.0,-3.2244,-3.2714,-3.3494,-3.3549,-3.352,-3.3462,-3.3448,-3.3437,-3.3378,-3.3422,-3.3448,-3.3462,-3.3534,-3.3832,-3.4553,-3.4698,-3.5062,-3.576,-3.5997,-3.6076,-3.6093,-3.6165,-3.6252,-3.6422,-3.6738,-3.7021,-3.7087,-3.6974,-3.6385,-3.5808,-3.5812,-3.5687,-3.5097,-3.4982,-3.5079,-3.5082,-3.4533,-3.4082,-3.4124,-3.3673,-3.3234,-3.3258,-3.3319,-3.3378,-3.349,-3.3526,-3.3965,-3.5152,-3.5507,-3.5663,-4.296,-4.2398,-4.2254,-4.219,-4.2158,-4.1706,-4.1698,-4.1864,-4.0973,-3.9966,-3.8938,-3.8674,-3.8544,-3.856,-3.8544,-3.8219,-3.7606,-3.7503,-3.6793,-3.5678,-3.5402,-3.4964,-3.4387,-3.439,-3.4064,-3.3525,-3.3612,-3.3346,-3.2695,-3.2809,-3.2811,-3.2713,-3.2133,-3.1835,-3.1807,0.0,0.0,0.0,-3.0872,-3.0659,-3.0957,-3.0749,-3.0767,-3.0993,-3.1456,0.0,-3.1063,-3.0923,-3.056,-2.9851,-2.9988,0.0,0.0,0.0,0.0,0.0,0.0,0.0,0.0,0.0,0.0,0.0,-2.9089,-2.9744,-3.0973,-3.2208,-3.3064,-3.3316,-3.3256,-3.3241,-3.3322,-3.3226,-3.3162,-3.3147,-3.3162,-3.3226,-3.3322,-3.3393,-3.3506,-3.3706,-3.3796,-3.3889,-3.4067,-3.4118,-3.4156,-3.4238,-3.4288,-3.4079,-3.3623,-3.4896,-3.5866,-3.5934,-3.5063,-3.4016,-3.3176,-3.3292,-3.3517,-3.313,-3.3226,-3.3327,-3.3362,-3.3307,-3.316,-3.3234,-3.3191,-3.305,-3.3078,-3.3215,-3.319,-3.3315,-3.3339,-3.3505,-3.3814,-3.3904,-3.3886,-4.1936,0.0,-4.1241,-4.1099,0.0,-4.0388,-4.0008,-3.9813,-3.9782,-3.9162,-3.8164,-3.8135,-3.8164,-3.8148,-3.7794,-3.7468,-3.7065,-3.6389,-3.568,-3.4987,-3.4633,-3.4253,-3.3882,-3.362,-3.3298,-3.2959,-3.2635,-3.2189,-3.1593,-3.1691,-3.1618,-3.1308,-3.0991,-3.0854,-3.0854,-3.0428,-3.0443,-3.0902,-3.0352,-3.0133,-3.0299,-3.0265,-3.0302,-3.0425,0.0,0.0,0.0,0.0,0.0,0.0,0.0,0.0,0.0,0.0,0.0,-2.8758,-2.8373,-2.8161,-2.8161,-2.784,-2.7835,-2.8235,-2.8725,-2.9599,-3.1034,-3.2255,-3.2981,-3.3028,-3.3011,-3.3011,-3.3028,-3.2997,-3.2932,-3.2866,-3.2898,-3.2854,-3.2588,-3.2556,-3.2501,-3.2213,-3.2198,-3.224,-3.2282,-3.2264,-3.2306,-3.2402,-3.2442,-3.2381,-3.2236,-3.329,-3.4152,-3.3889,-3.3318,-3.2661,-3.2306,-3.2345,-3.2433,-3.2479,-3.2578,-3.2672,-3.271,-3.2419,-3.2218,-3.2231,-3.1996,-3.1774,-3.1811,-3.1896,-3.1973,-3.2007,-3.2041,-3.2094,-3.2152,-3.2781,-3.3378,-4.1005,-4.0883,-4.0322,-4.001,-3.9869,-3.92,-3.8513,-3.7841,0.0,0.0,0.0,-3.773,-3.7679,-3.7536,-3.7007,-3.6609,-3.629,-3.5186,-3.4553,-3.4425,-3.3682,-3.3374,-3.3367,-3.2748,-3.2373,-3.227,-3.1694,-3.1101,-3.0505,-3.0596,-3.0315,-2.9778,-2.9859,-2.982,-2.9706,-2.969,-2.9812,-2.9968,-2.9729,-2.9658,-2.9811,-2.9715,-2.9705,-2.9796,-3.0482,-3.0802,-3.0687,-3.0212,-2.9538,-2.8644,-2.8647,-2.8111,-2.6995,-2.747,-2.7656,-2.7315,-2.7294,-2.7294,-2.731,-2.7373,-2.7419,-2.745,-2.8283,-2.9505,-3.1142,-3.1895,-3.2316,-3.2316,-3.2362,-3.2378,-3.2349,-3.2316,-3.2283,-3.2166,-3.2265,-3.2062,-3.1538,-3.1505,-3.1345,-3.0862,-3.0837,-3.0794,-3.0932,-3.0964,-3.0916,-3.1043,-3.1193,-3.1042,-3.1179,-3.2011,-3.2499,-3.1886,-3.1733,-3.1715,-3.162,-3.1627,-3.1808,-3.1676,-3.1905,-3.2099,-3.202,-3.163,-3.1291,-3.1256,-3.0727,-3.0537,-3.0499,-3.0656,-3.0604,-3.0665,-3.0698,-3.07,-3.0869,-3.1781,-3.2606,-4.0608,-4.0244,-4.0134,-3.9793,-3.92,-3.8466,-3.7748,-3.7155,-3.7247,-3.7214,-3.7136,-3.7121,-3.6792,-3.6258,-3.6164,-3.5459,-3.4344,-3.4097,-3.3721,0.0,-3.241,-3.2118,-3.22,-3.1675,-3.118,-3.0728,-3.0719,-3.035,-2.9749,-2.9685,-2.9355,-2.8774,-2.8731,-2.8431,-2.7837,-2.7809,-2.7851,-2.8008,-2.8829,-2.934,-2.946,-2.8817,-2.847,-2.8566,-2.9221,-2.9287,-2.8716,-2.9152,-2.8761,-2.7439,-2.7356,-2.7087,-2.645,-2.657,-2.6674,-2.6792,-2.6791,-2.6842,-2.6958,-2.7024,-2.712,-2.7264,-2.8,-2.8994,-3.0173,-3.0397,-3.0467,-3.0467,-3.0587,-3.0483,-3.0467,-3.052,-3.0573,-3.0486,-3.0549,-3.0506,-3.0433,-3.0505,-3.0508,-3.0359,-3.0558,-3.0581,-3.055,-3.0618,-3.0607,-3.0764,-3.0635,-3.0677,-3.0363,-3.1011,-3.1286,-3.0743,-3.0631,-3.0412,-3.006,-2.9846,-3.0066,-2.9945,-3.0198,-3.0407,-3.0416,-3.0416,-3.0365,-3.0333,-3.0329,-3.0324,-3.0352,-3.0477,-3.0414,-3.0445,-3.0401,-3.0467,-3.0486,-3.0425,-3.0399,-3.9484,-3.8954,-3.8585,-3.8246,-3.7908,-3.723,-3.6737,-3.6414,-3.6076,-3.6337,-3.6938,-3.6625,-3.6282,-3.5923,-3.5219,-3.4532,-3.3892,-3.3548,-3.299,-3.2278,-3.1935,-3.1644,-3.1315,-3.0748,-3.0319,-3.0053,-2.9343,-2.8846,-2.8523,-2.8234,-2.7973,-2.7752,-2.7849,-2.7737,-2.7416,-2.74,-2.7437,-2.7478,-2.8049,-2.82,-2.7928,-2.797,-2.7843,-2.7495,-2.8165,-2.8447,-2.8198,-2.8109,-2.7744,-2.7071,-2.6677,-2.6354,-2.6169,-2.6171,-2.6261,-2.6453,-2.647,-2.6538,-2.6674,-2.6742,-2.6809,-2.6923,-2.7263,-2.7688,-2.8196,-2.9206,-2.9775,-2.9775,-2.9775,-2.9776,-2.9792,-2.9842,-2.9893,-2.9893,-2.9939,-2.9828,-2.9523,-2.9482,-2.9367,-2.9024,-2.9009,-2.9086,-2.9133,-2.919,-2.9266,-2.9336,-2.943,-2.9377,-2.9132,-2.9517,-2.9807,-2.9569,-2.9596,-2.9528,-2.9237,-2.9286,-2.937,-2.9433,-2.9551,-2.9664,-2.9738,-2.9859,-2.9932,-2.9996,-3.0075,-3.0015,-2.9775,-2.9688,-2.958,-2.9178,-2.9162,-2.9202,-2.9195,-2.8995,-2.8985,-3.8239,-3.7588,-3.7122,-3.6786,-3.6574,-3.5938,-3.5651,-3.559,-3.4939,-3.5248,-3.6075,-3.5716,-3.5481,-3.5217,-3.4149,-3.3606,-3.3373,-3.2769,-3.2164,-3.1626,-3.1326,-3.0918,-3.04,-2.9772,-2.9392,-2.9192,-2.8155,-2.7579,-2.7422,-2.7049,-2.6812,-2.6793,-2.6767,-2.6771,-2.6755,-2.6755,-2.6755,-2.6791,-2.689,-2.69,-2.6872,-2.7264,-2.7207,-2.6776,-2.725,-2.7599,-2.7698,-2.7339,-2.7081,-2.6921,-2.6381,-2.6026,-2.5936,-2.5937,-2.601,-2.6189,-2.6207,-2.6259,-2.638,-2.6486,-2.6555,-2.659,-2.6624,-2.6657,-2.6776,-2.7964,-2.8836,-2.8904,-2.8852,-2.8869,-2.8886,-2.8988,-2.909,-2.909,-2.9139,-2.8925,-2.8504,-2.8446,-2.8301,-2.7732,-2.7704,-2.7783,-2.7777,-2.7836,-2.801,-2.8113,-2.815,-2.8246,-2.8313,-2.838,-2.8492,-2.87,-2.8822,-2.8923,-2.901,-2.9071,-2.916,-2.9238,-2.9372,-2.9379,-2.9364,-2.9372,-2.9346,-2.928,-2.9338,-2.9196,-2.8797,-2.8734,-2.8562,-2.8173,-2.813,-2.8039,-2.7912,-2.7901,-2.8039,-3.7067,-3.6652,-3.6532,-3.6172,-3.5477,-3.491,-3.4655,-3.4535,-3.3921,-3.3682,-3.3864,-3.4046,-3.3846,-3.3299,-3.3145,-3.2749,-3.2155,-3.1488,-3.1122,-3.0894,-2.9814,-2.9271,-2.9301,-2.8658,-2.8134,-2.7783,-2.7519,-2.7162,-2.6754,-2.6658,-2.6389,-2.5801,-2.517,-2.4905,-2.4909,-2.4889,-2.4889,-2.4873,-2.4878,-2.5683,-2.7192,-2.6727,-2.6407,-2.6379,-2.6411,-2.6515,-2.6683,-2.7215,-2.7292,-2.6785,-2.6643,-2.6341,-2.5817,-2.5721,-2.5791,-2.5917,-2.5936,-2.5972,-2.6063,-2.6225,-2.633,-2.6348,-2.6451,-2.652,-2.652,-2.6689,-2.6894,-2.7148,-2.7181,-2.7282,-2.7246,-2.7313,-2.7433,-2.7483,-2.7496,-2.7305,-2.7388,-2.7397,-2.7471,-2.7469,-2.7481,-2.7539,-2.7602,-2.7632,-2.7689,-2.7821,-2.7954,-2.8039,-2.8109,-2.8136,-2.812,-2.8326,-2.8525,-2.87,-2.8803,-2.8893,-2.8877,-2.9027,-2.9155,-2.8909,-2.849,-2.8381,-2.8376,-2.8104,-2.7853,-2.7914,-2.7818,-2.7777,-2.7821,-2.7525,-2.7508,-2.7638,-2.7128,-2.6962,-2.7251,-3.5786,-3.528,-3.5266,-3.4883,-3.4295,-3.4015,-3.3677,-3.3282,-3.2634,-3.2354,-3.234,-3.2107,-3.2258,-3.2644,-3.2298,-3.1756,-3.1153,-3.0867,-3.031,-2.9599,-2.9089,-2.8717,-2.8329,-2.7774,-2.7383,-2.7117,-2.6436,-2.5922,-2.5674,-2.5318,-2.5022,-2.4775,-2.4508,-2.4405,-2.4441,-2.4426,-2.4441,-2.4421,-2.4426,-2.4808,-2.5446,-2.5397,-2.5361,-2.5517,-2.5552,-2.5616,-2.5785,-2.6094,-2.6129,-2.5895,-2.5863,-2.5754,-2.547,-2.547,-2.5492,-2.5602,-2.5733,-2.5828,-2.5936,-2.6043,-2.6081,-2.6046,-2.6099,-2.6133,-2.6151,-2.6168,-2.624,-2.645,-2.6589,-2.6691,-2.6759,-2.6792,-2.6842,-2.6925,-2.7007,-2.7039,-2.7039,-2.7104,-2.7152,-2.7152,-2.7215,-2.7277,-2.7308,-2.7419,-2.7542,-2.7644,-2.7719,-2.7757,-2.7876,-2.7922,-2.7752,-2.7522,-2.7583,-2.7967,-2.8382,-2.8233,-2.8141,-2.8153,-2.7945,-2.7524,-2.7509,-2.7438,-2.7419,-2.7194,-2.7175,-2.7044,-2.6821,-2.6756,-2.6753,-2.659,-2.6385,-2.6317,-2.6076,-2.6059,-2.6307,-3.4712,-3.4259,-3.4057,-3.3642,-3.3097,-3.2909,-3.2576,-3.2069,-3.1447,-3.1186,-3.1114,-3.0506,-3.0703,-3.1442,-3.1159,-3.0667,-3.0117,-2.9922,-2.9369,-2.8461,-2.8382,-2.8,-2.7355,-2.6988,-2.6609,-2.6165,-2.5319,-2.4783,-2.4593,-2.4204,-2.3973,-2.3994,-2.4057,-2.4099,-2.4099,-2.4099,-2.4135,-2.4156,-2.4177,-2.4193,-2.4255,-2.438,-2.4584,-2.4826,-2.4886,-2.4985,-2.5158,-2.5178,-2.5178,-2.5217,-2.5201,-2.522,-2.524,-2.524,-2.5278,-2.5375,-2.5511,-2.5642,-2.5715,-2.5752,-2.5752,-2.5754,-2.5789,-2.5826,-2.5826,-2.5826,-2.5899,-2.6061,-2.6274,-2.6399,-2.6571,-2.6606,-2.6691,-2.6792,-2.6826,-2.6859,-2.6859,-2.6876,-2.6892,-2.6925,-2.7006,-2.7054,-2.7086,-2.7214,-2.734,-2.7432,-2.7302,-2.724,-2.7289,-2.7189,-2.6877,-2.6502,-2.6517,-2.6889,-2.7584,-2.7398,-2.7163,-2.7153,-2.6893,-2.6712,-2.6569,-2.6515,-2.634,-2.6127,-2.6422,-2.6384,-2.5925,-2.5752,-2.5855,-2.5447,-2.5334,-2.5475,-2.5584,-2.5522,-2.5544,-3.3945,-3.3817,-3.3245,-3.2615,-3.2015,-3.1503,-3.1203,-3.1103,-3.0456,-3.0185,-3.0099,-2.9527,-2.9299,-2.9402,-2.9537,-2.9347,-2.8792,-2.8349,-2.8054,-2.7847,-2.745,-2.6897,-2.6307,-2.6233,-2.5642,-2.4766,-2.4483,-2.4164,-2.3736,-2.3646,-2.3616,-2.3638,-2.3653,-2.3653,-2.3653,-2.3674,-2.3696,-2.3803,-2.3803,-2.3861,-2.3967,-2.4024,-2.4172,-2.4477,-2.4584,-2.4706,-2.4822,-2.4822,-2.4902,-2.5005,-2.5005,-2.5045,-2.5072,-2.5091,-2.5146,-2.5259,-2.5298,-2.5333,-2.5336,-2.5394,-2.5416,-2.5435,-2.553,-2.5605,-2.5605,-2.5661,-2.5717,-2.5738,-2.5936,-2.6151,-2.6332,-2.6435,-2.652,-2.6537,-2.6537,-2.652,-2.6537,-2.6606,-2.664,-2.6708,-2.6741,-2.6721,-2.6888,-2.7054,-2.6947,-2.6873,-2.6586,-2.6291,-2.6234,-2.5833,-2.5582,-2.5524,-2.5535,-2.5676,-2.5966,-2.614,-2.6201,-2.6184,-2.6173,-2.6148,-2.5847,-2.5531,-2.5263,-2.5064,-2.5157,-2.5118,-2.49,-2.4943,-2.5189,-2.5162,-2.5245,-2.5337,-2.5397,-2.5464,-2.5495,-3.3309,-3.2885,-3.2263,-3.1641,-3.1015,-3.0793,-3.0496,-3.0086,-2.9464,-2.9209,-2.9096,-2.8559,-2.8064,-2.7654,-2.7755,-2.7797,-2.7778,-2.7603,-2.7301,-2.6868,-2.6405,-2.6046,-2.5785,-2.5092,-2.4613,-2.4208,-2.3775,-2.3518,-2.3437,-2.3414,-2.3414,-2.3414,-2.3407,-2.3414,-2.3392,-2.3407,-2.3451,-2.3458,-2.348,-2.3494,-2.3545,-2.364,-2.3754,-2.3946,-2.4261,-2.4482,-2.4584,-2.4645,-2.469,-2.4766,-2.4731,-2.4751,-2.4791,-2.4791,-2.4846,-2.4982,-2.4982,-2.5021,-2.5084,-2.5143,-2.5162,-2.5204,-2.5262,-2.5272,-2.5394,-2.5416,-2.5489,-2.5586,-2.5677,-2.5697,-2.5568,-2.5976,-2.6399,-2.6485,-2.6468,-2.6418,-2.6502,-2.652,-2.6537,-2.6505,-2.6253,-2.5813,-2.5587,-2.5429,-2.5492,-2.5584,-2.5422,-2.5358,-2.5377,-2.5207,-2.4945,-2.4671,-2.4655,-2.4571,-2.4058,-2.4801,-2.5195,-2.5161,-2.5114,-2.4918,-2.4656,-2.4771,-2.4598,-2.4734,-2.4578,-2.4639,-2.4722,-2.4865,-2.4992,-2.5095,-2.5187,-2.5268,-2.5327,-2.5402,-2.5452,-3.2353,-3.1626,-3.1179,-3.0648,-3.0075,-2.982,-2.9544,-2.9097,-2.8496,-2.826,-2.8148,-2.7587,-2.7084,-2.6693,-2.6483,-2.6526,-2.6776,-2.6844,-2.6544,-2.5946,-2.5661,-2.5307,-2.4844,-2.4139,-2.3705,-2.358,-2.3196,-2.2971,-2.3075,-2.3075,-2.3061,-2.3075,-2.3075,-2.3075,-2.3075,-2.3075,-2.3083,-2.315,-2.3187,-2.3231,-2.3282,-2.34,-2.3451,-2.3545,-2.3861,-2.4135,-2.4333,-2.438,-2.4405,-2.4405,-2.4405,-2.4426,-2.4446,-2.4472,-2.4549,-2.4625,-2.4661,-2.4666,-2.4735,-2.4602,-2.4536,-2.4547,-2.4381,-2.4328,-2.4436,-2.4493,-2.4588,-2.4716,-2.4811,-2.4679,-2.4597,-2.5004,-2.5475,-2.5611,-2.5629,-2.5629,-2.5612,-2.5612,-2.563,-2.5598,-2.5313,-2.4891,-2.4534,-2.4464,-2.456,-2.4616,-2.4509,-2.4394,-2.4464,-2.4322,-2.4164,-2.3757,-2.375,-2.364,-2.344,-2.3895,-2.4284,-2.4281,-2.4454,-2.4122,-2.4034,-2.4122,-2.4237,-2.4385,-2.4482,-2.4566,-2.4668,-2.4813,-2.4945,-2.5044,-2.5149,-2.5234,-2.5278,-2.5337,-2.5387,-3.1135,-3.0182,-3.0011,-2.9684,-2.9103,-2.865,-2.8274,-2.8152,-2.7585,-2.7351,-2.7268,-2.6699,-2.6422,-2.6269,-2.5868,-2.5619,-2.5757,-2.5961,-2.5786,-2.5289,-2.5234,-2.4629,-2.3669,-2.3483,-2.3164,-2.2738,-2.2629,-2.2638,-2.2684,-2.2684,-2.2669,-2.2623,-2.2684,-2.2706,-2.2623,-2.2684,-2.2723,-2.2881,-2.2926,-2.3016,-2.326,-2.3253,-2.3253,-2.3282,-2.3429,-2.3616,-2.3915,-2.3988,-2.4024,-2.4024,-2.4009,-2.403,-2.4099,-2.4158,-2.4235,-2.4189,-2.4204,-2.4225,-2.4169,-2.3761,-2.3495,-2.3472,-2.3001,-2.2839,-2.2961,-2.3009,-2.3119,-2.3258,-2.3357,-2.3423,-2.3511,-2.3614,-2.3832,-2.3817,-2.4115,-2.4115,-2.4016,-2.3934,-2.3968,-2.4148,-2.4179,-2.429,-2.4256,-2.4038,-2.4002,-2.3949,-2.3688,-2.3422,-2.343,-2.3209,-2.2831,-2.2798,-2.3007,-2.3076,-2.3052,-2.31,-2.3288,-2.3495,-2.3764,-2.3792,-2.3876,-2.3966,-2.4103,-2.4266,-2.4438,-2.4532,-2.4594,-2.4734,-2.4849,-2.496,-2.5088,-2.5178,-2.5245,-2.5288,-2.5317,-3.0328,-2.9955,-2.9555,-2.9044,-2.8491,-2.8284,-2.7983,-2.7527,-2.6946,-2.6711,-2.6558,-2.6047,-2.5771,-2.5743,-2.5564,-2.5287,-2.4994,-2.5047,-2.5043,-2.4906,-2.4222,-2.3643,-2.3205,-2.2805,-2.2555,-2.2491,-2.2555,-2.2615,-2.2615,-2.2615,-2.2615,-2.2615,-2.2615,-2.2615,-2.2592,-2.2615,-2.2646,-2.2692,-2.2692,-2.2723,-2.2806,-2.2843,-2.2836,-2.2889,-2.2934,-2.2856,-2.2677,-2.3334,-2.3702,-2.3687,-2.3739,-2.3739,-2.3706,-2.3417,-2.319,-2.3151,-2.2748,-2.2546,-2.2626,-2.2513,-2.2454,-2.2536,-2.2409,-2.2427,-2.2509,-2.2537,-2.2629,-2.2773,-2.2936,-2.2918,-2.2576,-2.2516,-2.2862,-2.3719,-2.3801,-2.3702,-2.3653,-2.3752,-2.3605,-2.3226,-2.3223,-2.3071,-2.2718,-2.2663,-2.2807,-2.2819,-2.2595,-2.2519,-2.26,-2.2567,-2.2477,-2.2555,-2.2659,-2.2777,-2.2842,-2.2932,-2.3082,-2.3253,-2.3429,-2.3642,-2.3739,-2.3845,-2.3986,-2.4162,-2.4367,-2.4481,-2.4553,-2.465,-2.4749,-2.4877,-2.4999,-2.5095,-2.5178,-2.5225,-2.5253,-2.9479,-2.928,-2.8879,-2.8407,-2.7803,-2.7598,-2.7165,-2.6551,-2.5978,-2.5732,-2.5651,-2.535,-2.5173,-2.5173,-2.5173,-2.4996,-2.4641,-2.4231,-2.4131,-2.4189,-2.3429,-2.2853,-2.2616,-2.2239,-2.2114,-2.2254,-2.2347,-2.2394,-2.244,-2.2454,-2.2463,-2.244,-2.244,-2.244,-2.244,-2.244,-2.2463,-2.2523,-2.2546,-2.2532,-2.2592,-2.2615,-2.2623,-2.264,-2.2678,-2.2392,-2.1975,-2.2527,-2.2795,-2.2683,-2.2659,-2.2695,-2.2651,-2.2316,-2.215,-2.2075,-2.1848,-2.166,-2.1689,-2.1534,-2.1461,-2.1595,-2.1455,-2.1381,-2.1529,-2.1618,-2.1748,-2.1856,-2.1916,-2.1864,-2.1604,-2.1559,-2.1951,-2.2554,-2.2686,-2.2801,-2.2834,-2.2851,-2.2704,-2.2311,-2.2308,-2.2124,-2.1871,-2.1753,-2.1811,-2.1884,-2.1911,-2.1955,-2.212,-2.2271,-2.2335,-2.2432,-2.2525,-2.2619,-2.2672,-2.2777,-2.2906,-2.307,-2.3235,-2.3447,-2.3605,-2.3725,-2.3852,-2.4074,-2.4284,-2.4403,-2.4479,-2.4545,-2.4642,-2.4783,-2.4884,-2.4973,-2.5057,-2.5136,-2.5179,-2.8572,-2.8106,-2.8046,-2.7693,-2.7085,-2.6574,-2.5988,-2.5348,-2.4871,-2.4673,-2.466,-2.4633,-2.4578,-2.4578,-2.462,-2.4584,-2.448,-2.3635,-2.3205,-2.3146,-2.2754,-2.2355,-2.1945,-2.1845,-2.1926,-2.1996,-2.202,-2.2077,-2.2184,-2.2184,-2.217,-2.2184,-2.2184,-2.2184,-2.2184,-2.2184,-2.2231,-2.2324,-2.2347,-2.2379,-2.2486,-2.2523,-2.2509,-2.2509,-2.2495,-2.2201,-2.1652,-2.1476,-2.1348,-2.1162,-2.1247,-2.1312,-2.1166,-2.1126,-2.1123,-2.1129,-2.121,-2.1108,-2.1089,-2.069,-2.0485,-2.0598,-2.0254,-1.983,-2.0188,-2.0406,-2.0514,-2.0551,-2.0593,-2.0652,-2.0704,-2.0787,-2.0853,-2.0857,-2.1261,-2.1375,-2.1263,-2.1375,-2.1503,-2.1517,-2.1512,-2.1574,-2.1589,-2.1589,-2.1634,-2.1693,-2.1753,-2.1827,-2.1915,-2.2063,-2.2223,-2.2304,-2.2374,-2.2457,-2.2525,-2.2619,-2.2751,-2.2881,-2.3045,-2.3229,-2.3464,-2.3605,-2.3757,-2.3984,-2.4142,-2.4275,-2.4384,-2.4454,-2.4555,-2.465,-2.4768,-2.4856,-2.4946,-2.5032,-2.5112,-2.7801,-2.7669,-2.7669,-2.7092,-2.6212,-2.5988,-2.5358,-2.4508,-2.431,-2.4218,-2.4218,-2.4218,-2.4218,-2.4247,-2.4218,-2.4024,-2.3655,-2.3313,-2.2946,-2.2631,-2.2178,-2.1893,-2.1712,-2.1746,-2.1807,-2.1831,-2.1817,-2.1864,-2.1902,-2.1912,-2.1926,-2.1902,-2.1912,-2.1926,-2.1902,-2.1926,-2.1912,-2.1935,-2.1959,-2.1983,-2.2006,-2.203,-2.202,-2.2006,-2.202,-2.1699,-2.1049,-2.0199,-2.0147,-2.0775,-2.0817,-2.0817,-2.0681,-2.0384,-2.016,-2.0102,-1.9782,-1.9585,-1.9701,-1.9607,-1.9581,-1.9701,-1.9638,-1.9596,-1.9762,-1.9815,-1.9922,-2.0043,-2.0183,-2.0237,-2.0272,-2.039,-2.0492,-2.0595,-2.0778,-2.0925,-2.0974,-2.1087,-2.1167,-2.1183,-2.1262,-2.1309,-2.1372,-2.1434,-2.148,-2.1573,-2.1634,-2.1679,-2.1753,-2.1857,-2.1988,-2.2075,-2.2161,-2.2276,-2.2391,-2.2487,-2.2579,-2.2699,-2.2842,-2.297,-2.3247,-2.3515,-2.3682,-2.3855,-2.3986,-2.4124,-2.4247,-2.4358,-2.4455,-2.4528,-2.466,-2.4753,-2.4842,-2.4933,-2.5038,-2.704,-2.7053,-2.7053,-2.6431,-2.5517,-2.5452,-2.4869,-2.4024,-2.3897,-2.391,-2.391,-2.3881,-2.3868,-2.3868,-2.3868,-2.37,-2.3389,-2.313,-2.2873,-2.2591,-2.2125,-2.173,-2.1455,-2.1434,-2.1496,-2.153,-2.1544,-2.1578,-2.1626,-2.1674,-2.1712,-2.1736,-2.1783,-2.1793,-2.1817,-2.1793,-2.1793,-2.1793,-2.1793,-2.1793,-2.1793,-2.1793,-2.1793,-2.1793,-2.1766,-2.1411,-2.0469,-1.9469,-1.919,-1.955,-1.9633,-1.9633,-1.9619,-1.9369,-1.9177,-1.9149,-1.8887,-1.886,-1.8908,-1.8965,-1.9064,-1.9213,-1.9269,-1.9376,-1.9541,-1.9636,-1.9777,-1.9866,-1.999,-2.0043,-2.0078,-2.0166,-2.025,-2.0304,-2.0461,-2.0613,-2.0712,-2.0843,-2.0924,-2.0941,-2.1006,-2.1087,-2.1151,-2.1214,-2.1309,-2.1404,-2.1434,-2.1495,-2.1555,-2.1661,-2.1766,-2.1855,-2.1986,-2.2118,-2.2265,-2.2377,-2.2474,-2.2596,-2.2725,-2.2829,-2.307,-2.3377,-2.3571,-2.3736,-2.3852,-2.3966,-2.4103,-2.4228,-2.4321,-2.4419,-2.4539,-2.4637,-2.473,-2.4832,-2.4931,-2.6346,-2.6346,-2.6283,-2.577,-2.4994,-2.4874,-2.4285,-2.3607,-2.348,-2.348,-2.3467,-2.348,-2.348,-2.3509,-2.3467,-2.3497,-2.3416,-2.2996,-2.2757,-2.2546,-2.2223,-2.1784,-2.1062,-2.1171,-2.1257,-2.1278,-2.1198,-2.1215,-2.1313,-2.1447,-2.152,-2.152,-2.1616,-2.1688,-2.164,-2.165,-2.1712,-2.1664,-2.1626,-2.1602,-2.1602,-2.1602,-2.1616,-2.1602,-2.1602,-2.1072,-2.0102,-1.922,-1.8732,-1.8254,-1.8184,-1.8313,-1.8285,-1.8296,-1.8307,-1.8394,-1.8526,-1.862,-1.8659,-1.8721,-1.8841,-1.9007,-1.9078,-1.9172,-1.9339,-1.9505,-1.9614,-1.9669,-1.9845,-1.9899,-1.9935,-1.9952,-1.9988,-2.0008,-2.0063,-2.0187,-2.0392,-2.0577,-2.066,-2.0676,-2.0794,-2.086,-2.0909,-2.0958,-2.1087,-2.1199,-2.1214,-2.1277,-2.1371,-2.1495,-2.1587,-2.1678,-2.1811,-2.1972,-2.212,-2.2251,-2.238,-2.2474,-2.2649,-2.2777,-2.2944,-2.3217,-2.343,-2.36,-2.3682,-2.3821,-2.3966,-2.4075,-2.4172,-2.4294,-2.442,-2.4505,-2.4596,-2.4711,-2.4802,-2.6002,-2.5965,-2.5546,-2.5024,-2.4426,-2.3993,-2.3468,-2.2934,-2.2921,-2.2951,-2.2909,-2.2921,-2.2921,-2.2921,-2.2951,-2.2891,-2.2951,-2.2765,-2.2553,-2.221,-2.2382,-2.1771,-2.1131,-2.1186,-2.1354,-2.13,-2.1018,-2.0883,-2.0957,-2.1057,-2.1144,-2.1144,-2.118,-2.118,-2.118,-2.1204,-2.118,-2.1193,-2.118,-2.1204,-2.1191,-2.1204,-2.118,-2.1204,-2.118,-2.0818,-2.0187,-1.9498,-1.8923,-1.8451,-1.8099,-1.7909,-1.7969,-1.8002,-1.8048,-1.8088,-1.8195,-1.8327,-1.8392,-1.8489,-1.8634,-1.8769,-1.8851,-1.8969,-1.9153,-1.9213,-1.9306,-1.9431,-1.9523,-1.9596,-1.9683,-1.9702,-1.9738,-1.9812,-1.9851,-1.9922,-2.008,-2.0304,-2.044,-2.0475,-2.0527,-2.0613,-2.0712,-2.0744,-2.0843,-2.0958,-2.1006,-2.1039,-2.1151,-2.1293,-2.1402,-2.1479,-2.1632,-2.1781,-2.1945,-2.2123,-2.2279,-2.2408,-2.2542,-2.2716,-2.2868,-2.3008,-2.3229,-2.3383,-2.3522,-2.3649,-2.38,-2.3907,-2.3998,-2.4143,-2.4275,-2.4384,-2.4471,-2.4582,-2.4679,-2.5227,-2.4974,-2.4697,-2.4244,-2.3685,-2.3376,-2.3069,-2.2751,-2.2708,-2.2708,-2.2708,-2.2708,-2.2708,-2.2708,-2.2708,-2.2708,-2.2708,-2.2708,-2.2591,-2.2434,-2.2496,-2.2131,-2.1431,-2.1201,-2.1164,-2.0927,-2.0666,-2.0523,-2.0548,-2.0661,-2.0711,-2.0736,-2.0772,-2.0822,-2.0797,-2.081,-2.0822,-2.0835,-2.081,-2.081,-2.0797,-2.0797,-2.0797,-2.0785,-2.0734,-2.046,-1.9895,-1.9297,-1.8685,-1.8157,-1.77,-1.7543,-1.7686,-1.774,-1.7747,-1.7801,-1.7909,-1.8009,-1.8129,-1.8201,-1.8333,-1.8503,-1.8586,-1.8736,-1.8889,-1.8984,-1.9101,-1.9213,-1.9321,-1.9409,-1.9501,-1.9501,-1.9556,-1.9578,-1.9614,-1.965,-1.9759,-2.0023,-2.0216,-2.0233,-2.0272,-2.039,-2.0458,-2.0525,-2.0594,-2.0679,-2.081,-2.0859,-2.0942,-2.1071,-2.1198,-2.1308,-2.1449,-2.1602,-2.1768,-2.1961,-2.218,-2.2307,-2.2432,-2.2596,-2.2755,-2.2868,-2.3008,-2.318,-2.336,-2.3476,-2.3616,-2.3718,-2.3845,-2.3968,-2.4105,-2.4229,-2.4358,-2.4464,-2.4566,-2.439,-2.3895,-2.3813,-2.3451,-2.2943,-2.2819,-2.2657,-2.2543,-2.2567,-2.2475,-2.2525,-2.2525,-2.2463,-2.2525,-2.2494,-2.2537,-2.2537,-2.2506,-2.2372,-2.2378,-2.2286,-2.1925,-2.1427,-2.1001,-2.0563,-2.0131,-2.0105,-2.0105,-2.0144,-2.0258,-2.0359,-2.0372,-2.0459,-2.0535,-2.0535,-2.0535,-2.0535,-2.0548,-2.0548,-2.0548,-2.0548,-2.0548,-2.0548,-2.0523,-2.0434,-2.0229,-1.9738,-1.9109,-1.8411,-1.784,-1.7234,-1.7138,-1.7303,-1.7455,-1.7455,-1.7475,-1.7625,-1.7747,-1.7848,-1.7922,-1.8042,-1.8226,-1.8338,-1.8484,-1.862,-1.8788,-1.8908,-1.904,-1.9149,-1.9246,-1.9335,-1.9354,-1.9358,-1.9376,-1.9395,-1.9409,-1.9465,-1.972,-1.9866,-1.9973,-2.0028,-2.0133,-2.0218,-2.0287,-2.0357,-2.0443,-2.056,-2.0676,-2.0744,-2.086,-2.099,-2.1119,-2.1262,-2.1464,-2.1664,-2.1812,-2.2017,-2.2163,-2.2307,-2.246,-2.2596,-2.2703,-2.2816,-2.3033,-2.3199,-2.3307,-2.3435,-2.3582,-2.3703,-2.3803,-2.3927,-2.4057,-2.4201,-2.4339,-2.4437,-2.3848,-2.34,-2.293,-2.2669,-2.2501,-2.2111,-2.193,-2.1867,-2.1917,-2.1855,-2.1886,-2.1886,-2.1917,-2.1917,-2.1886,-2.1855,-2.1949,-2.198,-2.1925,-2.1837,-2.1673,-2.1284,-2.0752,-2.0419,-1.9954,-1.9659,-1.9617,-1.9668,-1.9772,-1.9926,-2.0042,-2.008,-2.0182,-2.022,-2.022,-2.0245,-2.0245,-2.0245,-2.0258,-2.0271,-2.0271,-2.0271,-2.0271,-2.0271,-2.022,-2.0131,-1.9887,-1.9156,-1.8541,-1.8352,-1.7439,-1.7068,-1.701,-1.7144,-1.722,-1.7282,-1.7406,-1.7529,-1.7591,-1.7686,-1.7821,-1.7949,-1.8055,-1.8181,-1.8352,-1.8503,-1.8639,-1.8788,-1.8941,-1.9069,-1.9069,-1.9116,-1.9209,-1.9265,-1.9302,-1.9321,-1.9391,-1.9468,-1.9596,-1.9708,-1.9797,-1.9887,-1.999,-2.0061,-2.0131,-2.0202,-2.0304,-2.0407,-2.0492,-2.0628,-2.0811,-2.0942,-2.1087,-2.1325,-2.1573,-2.1708,-2.1855,-2.1974,-2.212,-2.2265,-2.2391,-2.2474,-2.2636,-2.2829,-2.3003,-2.3151,-2.3283,-2.3441,-2.3567,-2.366,-2.38,-2.3907,-2.4036,-2.4143,-2.4257,-2.3048,-2.255,-2.2294,-2.2092,-2.19,-2.1654,-2.1624,-2.171,-2.171,-2.171,-2.171,-2.171,-2.171,-2.171,-2.171,-2.171,-2.1655,-2.171,-2.1545,-2.1306,-2.1102,-2.0618,-2.0001,-1.9738,-1.9398,-1.9119,-1.9066,-1.9277,-1.9486,-1.9617,-1.9707,-1.9707,-1.9746,-1.9798,-1.9823,-1.9849,-1.9901,-1.9888,-1.9939,-1.9991,-1.9991,-2.0003,-1.9991,-1.9991,-1.9991,-1.9991,-1.9839,-1.9281,-1.8673,-1.8304,-1.7593,-1.7073,-1.6837,-1.6854,-1.6994,-1.7065,-1.7178,-1.7269,-1.7344,-1.7474,-1.7577,-1.7686,-1.7794,-1.7915,-1.8055,-1.8195,-1.8347,-1.8556,-1.8731,-1.8865,-1.8889,-1.8912,-1.9007,-1.913,-1.9149,-1.9172,-1.9228,-1.9232,-1.9343,-1.9453,-1.9527,-1.9617,-1.9759,-1.983,-1.9884,-1.9973,-2.0061,-2.0148,-2.0235,-2.0409,-2.0579,-2.0728,-2.0876,-2.1103,-2.1341,-2.1495,-2.1646,-2.1783,-2.1932,-2.2063,-2.2194,-2.2276,-2.2419,-2.2596,-2.2777,-2.294,-2.3126,-2.3289,-2.3407,-2.3522,-2.3649,-2.3768,-2.3852,-2.3963,-2.4074,-2.2226,-2.1778,-2.1778,-2.1601,-2.1403,-2.1305,-2.1368,-2.1509,-2.1509,-2.1446,-2.1509,-2.1466,-2.1478,-2.1466,-2.1466,-2.1431,-2.1338,-2.1292,-2.0958,-2.0528,-2.0326,-1.9878,-1.9481,-1.9107,-1.8905,-1.8696,-1.8625,-1.8774,-1.9131,-1.9277,-1.9303,-1.9368,-1.9368,-1.942,-1.9473,-1.9565,-1.9565,-1.9591,-1.9656,-1.9734,-1.9734,-1.9708,-1.9708,-1.9708,-1.9708,-1.9708,-1.9683,-1.9158,-1.8609,-1.8133,-1.757,-1.7067,-1.6604,-1.6568,-1.6697,-1.6812,-1.6918,-1.7031,-1.7115,-1.7225,-1.7329,-1.7434,-1.7543,-1.7666,-1.7808,-1.7955,-1.8115,-1.8366,-1.8523,-1.8659,-1.8716,-1.8793,-1.8836,-1.8927,-1.8965,-1.8965,-1.9007,-1.903,-1.9082,-1.9176,-1.925,-1.9395,-1.9541,-1.9596,-1.9669,-1.9741,-1.983,-1.9937,-2.001,-2.0185,-2.0342,-2.0495,-2.0678,-2.0876,-2.1071,-2.1246,-2.1402,-2.1541,-2.1709,-2.1873,-2.1991,-2.2075,-2.222,-2.2346,-2.2515,-2.2668,-2.2906,-2.3107,-2.3205,-2.3336,-2.3499,-2.3623,-2.37,-2.3789,-2.3915,-2.172,-2.1261,-2.1293,-2.1236,-2.119,-2.1031,-2.0967,-2.101,-2.0926,-2.0841,-2.0894,-2.0862,-2.0862,-2.0882,-2.0848,-2.0579,-2.0308,-2.018,-1.9973,-1.9549,-1.9186,-1.8993,-1.8726,-1.8276,-1.8338,-1.8302,-1.8383,-1.8518,-1.8694,-1.8907,-1.904,-1.9078,-1.9237,-1.9394,-1.9328,-1.9368,-1.942,-1.942,-1.9447,-1.9448,-1.9436,-1.9436,-1.946,-1.946,-1.946,-1.9486,-1.9463,-1.903,-1.8511,-1.7907,-1.7376,-1.6845,-1.6364,-1.6374,-1.6426,-1.6543,-1.6693,-1.6918,-1.6939,-1.7002,-1.7065,-1.7199,-1.7261,-1.7365,-1.755,-1.7767,-1.7935,-1.8042,-1.8254,-1.8392,-1.8489,-1.862,-1.8716,-1.8793,-1.8812,-1.8817,-1.886,-1.8917,-1.895,-1.8965,-1.9059,-1.9209,-1.9339,-1.9395,-1.9431,-1.9505,-1.9596,-1.9672,-1.9797,-1.996,-2.0152,-2.034,-2.0443,-2.0611,-2.0778,-2.0958,-2.1119,-2.1278,-2.1465,-2.1634,-2.1739,-2.1812,-2.1943,-2.2073,-2.2231,-2.2402,-2.2602,-2.2786,-2.2952,-2.3119,-2.3265,-2.3395,-2.3517,-2.3634,-2.3736,-2.1118,-2.0914,-2.0914,-2.0926,-2.0914,-2.0818,-2.0786,-2.0786,-2.0733,-2.0701,-2.0701,-2.0701,-2.0701,-2.0579,-2.0432,-2.014,-1.9893,-1.9605,-1.9254,-1.8854,-1.8518,-1.834,-1.8148,-1.7934,-1.7904,-1.7947,-1.8014,-1.8002,-1.8209,-1.8533,-1.8774,-1.8774,-1.8881,-1.8972,-1.909,-1.9131,-1.9223,-1.9302,-1.9344,-1.9235,-1.9112,-1.9222,-1.9382,-1.9382,-1.9382,-1.9394,-1.9321,-1.921,-1.8621,-1.7995,-1.7528,-1.7048,-1.6434,-1.6253,-1.6275,-1.6309,-1.6405,-1.6577,-1.6761,-1.6833,-1.6939,-1.7002,-1.7044,-1.7128,-1.7323,-1.7529,-1.7727,-1.7828,-1.7975,-1.8115,-1.8214,-1.8327,-1.8484,-1.8581,-1.8639,-1.8702,-1.8741,-1.8803,-1.8841,-1.8836,-1.887,-1.8984,-1.9116,-1.9213,-1.9269,-1.9358,-1.9431,-1.9523,-1.9599,-1.9726,-1.9957,-2.0202,-2.0272,-2.034,-2.0494,-2.0677,-2.0811,-2.0974,-2.1167,-2.1309,-2.1434,-2.1526,-2.1661,-2.1811,-2.1943,-2.2115,-2.2298,-2.2517,-2.2747,-2.2893,-2.3008,-2.3144,-2.3283,-2.3395,-2.3515,-1.992,-1.9954,-2.048,-2.0701,-2.0669,-2.0593,-2.0561,-2.0518,-2.0443,-2.0333,-2.0221,-2.0068,-2.0033,-2.0,-1.9594,-1.9298,-1.9216,-1.8936,-1.8515,-1.8205,-1.8045,-1.7811,-1.7567,-1.7462,-1.7479,-1.7534,-1.7534,-1.759,-1.781,-1.8045,-1.8306,-1.8425,-1.8533,-1.8625,-1.8718,-1.8801,-1.8898,-1.876,-1.8721,-1.8517,-1.8372,-1.8788,-1.8996,-1.9106,-1.9192,-1.9303,-1.9303,-1.907,-1.852,-1.7885,-1.747,-1.6898,-1.6215,-1.61,-1.6144,-1.6166,-1.6231,-1.6331,-1.6525,-1.6663,-1.6769,-1.6846,-1.691,-1.6981,-1.7128,-1.7323,-1.7468,-1.7543,-1.7706,-1.7814,-1.7935,-1.8049,-1.8175,-1.8307,-1.8386,-1.8523,-1.8606,-1.8606,-1.8592,-1.8567,-1.86,-1.8716,-1.8855,-1.9026,-1.9139,-1.9209,-1.9284,-1.9358,-1.9468,-1.9563,-1.9726,-1.9975,-2.001,-2.0098,-2.0272,-2.0409,-2.0544,-2.0678,-2.086,-2.1023,-2.1135,-2.1294,-2.1433,-2.1572,-2.1693,-2.1857,-2.2017,-2.2287,-2.2535,-2.2655,-2.279,-2.2906,-2.302,-2.3168,-2.3313,-1.7806,-1.7973,-1.9865,-2.059,-2.0581,-2.0313,-2.0107,-2.0019,-1.9759,-1.9426,-1.9051,-1.8687,-1.8568,-1.8451,-1.845,-1.8171,-1.7745,-1.764,-1.737,-1.7102,-1.6896,-1.692,-1.6824,-1.688,-1.6961,-1.7067,-1.7106,-1.7273,-1.7412,-1.7534,-1.7744,-1.7936,-1.8154,-1.834,-1.8441,-1.8478,-1.8274,-1.8033,-1.779,-1.7553,-1.7566,-1.7916,-1.8267,-1.8399,-1.8712,-1.9001,-1.9004,-1.8606,-1.8088,-1.7424,-1.7062,-1.6592,-1.6048,-1.5981,-1.6001,-1.6022,-1.61,-1.6166,-1.6297,-1.6405,-1.6547,-1.6697,-1.6803,-1.6876,-1.6952,-1.7115,-1.722,-1.7261,-1.7427,-1.7584,-1.7706,-1.7828,-1.7935,-1.8069,-1.8149,-1.8234,-1.8313,-1.8327,-1.8313,-1.8288,-1.8366,-1.8484,-1.8586,-1.8779,-1.8988,-1.9078,-1.9209,-1.9288,-1.9358,-1.9435,-1.9541,-1.9672,-1.9726,-1.9851,-2.0065,-2.0204,-2.0306,-2.0443,-2.0611,-2.0761,-2.0877,-2.1023,-2.1215,-2.1325,-2.1433,-2.1588,-2.1739,-2.1945,-2.2158,-2.2385,-2.2565,-2.2659,-2.2855,-2.3045,-2.3168,-1.7159,-1.7241,-1.7965,-1.8607,-1.9151,-1.9015,-1.891,-1.8921,-1.8712,-1.848,-1.8218,-1.8039,-1.7955,-1.7871,-1.762,-1.7452,-1.7221,-1.6869,-1.6531,-1.6238,-1.6102,-1.6112,-1.614,-1.6248,-1.6415,-1.6662,-1.6793,-1.6881,-1.7032,-1.6991,-1.7078,-1.734,-1.7638,-1.7975,-1.8066,-1.7919,-1.7618,-1.7307,-1.7091,-1.7012,-1.6787,-1.7191,-1.7513,-1.7585,-1.809,-1.8163,-1.796,-1.8156,-1.7651,-1.7099,-1.6727,-1.6272,-1.59,-1.5871,-1.5891,-1.5891,-1.5969,-1.6013,-1.61,-1.621,-1.6362,-1.6491,-1.6675,-1.6782,-1.6782,-1.6918,-1.6989,-1.7073,-1.7199,-1.7344,-1.7385,-1.7529,-1.7693,-1.7828,-1.7929,-1.7996,-1.8036,-1.8055,-1.8109,-1.8109,-1.8189,-1.8307,-1.8411,-1.8528,-1.8755,-1.896,-1.9097,-1.9213,-1.9269,-1.9339,-1.9431,-1.9505,-1.9578,-1.965,-1.9851,-1.9957,-2.0063,-2.0202,-2.0357,-2.051,-2.0629,-2.0795,-2.0958,-2.1071,-2.1183,-2.1341,-2.1464,-2.1602,-2.1811,-2.2118,-2.229,-2.2402,-2.2615,-2.2863,-2.2982,-1.5995,-1.6016,-1.607,-1.6798,-1.7834,-1.7847,-1.7891,-1.7965,-1.7864,-1.7657,-1.7441,-1.7337,-1.7225,-1.7101,-1.677,-1.6543,-1.6329,-1.6002,-1.5663,-1.5437,-1.5361,-1.5361,-1.5388,-1.5457,-1.5614,-1.5981,-1.6088,-1.6091,-1.6104,-1.6216,-1.6252,-1.6433,-1.6776,-1.7063,-1.7351,-1.7113,-1.6775,-1.6548,-1.6344,-1.6313,-1.5951,-1.6455,-1.682,-1.6903,-1.7427,-1.7596,-1.7382,-1.7408,-1.717,-1.6705,-1.6347,-1.6118,-1.5914,-1.577,-1.5792,-1.5814,-1.5814,-1.5859,-1.5957,-1.6122,-1.6231,-1.6362,-1.6461,-1.6547,-1.6633,-1.674,-1.6778,-1.6854,-1.6989,-1.7115,-1.7115,-1.7282,-1.7427,-1.7543,-1.7693,-1.7774,-1.7801,-1.7835,-1.7875,-1.7915,-1.8029,-1.8129,-1.8248,-1.8372,-1.8678,-1.8884,-1.9017,-1.9134,-1.9176,-1.9232,-1.9284,-1.9376,-1.9446,-1.9523,-1.9614,-1.9744,-1.9887,-1.9957,-2.0115,-2.027,-2.0424,-2.0578,-2.0728,-2.0859,-2.0974,-2.1103,-2.123,-2.134,-2.1587,-2.1871,-2.2032,-2.2203,-2.2374,-2.2619,-2.2725,-1.4038,-1.3998,-1.4493,-1.5663,-1.7036,-1.7006,-1.7072,-1.7226,-1.7155,-1.687,-1.6436,-1.6124,-1.5934,-1.5862,-1.5558,-1.5464,-1.5363,-1.4982,-1.471,-1.4659,-1.4619,-1.4619,-1.4645,-1.4665,-1.4799,-1.4675,-1.4907,-1.5106,-1.502,-1.5229,-1.53,-1.5379,-1.5637,-1.5922,-1.642,-1.5884,-1.5573,-1.5508,-1.5242,-1.513,-1.5268,-1.5764,-1.6008,-1.6207,-1.67,-1.695,-1.675,-1.6716,-1.6527,-1.6267,-1.5957,-1.58,-1.5717,-1.5748,-1.577,-1.577,-1.5792,-1.5814,-1.5836,-1.6047,-1.6156,-1.621,-1.6309,-1.6331,-1.6405,-1.6479,-1.6565,-1.6663,-1.6799,-1.6897,-1.696,-1.7052,-1.7157,-1.7261,-1.7427,-1.7496,-1.7516,-1.7632,-1.7686,-1.7727,-1.7808,-1.7929,-1.8049,-1.8248,-1.8581,-1.8827,-1.8955,-1.9055,-1.9101,-1.9157,-1.9209,-1.9265,-1.9354,-1.9395,-1.9505,-1.9599,-1.9708,-1.9762,-1.9851,-2.0043,-2.0183,-2.0306,-2.046,-2.0627,-2.076,-2.0843,-2.0957,-2.1087,-2.134,-2.1602,-2.1855,-2.2044,-2.222,-2.2349,-2.2457,-1.3439,-1.3459,-1.3556,-1.4098,-1.4915,-1.5266,-1.5469,-1.5525,-1.5433,-1.5223,-1.4962,-1.4747,-1.468,-1.4639,-1.4636,-1.4508,-1.4468,-1.4439,-1.4195,-1.3886,-1.3902,-1.3866,-1.3892,-1.3999,-1.4134,-1.4416,-1.4539,-1.4522,-1.4702,-1.4633,-1.471,-1.4815,-1.4691,-1.4986,-1.5453,-1.5325,-1.5154,-1.5163,-1.495,-1.4753,-1.4845,-1.5107,-1.5279,-1.5301,-1.5972,-1.6159,-1.5951,-1.5998,-1.6068,-1.5856,-1.5595,-1.5593,-1.5592,-1.5659,-1.5738,-1.5726,-1.5748,-1.5814,-1.5814,-1.5903,-1.5969,-1.6057,-1.6144,-1.6188,-1.6275,-1.6297,-1.6383,-1.6491,-1.6586,-1.6684,-1.6782,-1.6897,-1.7002,-1.7023,-1.7128,-1.7157,-1.7199,-1.7391,-1.7508,-1.7502,-1.7584,-1.7781,-1.7942,-1.8089,-1.8425,-1.8692,-1.8841,-1.8998,-1.9064,-1.9101,-1.9153,-1.9191,-1.9246,-1.9302,-1.9362,-1.9472,-1.956,-1.9614,-1.9705,-1.983,-1.994,-2.008,-2.022,-2.0407,-2.0492,-2.0592,-2.0744,-2.0909,-2.1103,-2.134,-2.157,-2.1781,-2.193,-2.2061,-2.2203,-1.2953,-1.2963,-1.292,-1.3037,-1.3355,-1.3963,-1.4274,-1.4404,-1.4337,-1.4204,-1.4116,-1.408,-1.4063,-1.4024,-1.3879,-1.3847,-1.3818,-1.3704,-1.3633,-1.3291,-1.3281,-1.3306,-1.3366,-1.3396,-1.355,-1.3862,-1.3953,-1.3981,-1.3921,-1.4032,-1.4043,-1.4018,-1.3907,-1.4107,-1.4453,-1.4468,-1.4569,-1.4579,-1.4446,-1.4441,-1.4557,-1.466,-1.4706,-1.4877,-1.5186,-1.5371,-1.528,-1.5429,-1.5684,-1.545,-1.5401,-1.5435,-1.548,-1.5536,-1.5626,-1.5637,-1.5703,-1.5748,-1.5782,-1.5792,-1.5869,-1.5935,-1.6035,-1.6078,-1.6122,-1.6144,-1.621,-1.6318,-1.6414,-1.6491,-1.6577,-1.6727,-1.6812,-1.6846,-1.6897,-1.696,-1.7002,-1.7183,-1.7225,-1.7233,-1.7378,-1.7584,-1.7821,-1.8023,-1.8248,-1.8478,-1.8706,-1.8851,-1.9007,-1.9078,-1.9097,-1.9134,-1.9172,-1.9209,-1.925,-1.9325,-1.9413,-1.9483,-1.9574,-1.965,-1.9762,-1.9904,-2.0028,-2.0166,-2.027,-2.039,-2.056,-2.0744,-2.0909,-2.1039,-2.1214,-2.1417,-2.1616,-2.1781,-2.1943,-1.2529,-1.2505,-1.2505,-1.2529,-1.2664,-1.3229,-1.3675,-1.4026,-1.4009,-1.3937,-1.3903,-1.3845,-1.3734,-1.3664,-1.342,-1.3282,-1.3253,-1.307,-1.2978,-1.29,-1.2915,-1.291,-1.29,-1.2934,-1.3042,-1.2978,-1.3032,-1.3189,-1.2998,-1.3209,-1.3278,-1.3276,-1.335,-1.3443,-1.3569,-1.3728,-1.3936,-1.401,-1.4084,-1.4104,-1.4221,-1.4326,-1.443,-1.459,-1.4763,-1.489,-1.4891,-1.5017,-1.5108,-1.5108,-1.5198,-1.5267,-1.5335,-1.5401,-1.5468,-1.5547,-1.5637,-1.5659,-1.5693,-1.5714,-1.577,-1.5814,-1.5814,-1.5881,-1.5935,-1.6001,-1.6078,-1.6188,-1.6284,-1.6328,-1.6414,-1.6534,-1.6675,-1.674,-1.6791,-1.6833,-1.6854,-1.6918,-1.6918,-1.7002,-1.7157,-1.7365,-1.7699,-1.7922,-1.8069,-1.8248,-1.8478,-1.8653,-1.8831,-1.904,-1.9059,-1.9078,-1.9097,-1.9116,-1.9157,-1.9213,-1.9288,-1.9376,-1.9413,-1.9505,-1.9599,-1.9708,-1.983,-1.9937,-2.0045,-2.0185,-2.0373,-2.0526,-2.0693,-2.0826,-2.0942,-2.1167,-2.1402,-2.1556,-2.1708,-1.2505,-1.2505,-1.2505,-1.2505,-1.2548,-1.2712,-1.2861,-1.2956,-1.2956,-1.2956,-1.2931,-1.2941,-1.2976,-1.2871,-1.2782,-1.2754,-1.2721,-1.2654,-1.2641,-1.2627,-1.2652,-1.2627,-1.2627,-1.2652,-1.2637,-1.2627,-1.2652,-1.2652,-1.2671,-1.2749,-1.2895,-1.2978,-1.3007,-1.3041,-1.3138,-1.3234,-1.3416,-1.3549,-1.3655,-1.3787,-1.3905,-1.4046,-1.4174,-1.4303,-1.4454,-1.4558,-1.4685,-1.4777,-1.4846,-1.4971,-1.4983,-1.504,-1.5176,-1.5278,-1.538,-1.5491,-1.5536,-1.5558,-1.557,-1.5592,-1.566,-1.5763,-1.5763,-1.5782,-1.5836,-1.5929,-1.5973,-1.6057,-1.6132,-1.6197,-1.6262,-1.6383,-1.6482,-1.6547,-1.6599,-1.662,-1.6663,-1.6705,-1.6727,-1.6846,-1.7002,-1.722,-1.7556,-1.776,-1.7922,-1.8069,-1.8228,-1.8425,-1.862,-1.8851,-1.9003,-1.9021,-1.904,-1.9045,-1.9082,-1.9139,-1.9213,-1.9269,-1.9321,-1.9358,-1.945,-1.9541,-1.9614,-1.9741,-1.9869,-2.0028,-2.0168,-2.0321,-2.0474,-2.0559,-2.0677,-2.0925,-2.1167,-2.1293,-2.1465,-1.2184,-1.2175,-1.22,-1.2175,-1.2175,-1.2175,-1.22,-1.2209,-1.2397,-1.248,-1.2431,-1.2425,-1.2406,-1.2395,-1.241,-1.245,-1.245,-1.2524,-1.2529,-1.2529,-1.2505,-1.2529,-1.2529,-1.2505,-1.2529,-1.2505,-1.2505,-1.2554,-1.2529,-1.2563,-1.2686,-1.2725,-1.2783,-1.2856,-1.2929,-1.2992,-1.3089,-1.3224,-1.3358,-1.3491,-1.3644,-1.3773,-1.3905,-1.4046,-1.4174,-1.4314,-1.45,-1.4604,-1.4708,-1.4834,-1.488,-1.4926,-1.5028,-1.5131,-1.5233,-1.5334,-1.539,-1.5413,-1.5435,-1.548,-1.5654,-1.5818,-1.5912,-1.6089,-1.6062,-1.6107,-1.5993,-1.5925,-1.5979,-1.6054,-1.6132,-1.6219,-1.6275,-1.6352,-1.6362,-1.6383,-1.6448,-1.6513,-1.6599,-1.6718,-1.691,-1.7107,-1.7337,-1.7577,-1.7754,-1.7882,-1.7989,-1.8115,-1.8386,-1.8639,-1.8812,-1.8893,-1.8931,-1.8969,-1.9007,-1.9045,-1.9101,-1.9157,-1.9209,-1.9246,-1.9335,-1.9395,-1.9468,-1.9581,-1.9726,-1.9851,-1.9957,-2.0096,-2.0218,-2.032,-2.0405,-2.0594,-2.0811,-2.099,-2.1167,-1.1694,-1.1728,-1.1694,-1.1719,-1.1694,-1.1719,-1.1744,-1.1744,-1.22,-1.2372,-1.2274,-1.2274,-1.2224,-1.22,-1.2249,-1.2274,-1.2298,-1.2382,-1.2406,-1.248,-1.2431,-1.2406,-1.2421,-1.2455,-1.2397,-1.2431,-1.2455,-1.2406,-1.248,-1.2505,-1.2505,-1.2505,-1.2627,-1.27,-1.2725,-1.2808,-1.2881,-1.2944,-1.3094,-1.3228,-1.3382,-1.3525,-1.3644,-1.3773,-1.3915,-1.408,-1.428,-1.4396,-1.45,-1.4685,-1.4823,-1.4846,-1.4937,-1.5028,-1.5108,-1.5153,-1.5255,-1.5278,-1.5358,-1.5485,-1.5776,-1.6021,-1.6244,-1.6455,-1.648,-1.6432,-1.6333,-1.6235,-1.6327,-1.6262,-1.6292,-1.6186,-1.6166,-1.621,-1.6231,-1.6275,-1.6318,-1.6405,-1.65,-1.662,-1.6782,-1.6981,-1.7149,-1.737,-1.7481,-1.7638,-1.7767,-1.7875,-1.8109,-1.8386,-1.8581,-1.8721,-1.8831,-1.887,-1.8931,-1.895,-1.8988,-1.9026,-1.9078,-1.9134,-1.9205,-1.9265,-1.9321,-1.9453,-1.9581,-1.9617,-1.9723,-1.9866,-1.999,-2.0061,-2.0166,-2.027,-2.0443,-2.0646,-2.0844,-1.1694,-1.1694,-1.1694,-1.1694,-1.1694,-1.1694,-1.1694,-1.1694,-1.1828,-1.1952,-1.2002,-1.2076,-1.2126,-1.2076,-1.2101,-1.2126,-1.215,-1.215,-1.22,-1.22,-1.2209,-1.2234,-1.22,-1.2224,-1.22,-1.22,-1.2209,-1.2283,-1.2357,-1.2382,-1.2406,-1.248,-1.2529,-1.2554,-1.2554,-1.2603,-1.2676,-1.2759,-1.2822,-1.2983,-1.3162,-1.3262,-1.3362,-1.3491,-1.3644,-1.3787,-1.3975,-1.4163,-1.4303,-1.4489,-1.4616,-1.4743,-1.4903,-1.5028,-1.5085,-1.5119,-1.5131,-1.5165,-1.528,-1.5522,-1.5881,-1.6184,-1.6441,-1.6723,-1.6879,-1.6859,-1.6824,-1.6741,-1.6633,-1.6523,-1.6423,-1.6248,-1.6154,-1.6176,-1.6159,-1.6181,-1.6225,-1.6297,-1.6414,-1.6556,-1.6684,-1.6812,-1.6981,-1.7107,-1.7233,-1.7365,-1.7509,-1.7652,-1.7828,-1.8083,-1.8282,-1.8445,-1.8653,-1.875,-1.8793,-1.8851,-1.8855,-1.8893,-1.8965,-1.9017,-1.9088,-1.9134,-1.9195,-1.9321,-1.9413,-1.9468,-1.9541,-1.9654,-1.9762,-1.9833,-1.994,-2.0078,-2.0113,-2.0256,-2.0494,-1.1519,-1.1528,-1.1519,-1.1528,-1.1528,-1.1528,-1.1528,-1.1528,-1.1603,-1.1644,-1.1719,-1.1852,-1.1927,-1.1918,-1.1927,-1.1927,-1.1927,-1.1927,-1.1927,-1.1927,-1.2002,-1.2036,-1.2026,-1.2051,-1.2101,-1.2101,-1.211,-1.216,-1.22,-1.2234,-1.2283,-1.2332,-1.2382,-1.2406,-1.2406,-1.2455,-1.2529,-1.2612,-1.2603,-1.2735,-1.2929,-1.3055,-1.3166,-1.3296,-1.3382,-1.3525,-1.3692,-1.3894,-1.4069,-1.4303,-1.45,-1.472,-1.4869,-1.496,-1.5028,-1.5085,-1.5119,-1.5119,-1.5269,-1.5579,-1.6039,-1.6376,-1.6806,-1.7143,-1.7549,-1.7538,-1.7292,-1.7188,-1.6882,-1.6765,-1.6836,-1.6751,-1.6774,-1.6832,-1.6551,-1.6355,-1.6227,-1.6132,-1.6284,-1.647,-1.6577,-1.6663,-1.6812,-1.6952,-1.7065,-1.7136,-1.7282,-1.7427,-1.7604,-1.7781,-1.7983,-1.8143,-1.8341,-1.8484,-1.8514,-1.8606,-1.8683,-1.8755,-1.8812,-1.8889,-1.8927,-1.9021,-1.9082,-1.9172,-1.9228,-1.9302,-1.9395,-1.9472,-1.9527,-1.9596,-1.9741,-1.9869,-1.9902,-1.9955,-2.0166,-1.1301,-1.1301,-1.1301,-1.1301,-1.1301,-1.1301,-1.1301,-1.1326,-1.1427,-1.1502,-1.1502,-1.1603,-1.1644,-1.1694,-1.1694,-1.1694,-1.1719,-1.1769,-1.1728,-1.1753,-1.1819,-1.1877,-1.1927,-1.1977,-1.1977,-1.2002,-1.2002,-1.2026,-1.2076,-1.2076,-1.2101,-1.2126,-1.22,-1.2274,-1.2298,-1.2348,-1.2431,-1.2455,-1.248,-1.2544,-1.2725,-1.2895,-1.3017,-1.3089,-1.3176,-1.3324,-1.3478,-1.3668,-1.3834,-1.4093,-1.4384,-1.4628,-1.4789,-1.488,-1.496,-1.5006,-1.5062,-1.512,-1.5326,-1.5797,-1.6244,-1.6692,-1.7186,-1.7611,-1.8016,-1.7967,-1.772,-1.7541,-1.7239,-1.7139,-1.7225,-1.7168,-1.7242,-1.7267,-1.6871,-1.6545,-1.6346,-1.6122,-1.6274,-1.6449,-1.6461,-1.6547,-1.6663,-1.6803,-1.6888,-1.696,-1.7086,-1.7212,-1.737,-1.7556,-1.772,-1.7848,-1.7989,-1.8101,-1.826,-1.8358,-1.8484,-1.8542,-1.86,-1.8683,-1.8798,-1.8874,-1.8931,-1.8979,-1.9055,-1.9116,-1.9209,-1.9321,-1.9339,-1.9395,-1.9523,-1.9669,-1.9705,-1.9759,-1.9881,-1.1301,-1.1301,-1.1301,-1.1301,-1.1301,-1.1301,-1.1301,-1.1301,-1.1326,-1.1326,-1.1352,-1.1377,-1.1469,-1.1694,-1.1694,-1.1669,-1.1644,-1.1644,-1.1669,-1.1719,-1.1719,-1.1728,-1.1753,-1.1828,-1.1803,-1.1794,-1.1843,-1.1852,-1.1927,-1.1952,-1.2002,-1.2076,-1.2101,-1.2126,-1.2126,-1.22,-1.2234,-1.2308,-1.2357,-1.2397,-1.2529,-1.27,-1.2832,-1.292,-1.3041,-1.3123,-1.3244,-1.3478,-1.3621,-1.3834,-1.4163,-1.4443,-1.4639,-1.4754,-1.4834,-1.4915,-1.496,-1.5257,-1.5555,-1.606,-1.6541,-1.7082,-1.753,-1.7871,-1.8088,-1.8077,-1.7932,-1.7912,-1.7702,-1.7613,-1.7621,-1.7327,-1.7271,-1.7348,-1.7147,-1.6895,-1.6654,-1.654,-1.653,-1.649,-1.6377,-1.6451,-1.65,-1.662,-1.6718,-1.6791,-1.6918,-1.7044,-1.7191,-1.7337,-1.7494,-1.7584,-1.7672,-1.7909,-1.8129,-1.8189,-1.8268,-1.8307,-1.8386,-1.8509,-1.8644,-1.876,-1.8817,-1.8865,-1.887,-1.8912,-1.9026,-1.9134,-1.9209,-1.9265,-1.9372,-1.9483,-1.952,-1.9593,-1.9702]},{"header":{"parameterUnit":"m.s-1","parameterCategory":1,"la1":31.0,"la2":29.5877,"lo1":-88.7671,"lo2":-86.6584,"dy":0.0162,"dx":0.0185,"nx":115,"ny":88,"refTime":"2023-09-04T12:00:00:Z","depth":0,"parameterNumber":3,"parameterNumberName":"V-component_of_WINDS"},"data":[0.0,0.0,0.0,0.0,0.0,0.0,0.0,0.0,0.0,0.0,0.0,0.0,0.0,0.0,0.0,0.0,0.0,0.0,0.0,0.0,0.0,0.0,0.0,0.0,0.0,0.0,0.0,0.0,0.0,0.0,0.0,0.0,0.0,0.0,0.0,0.0,0.0,0.0,0.0,0.0,0.0,0.0,0.0,0.0,0.0,0.0,0.0,0.0,0.0,0.0,0.0,0.0,0.0,0.0,0.0,0.0,0.0,0.0,0.0,0.0,0.0,0.0,0.0,0.0,0.0,0.0,0.0,0.0,0.0,0.0,0.0,0.0,0.0,0.0,0.0,0.0,0.0,0.0,0.0,0.0,0.0,0.0,0.0,0.0,0.0,0.0,0.0,0.0,0.0,0.0,0.0,0.0,0.0,0.0,0.0,0.0,0.0,0.0,0.0,0.0,0.0,0.0,0.0,0.0,0.0,0.0,0.0,0.0,0.0,0.0,0.0,0.0,0.0,0.0,0.0,0.0,0.0,0.0,0.0,0.0,0.0,0.0,0.0,0.0,0.0,0.0,0.0,0.0,0.0,0.0,0.0,0.0,0.0,0.0,0.0,0.0,0.0,0.0,0.0,0.0,0.0,0.0,0.0,0.0,0.0,0.0,0.0,0.0,0.0,0.0,0.0,0.0,0.0,0.0,0.0,0.0,0.0,0.0,0.0,0.0,0.0,0.0,0.0,0.0,0.0,0.0,0.0,0.0,0.0,0.0,0.0,0.0,0.0,0.0,0.0,0.0,0.0,0.0,0.0,0.0,0.0,0.0,0.0,0.0,0.0,0.0,0.0,0.0,0.0,0.0,0.0,0.0,0.0,0.0,0.0,0.0,0.0,0.0,0.0,0.0,0.0,0.0,0.0,0.0,0.0,0.0,0.0,0.0,0.0,0.0,0.0,0.0,0.0,0.0,0.0,0.0,0.0,0.0,0.0,0.0,0.0,0.0,0.0,0.0,0.0,0.0,0.0,0.0,0.0,0.0,0.0,0.0,0.0,0.0,0.0,0.0,0.0,0.0,0.0,0.0,0.0,0.0,0.0,0.0,0.0,0.0,0.0,0.0,0.0,0.0,0.0,0.0,0.0,0.0,0.0,0.0,0.0,0.0,0.0,0.0,0.0,0.0,0.0,0.0,0.0,0.0,0.0,0.0,0.0,0.0,0.0,0.0,0.0,0.0,0.0,0.0,0.0,0.0,0.0,0.0,0.0,0.0,0.0,0.0,0.0,0.0,0.0,0.0,0.0,0.0,0.0,0.0,0.0,0.0,0.0,0.0,0.0,0.0,0.0,0.0,0.0,0.0,0.0,0.0,0.0,0.0,0.0,0.0,0.0,0.0,0.0,0.0,0.0,0.0,0.0,0.0,0.0,0.0,0.0,0.0,0.0,0.0,0.0,0.0,0.0,0.0,0.0,0.0,0.0,0.0,0.0,0.0,0.0,0.0,0.0,0.0,0.0,0.0,0.0,0.0,0.0,0.0,0.0,0.0,0.0,0.0,0.0,0.0,0.0,0.0,0.0,0.0,0.0,0.0,0.0,0.0,0.0,0.0,0.0,0.0,0.0,0.0,0.0,0.0,0.0,0.0,0.0,0.0,0.0,0.0,0.0,0.0,0.0,0.0,0.0,0.0,0.0,0.0,0.0,0.0,0.0,0.0,0.0,0.0,0.0,0.0,0.0,0.0,0.0,0.0,0.0,0.0,0.0,0.0,0.0,0.0,0.0,0.0,0.0,0.0,0.0,0.0,0.0,0.0,0.0,0.0,0.0,0.0,0.0,0.0,0.0,0.0,0.0,0.0,0.0,0.0,0.0,0.0,0.0,0.0,0.0,0.0,0.0,0.0,0.0,0.0,0.0,0.0,0.0,0.0,0.0,0.0,0.0,0.0,0.0,0.0,0.0,0.0,0.0,0.0,0.0,0.0,0.0,0.0,0.0,0.0,0.0,0.0,0.0,0.0,0.0,0.0,0.0,0.0,0.0,0.0,0.0,0.0,0.0,0.0,0.0,0.0,0.0,0.0,0.0,0.0,0.0,0.0,0.0,0.0,0.0,0.0,0.0,0.0,0.0,0.0,0.0,0.0,0.0,0.0,0.0,0.0,0.0,0.0,0.0,0.0,0.0,0.0,0.0,0.0,0.0,0.0,0.0,0.0,0.0,0.0,0.0,0.0,0.0,0.0,0.0,0.0,0.0,0.0,0.0,0.0,0.0,0.0,0.0,0.0,0.0,0.0,0.0,0.0,0.0,0.0,0.0,0.0,0.0,0.0,0.0,0.0,0.0,0.0,0.0,0.0,0.0,0.0,0.0,0.0,0.0,0.0,0.0,0.0,0.0,0.0,0.0,0.0,0.0,0.0,0.0,0.0,0.0,0.0,0.0,0.0,0.0,0.0,0.0,0.0,0.0,0.0,0.0,0.0,0.0,0.0,0.0,0.0,0.0,0.0,0.0,0.0,0.0,0.0,0.0,0.0,0.0,0.0,0.0,0.0,0.0,0.0,0.0,0.0,0.0,0.0,0.0,0.0,0.0,0.0,0.0,0.0,0.0,0.0,0.0,0.0,0.0,0.0,0.0,0.0,0.0,0.0,0.0,0.0,0.0,0.0,0.0,0.0,0.0,0.0,0.0,0.0,0.0,0.0,0.0,0.0,0.0,0.0,0.0,0.0,0.0,0.0,0.0,0.0,0.0,0.0,0.0,0.0,0.0,0.0,0.0,0.0,0.0,0.0,0.0,0.0,0.0,0.0,0.0,0.0,0.0,0.0,0.0,0.0,0.0,0.0,0.0,0.0,0.0,0.0,0.0,0.0,0.0,0.0,0.0,0.0,0.0,0.0,0.0,0.0,0.0,0.0,0.0,0.0,0.0,0.0,0.0,0.0,0.0,0.0,0.0,0.0,0.0,0.0,0.0,0.0,0.0,0.0,0.0,0.0,0.0,0.0,0.0,0.0,0.0,0.0,0.0,0.0,0.0,0.0,0.0,0.0,0.0,0.0,0.0,0.0,0.0,0.0,0.0,0.0,0.0,0.0,0.0,0.0,0.0,0.0,0.0,0.0,0.0,0.0,0.0,0.0,0.0,0.0,0.0,0.0,0.0,0.0,0.0,0.0,0.0,0.0,0.0,0.0,0.0,0.0,0.0,0.0,0.0,0.0,0.0,0.0,0.0,0.0,0.0,0.0,0.0,0.0,0.0,0.0,0.0,0.0,0.0,0.0,0.0,0.0,0.0,0.0,0.0,0.0,0.0,0.0,0.0,0.0,0.0,0.0,0.0,0.0,0.0,0.0,0.0,0.0,0.0,0.0,0.0,0.0,0.0,0.0,0.0,0.0,0.0,0.0,0.0,0.0,0.0,0.0,0.0,0.0,0.0,0.0,0.0,0.0,0.0,0.0,0.0,0.0,0.0,0.0,0.0,0.0,0.0,0.0,0.0,0.0,0.0,0.0,0.0,0.0,0.0,0.0,0.0,0.0,0.0,0.0,0.0,0.0,0.0,0.0,0.0,0.0,0.0,0.0,0.0,0.0,0.0,0.0,0.0,0.0,0.0,0.0,0.0,0.0,0.0,0.0,0.0,0.0,0.0,0.0,0.0,0.0,0.0,0.0,0.0,0.0,0.0,0.0,0.0,0.0,0.0,0.0,0.0,0.0,0.0,0.0,0.0,0.0,0.0,0.0,0.0,0.0,0.0,0.0,0.0,0.0,0.0,0.0,0.0,0.0,0.0,0.0,0.0,0.0,0.0,0.0,0.0,0.0,0.0,0.0,0.0,0.0,0.0,0.0,0.0,0.0,0.0,0.0,0.0,0.0,0.0,0.0,0.0,0.0,0.0,0.0,0.0,0.0,0.0,0.0,0.0,0.0,0.0,0.0,0.0,0.0,0.0,0.0,0.0,0.0,0.0,0.0,0.0,0.0,0.0,0.0,0.0,0.0,0.0,0.0,0.0,0.0,0.0,0.0,0.0,0.0,0.0,0.0,0.0,0.0,0.0,0.0,0.0,0.0,0.0,0.0,0.0,0.0,0.0,0.0,0.0,0.0,0.0,0.0,0.0,0.0,0.0,0.0,0.0,0.0,0.0,0.0,0.0,0.0,0.0,0.0,0.0,0.0,0.0,0.0,0.0,0.0,0.0,0.0,0.0,0.0,0.0,0.0,0.0,0.0,0.0,0.0,0.0,0.0,0.0,0.0,0.0,0.0,0.0,0.0,0.0,0.0,0.0,0.0,0.0,0.0,0.0,0.0,-0.0855,0.0,0.0,0.0,0.0,0.0,0.0,0.0,0.0,0.0,0.0,0.0,0.0,0.0,0.0,0.0,0.0,0.0,0.0,0.0,0.0,0.0,0.0,0.0,0.0,0.0,0.0,0.0,0.0,0.0,0.0,0.0,0.0,0.0,0.0,0.0,0.0,0.0,0.0,0.0,0.0,0.0,0.0,0.0,0.0,0.0,0.0,0.0,0.0,0.0,0.0,0.0,0.0,0.0,0.0,0.0,0.0,0.0,0.0,0.0,0.0,0.0,0.0,0.0,0.0,0.0,0.0,0.0,0.0,0.0,0.0,0.0,0.0,0.0,0.0,0.0,0.0,0.0,0.0,0.0,0.0,0.0,0.0,0.0,0.0,0.0,0.0,0.0,0.0,0.0,0.0,0.0,0.0,0.0,0.0,0.0,0.0,0.0,0.0,0.0,0.0,0.0,0.0,0.0,0.0,0.0,0.0,0.0,0.0,0.0,0.0,0.0135,-0.018,-0.0405,-0.0674,-0.1009,0.0,0.0,0.0,0.0,0.0,0.0,0.0,0.0,0.0,0.0,0.0,0.0,0.0,0.0,0.0,0.0,0.0,0.0,0.0,0.0,0.0,0.0,0.0,0.0,0.0,0.0,0.0,0.0,0.0,0.0,0.0,0.0,0.0,0.0,0.0,0.0,0.0,0.0,0.0,0.0,0.0,0.0,0.0,0.0,0.0,0.0,0.0,0.0,0.0,0.0,0.0,0.0,0.0,0.0,0.0,0.0,0.0,0.0,0.0,0.0,0.0,0.0,0.0,0.0,0.0,0.0,0.0,0.0,0.0,0.0,0.0,0.0,0.0,0.0,0.0,0.0,0.0,0.0,0.0,0.0,0.0,0.0,0.0,0.0,0.0,0.0,0.0,0.0,0.0,0.0,0.0,0.0,0.0,0.0,0.0,0.0,0.0,0.0,0.0,0.0,0.0,0.0,0.0,0.0,0.0,0.0,0.0,0.0,0.0,0.0,0.0,0.0,-0.0472,-0.0786,-0.121,0.0,0.0,0.0,0.0,0.0,0.0,0.0,0.0,0.0,0.0,0.0,0.0,0.0,0.0,0.0,0.0,0.0,0.0,0.0,0.0,0.0,0.0,0.0,0.0,0.0,0.0,0.0,0.0,0.0,0.0,0.0,0.0,0.0,0.0,0.0,0.0,0.0,0.0,0.0,0.0,0.0,0.0,0.0,0.0,0.0,0.0,0.0,0.0,0.0,0.0,0.0,0.0,0.0,0.0,0.0,0.0,0.0,0.0,0.0,0.0,0.0,0.0,0.0,0.0,0.0,0.0,0.0,0.0,0.0,0.0,0.0,0.0,0.0,0.0,0.0,0.0,0.0,0.0,0.0,0.0,0.0,0.0,0.0,0.0,0.0,0.0,0.0,0.0,0.0,0.0,0.0,0.0,0.0,0.0,0.0,0.0,0.0,0.0,0.0,0.0,0.0,0.0,0.0,0.0,0.0,0.0,0.0,0.0,0.0,0.0,-0.0112,-0.0382,-0.0697,0.0,-0.1545,0.0,0.0,0.0,0.0,0.0,0.0,0.0,0.0,0.0,0.0,0.0,0.0,0.0,0.0,0.0,0.0,0.0,0.0,0.0,0.0,0.0,0.0,0.0,0.0,0.0,0.0,0.0,0.0,0.0,0.0,0.0,0.0,0.0,0.0,0.0,0.0,0.0,0.0,0.0,0.0,0.0,0.0,0.0,0.0,0.0,0.0,0.0,0.0,0.0,0.0,0.0,0.0,0.0,0.0,0.0,0.0,0.0,0.0,0.0,0.0,0.0,0.0,0.0,0.0,0.0,0.0,0.0,0.0,0.0,0.0,0.0,0.0,0.0,0.0,0.0,0.0,0.0,0.0,0.0,0.0,0.0,0.0,0.0,0.0,0.0,0.0,0.0,0.0,0.0,0.0,0.0,0.0,0.0,0.0,0.0,0.0,0.0,0.0,0.0,0.0,0.0,0.0,0.0,0.0,0.0,0.0,0.0,0.0,0.0,0.0,-0.021,-0.0396,-0.0861,-0.1311,0.0,0.0,0.0,0.0,0.0,0.0,0.0,0.0,0.0,0.0,0.0,0.0,0.0,0.0,0.0,0.0,0.0,0.0,0.0,0.0,0.0,0.0,0.0,0.0,0.0,0.0,0.0,0.0,0.0,0.0,0.0,0.0,0.0,0.0,0.0,0.0,0.0,0.0,0.0,0.0,0.0,0.0,0.0,0.0,0.0,0.0,0.0,0.0,0.0,0.0,0.0,0.0,0.0,0.0,0.0,0.0,0.0,0.0,0.0,0.0,0.0,0.0,0.0,0.0,0.0,0.0,0.0,0.0,0.0,0.0,0.0,0.0,0.0,0.0,0.0,0.0,0.0,0.0,0.0,0.0,0.0,0.0,0.0,0.0,0.0,0.0,0.0,0.0,0.0,0.0,0.0,0.0,0.0,0.0,0.0,0.0,0.0,0.0,0.0,0.0,0.0,0.0,0.0,0.0,0.0,0.0,0.0,0.0,0.0,0.0,-0.0024,-0.0336,-0.063,-0.1102,-0.1504,-0.1872,0.0,0.0,0.0,0.0,0.0,0.0,0.0,0.0,0.0,0.0,0.0,0.0,0.0,0.0,0.0,0.0,0.0,0.0,0.0,0.0,0.0,0.0,0.0,0.0,0.0,0.0,0.0,0.0,0.0,0.0,0.0,0.0,0.0,0.0,0.0,0.0,0.0,0.0,0.0,0.0,0.0,0.0,0.0,0.0,0.0,0.0,0.0,0.0,0.0,0.0,0.0,0.0,0.0,0.0,0.0,0.0,0.0,0.0,0.0,0.0,0.0,0.0,0.0,0.0,0.0,0.0,0.0,0.0,0.0,0.0,0.0,0.0,0.0,0.0,0.0,0.0,0.0,0.0,0.0,0.0,0.0,0.0,0.0,0.0,0.0,0.0,0.0,0.0,0.0,0.0,0.0,0.0,0.0,0.0,0.0,0.0,0.0,0.0,0.0,0.0,0.0,0.0,0.0,0.0,0.0,0.0,0.0,0.0,0.0143,-0.0096,-0.0511,-0.1132,-0.1385,-0.1667,0.0,0.0,0.0,0.0,0.0,0.0,0.0,0.0,0.0,0.0,0.0,0.0,0.0,0.0,0.0,0.0,0.0,0.0,0.0,0.0,0.0,0.0,0.0,0.0,0.0,0.0,0.0,0.0,0.0,0.0,0.0,0.0,0.0,0.0,0.0,0.0,0.0,0.0,0.0,0.0,0.0,0.0,0.0,0.0,0.0,0.0,0.0,0.0,0.0,0.0,0.0,0.0,0.0,0.0,0.0,0.0,0.0,0.0,0.0,0.0,0.0,0.0,0.0,0.0,0.0,0.0,0.0,0.0,0.0,0.0,0.0,0.0,0.0,0.0,0.0,0.0,0.0,0.0,0.0,0.0,0.0,0.0,0.0,0.0,0.0,0.0,0.0,0.0,0.0,0.0,0.0,0.0,0.0,0.0,0.0,0.0,0.0,0.0,0.0,0.0,0.0,0.0,0.0,0.0,0.0,0.0,0.0,0.0,0.0,0.0124,-0.0345,-0.0792,-0.1271,-0.1496,-0.1797,0.0,0.0,0.0,0.0,0.0,0.0,0.0,0.0,0.0,0.0,0.0,0.0,0.0,0.0,0.0,0.0,0.0,0.0,0.0,0.0,0.0,0.0,0.0,0.0,0.0,0.0,0.0,0.0,0.0,0.0,0.0,0.0,0.0,0.0,0.0,0.0,0.0,0.0,0.0,0.0,0.0,0.0,0.0,0.0,0.0,0.0,0.0,0.0,0.0,0.0,0.0,0.0,0.0,0.0,0.0,0.0,0.0,0.0,0.0,0.0,0.0,0.0,0.0,0.0,0.0,0.0,0.0,0.0,0.0,0.0,0.0,0.0,0.0,0.0,0.0,0.0,0.0,0.0,0.0,0.0,0.0,0.0,0.0,0.0,0.0,0.0,0.0,0.0,0.0,0.0,0.0,0.0,0.0,0.0,0.0,0.0,0.0,0.0,0.0,0.0,0.0,0.0,0.0,0.0,0.0,0.0,0.0,0.0,0.0,-0.008,0.0,-0.0948,-0.1333,-0.1589,-0.19,0.0,0.0,0.0,0.0,0.0,0.0,0.0,0.0,0.0,0.0,0.0,0.0,0.0,0.0,0.0,0.0,0.0,0.0,0.0,0.0,0.0,0.0,0.0,0.0,0.0,0.0,0.0,0.0,0.0,0.0,0.0,0.0,0.0,0.0,0.0,0.0,0.0,0.0,0.0,0.0,0.0,0.0,0.0,0.0,0.0,0.0,0.0,0.0,0.0,0.0,0.0,0.0,0.0,0.0,0.0,0.0,0.0,0.0,0.0,0.0,0.0,0.0,0.0,0.0,0.0,0.0,0.0,0.0,0.0,0.0,0.0,0.0,0.0,0.0,0.0,0.0,0.0,0.0,0.0,0.0,0.0,0.0,0.0,0.0,0.0,0.0,0.0,0.0,0.0,0.0,0.0,0.0,0.0,0.0,0.0,0.0,0.0,0.0,0.0,0.0,0.0,0.0,0.0,0.0,0.0,0.0,0.0,0.0,0.0321,-0.0441,-0.0641,-0.0965,-0.1484,-0.1639,-0.1973,0.0,0.0,0.0,0.0,0.0,0.0,0.0,0.0,0.0,0.0,0.0,0.0,0.0,0.0,0.0,0.0,0.0,0.0,0.0,0.0,0.0,0.0,0.0,0.0,0.0,0.0,0.0,0.0,0.0,0.0,0.0,0.0,0.0,0.0,0.0,0.0,0.0,0.0,0.0,0.0,0.0,0.0,0.0,0.0,0.0,0.0,0.0,0.0,0.0,0.0,0.0,0.0,0.0,0.0,0.0,0.0,0.0,0.0,0.0,0.0,0.0,0.0,0.0,0.0,0.0,0.0,0.0,0.0,0.0,0.0,0.0,0.0,0.0,0.0,0.0,0.0,0.0,0.0,0.0,0.0,0.0,0.0,0.0,0.0,0.0,0.0,0.0,0.0,0.0,0.0,0.0,0.0,0.0,0.0,0.0,0.0,0.0,0.0,0.0,0.0,0.0,0.0,0.0,0.0,0.0,0.0,0.0,0.0,0.0,-0.0133,-0.0593,-0.0991,-0.1354,-0.1777,-0.2184,0.0,0.0,0.0,0.0,0.0,0.0,0.0,0.0,0.0,0.0,0.0,0.0,0.0,0.0,0.0,0.0,0.0,0.0,0.0,0.0,0.0,0.0,0.0,0.0,0.0,0.0,0.0,0.0,0.0,0.0,0.0,0.0,0.0,0.0,0.0,0.0,0.0,0.0,0.0,0.0,0.0,0.0,0.0,0.0,0.0,0.0,0.0,0.0,0.0,0.0,0.0,0.0,0.0,0.0,0.0,0.0,0.0,0.0,0.0,0.0,0.0,0.0,0.0,0.0,0.0,0.0,0.0,0.0,0.0,0.0,0.0,0.0,0.0,0.0,0.0,0.0,0.0,0.0,0.0,0.0,0.0,0.0,0.0,0.0,0.0,0.0,0.0,0.0,0.0,0.0,0.0,0.0,0.0,0.0,0.0,0.0,0.0,0.0,0.0,0.0,0.0,0.0,0.0,0.0,0.0,0.0,0.0,0.0,0.0,0.0639,-0.0229,-0.0877,-0.135,-0.1848,-0.2368,-0.2813,0.0,0.0,0.0,0.0,0.0,0.0,0.0,0.0,0.0,0.0,0.0,0.0,0.0,0.0,0.0,0.0,0.0,0.0,0.0,0.0,0.0,0.0,0.0,0.0,0.0,0.0,0.0,0.0,0.0,0.0,0.0,0.0,0.0,0.0,0.0,0.0,0.0,0.0,0.0,0.0,0.0,0.0,0.0,0.0,0.0,0.0,0.0,0.0,0.0,0.0,0.0,0.0,0.0,0.0,0.0,0.0,0.0,0.0,0.0,0.0,0.0,0.0,0.0,0.0,0.0,0.0,0.0,0.0,0.0,0.0,0.0,0.0,0.0,0.0,0.0,0.0,0.0,0.0,0.0,0.0,0.0,0.0,0.0,0.0,0.0,0.0,0.0,0.0,0.0,0.0,0.0,0.0,0.0,0.0,0.0,0.0,0.0,0.0,0.0,0.0,0.0,0.0,0.0,0.0,0.0,0.0,0.0,0.0,0.1725,0.0445,-0.0633,-0.1422,-0.1923,-0.2425,0.0,0.0,0.0,0.0,0.0,0.0,0.0,0.0,0.0,0.0,0.0,0.0,0.0,0.0,0.0,0.0,0.0,0.0,0.0,0.0,0.0,0.0,0.0,0.0,0.0,0.0,0.0,0.0,0.0,0.0,0.0,0.0,0.0,0.0,0.0,0.0,0.0,0.0,0.0,0.0,0.0,0.0,0.0,0.0,0.0,0.0,0.0,0.0,0.0,0.0,0.0,0.0,0.0,0.0,0.0,0.0,0.0,0.0,0.0,0.0,0.0,0.0,0.0,0.0,0.0,0.0,0.0,0.0,0.0,0.0,0.0,0.0,0.0,0.0,0.0,0.0,0.0,0.0,0.0,0.0,0.0,0.0,0.0,0.0,0.0,0.0,0.0,0.0,0.0,0.0,0.0,0.0,0.0,0.0,0.0,0.0,0.0,0.0,0.0,0.0,0.0,0.0,0.0,0.0,0.0,0.0,0.0,0.0,0.0,0.1976,0.0995,0.0043,-0.0805,-0.1565,-0.2231,0.0,0.0,0.0,0.0,0.0,0.0,0.0,0.0,0.0,0.0,0.0,0.0,0.0,0.0,0.0,0.0,0.0,0.0,0.0,0.0,0.0,0.0,0.0,0.0,0.0,0.0,0.0,0.0,0.0,0.0,0.0,0.0,0.0,0.0,0.0,0.0,0.0,0.0,0.0,0.0,0.0,0.0,0.0,0.0,0.0,0.0,0.0,0.0,0.0,0.0,0.0,0.0,0.0,0.0,0.0,0.0,0.0,0.0,0.0,0.0,0.0,0.0,0.0,0.0,0.0,0.0,0.0,0.0,0.0,0.0,0.0,0.0,0.0,0.0,0.0,0.0,0.0,0.0,0.0,0.0,0.0,0.0,0.0,0.0,0.0,0.0,0.0,0.0,0.0,0.0,0.0,0.0,0.0,0.0,0.0,0.0,0.0,0.0,0.0,0.0,0.0,0.0,0.0,0.0,0.0,0.0,0.0,0.0,0.281,0.2583,0.1671,0.0678,-0.0357,-0.1386,-0.2186,0.0,0.0,0.0,0.0,0.0,0.0,0.0,0.0,0.0,0.0,0.0,0.0,0.0,0.0,0.0,0.0,0.0,0.0,0.0,0.0,0.0,0.0,0.0,0.0,0.0,0.0,0.0,0.0,0.0,0.0,0.0,0.0,0.0,0.0,0.0,0.0,0.0,0.0,0.0,0.0,0.0,0.0,0.0,0.0,0.0,0.0,0.0,0.0,0.0,0.0,0.0,0.0,0.0,0.0,0.0,0.0,0.0,0.0,0.0,0.0,0.0,0.0,0.0,0.0,0.0,0.0,0.0,0.0,0.0,0.0,0.0,0.0,0.0,0.0,0.0,0.0,0.0,0.0,0.0,0.0,0.0,0.0,0.0,0.0,0.0,0.0,0.0,0.0,0.0,0.0,0.0,0.0,0.0,0.0,0.0,0.0,0.0,0.0,0.0,0.0,0.0,0.0,0.0,0.0,0.0,0.0,0.0,0.0,0.3359,0.3322,0.236,0.1295,0.0092,-0.1207,-0.2143,0.0,0.0,0.0,0.0,0.0,0.0,0.0,0.0,0.0,0.0,0.0,0.0,0.0,0.0,0.0,0.0,0.0,0.0,0.0,0.0,0.0,0.0,0.0,0.0,0.0,0.0,0.0,0.0,0.0,0.0,0.0,0.0,0.0,0.0,0.0,0.0,0.0,0.0,0.0,0.0,0.0,0.0,0.0,0.0,0.0,0.0,0.0,0.0,0.0,0.0,0.0,0.0,0.0,0.0,0.0,0.0,0.0,0.0,0.0,0.0,0.0,0.0,0.0,0.0,0.0,0.0,0.0,0.0,0.0,0.0,0.0,0.0,0.0,0.0,0.0,0.0,0.0,0.0,0.0,0.0,0.0,0.0,0.0,0.0,0.0,0.0,0.0,0.0,0.0,0.0,0.0,0.0,0.0,0.0,0.0,0.0,0.0,0.0,0.0,0.0,0.0,0.0,0.0,0.0,0.0,0.0,0.0,0.0,0.3759,0.3598,0.2637,0.1665,0.0648,-0.0606,-0.1615,0.0,0.0,0.0,0.0,0.0,0.0,0.0,0.0,0.0,0.0,0.0,0.0,0.0,0.0,0.0,0.0,0.0,0.0,0.0,0.0,0.0,0.0,0.0,0.0,0.0,0.0,0.0,0.0,0.0,0.0,0.0,0.0,0.0,0.0,0.0,0.0,0.0,0.0,0.0,0.0,0.0,0.0,0.0,0.0,0.0,0.0,0.0,0.0,-0.1719,0.0,0.0,0.0,0.0,0.0,0.0,0.0,0.0,0.0,0.0,0.0,0.0,0.0,0.0,0.0,0.0,0.0,0.0,0.0,0.0,0.0,0.0,0.0,0.0,0.0,0.0,0.0,0.0,0.0,0.0,0.0,0.0,0.0,0.0,0.0,0.0,0.0,0.0,0.0,0.0,0.0,0.0,0.0,0.0,0.0,0.0,0.0,0.0,0.0,0.0,0.0,0.0,0.0,0.0,0.0,0.0,0.0,0.0,0.0,0.4033,0.3827,0.2866,0.1896,0.0926,-0.0047,-0.1004,0.0,0.0,0.0,0.0,0.0,0.0,0.0,0.0,0.0,0.0,0.0,0.0,0.0,0.0,0.0,0.0,0.0,0.0,0.0,0.0,0.0,0.0,0.0,0.0,0.0,0.0,0.0,0.0,0.0,0.0,0.0,0.0,0.0,0.0,0.0,0.0,0.0,0.0,0.0,0.0,0.0,0.0,0.0,0.0,0.0,0.0,0.0,0.0,0.0,0.0,0.0,0.0,0.0,0.0,0.0,0.0,0.0,0.0,0.0,0.0,0.0,0.0,0.0,0.0,0.0,0.0,0.0,0.0,0.0,0.0,0.0,0.0,0.0,0.0,0.0,0.0,0.0,0.0,0.0,0.0,0.0,0.0,0.0,0.0,0.0,0.0,0.0,0.0,0.0,0.0,0.0,0.0,0.0,0.0,0.0,0.0,0.0,0.0,0.0,0.0,0.0,0.0,0.0,0.0,0.0,0.0,0.0,0.4526,0.4346,0.4099,0.3141,0.2218,0.1296,0.0564,-0.032,-0.1307,0.0,0.0,0.0,0.0,0.0,0.0,0.0,0.0,0.0,0.0,0.0,0.0,0.0,0.0,0.0,0.0,0.0,0.0,0.0,0.0,0.0,0.0,0.0,0.0,0.0,0.0,0.0,0.0,0.0,0.0,0.0,0.0,0.0,0.0,0.0,0.0,0.0,0.0,0.3243,0.2872,0.0,0.0,0.0,0.0,0.0,0.0,0.0,0.0,-0.1811,0.0,0.0,0.0,0.0,0.0,0.0,0.0,0.0,0.0,0.0,0.0,0.0,0.0,0.0,0.0,0.0,0.0,0.0,0.0,0.0,0.0,0.0,0.0,0.0,0.0,0.0,0.0,0.0,0.0,0.0,0.0,0.0,0.0,0.0,0.0,0.0,0.0,0.0,0.0,0.0,0.0,0.0,0.0,0.0,0.0,0.0,0.0,0.0,0.0,0.0,0.0,0.0,0.0,0.0,0.0,0.0,0.4935,0.5012,0.4898,0.4568,0.3837,0.2961,0.2037,0.13,0.0541,-0.0253,0.0,0.0,0.0,0.0,0.0,0.0,0.0,0.0,0.0,0.0,0.0,0.0,0.0,0.0,0.0,0.0,0.0,0.0,0.0,0.0,0.0,0.0,0.0,0.0,0.0,0.0,0.0,0.0,0.0,0.0,0.0,0.0,0.0,0.0,0.0,0.0,0.0,0.0,0.0,0.3235,0.2949,0.0,0.0,0.0,0.0,0.0,0.0,0.0,0.0,-0.1587,0.0,0.0,0.0,0.0,0.0,0.0,0.0,0.0,0.0,0.0,0.0,0.0,0.0,0.0,0.0,0.0,0.0,0.0,0.0,0.0,0.0,0.0,0.0,0.0,0.0,0.0,0.0,0.0,0.0,0.0,0.0,0.0,0.0,0.0,0.0,0.0,0.0,0.0,0.0,0.0,0.0,0.0,0.0,0.0,0.0,0.0,0.0,0.0,0.0,0.0,0.0,0.0,0.0,0.0,0.0,0.5444,0.5336,0.518,0.5037,0.4184,0.3412,0.2731,0.1912,0.1244,0.0,0.0,0.0,0.0,0.0,0.0,0.0,0.0,0.0,0.0,0.0,0.0,0.0,0.0,0.0,0.0,0.0,0.0,0.0,0.0,0.0,0.0,0.0,0.0,0.0,0.0,0.0,0.0,0.0,0.0,0.0,0.0,0.0,0.0,0.0,0.0,0.0,0.0,0.0,0.0,0.3639,0.3319,0.2998,0.0,0.0,0.0,0.0,0.0,0.0,-0.0765,-0.1319,0.0,0.0,0.0,0.0,0.0,0.0,0.0,0.0,0.0,0.0,0.0,0.0,0.0,0.0,0.0,0.0,0.0,0.0,0.0,0.0,0.0,0.0,0.0,0.0,0.0,0.0,0.0,0.0,0.0,0.0,0.0,0.0,0.0,0.0,0.0,0.0,0.0,0.0,0.0,0.0,0.0,0.0,0.0,0.0,0.0,0.0,0.0,0.0,0.0,0.0,0.0,0.0,0.0,0.0,0.0,0.6048,0.5744,0.555,0.5581,0.4696,0.3941,0.3405,0.2601,0.1978,0.0,0.0,0.0,0.0,0.0,0.0,0.0,0.0,0.0,0.0,0.0,0.0,0.0,0.0,0.0,0.0,0.0,0.0,0.0,0.0,0.0,0.0,0.0,0.0,0.0,0.0,0.0,0.0,0.0,0.0,0.0,0.0,0.0,0.0,0.0,0.0,0.0,0.0,0.0,0.0,0.0,0.37,0.3445,0.3236,0.0,0.0,0.0,0.0,0.0764,-0.0152,0.0,0.0,0.0,0.0,0.0,0.0,0.0,0.0,0.0,0.0,0.0,0.0,0.0,0.0,0.0,0.0,0.0,0.0,0.0,0.0,0.0,0.0,0.0,0.0,0.0,0.0,0.0,0.0,0.0,0.0,0.0,0.0,0.0,0.0,0.0,0.0,0.0,0.0,0.0,0.0,0.0,0.0,0.0,0.0,0.0,0.0,0.0,0.0,0.0,0.0,0.0,0.0,0.0,0.0,0.0,0.0,0.6654,0.6495,0.6322,0.6242,0.5589,0.4879,0.421,0.3674,0.2944,0.0,0.0,0.0,0.0,0.0,0.0,0.0,0.0,0.0,0.0,0.0,0.0,0.0,0.0,0.0,0.0,0.0,0.0,0.0,0.0,0.0,0.0,0.0,0.0,0.0,0.0,0.0,0.0,0.0,0.0,0.0,0.0,0.0,0.0,0.0,0.0,0.0,0.0,0.0,0.0,0.0,0.4403,0.3895,0.3641,0.3345,0.0,0.0,0.1935,0.1299,0.0714,0.0,0.0,0.0,0.0,0.0,0.0,0.0,0.0,0.0,0.0,0.0,0.0,0.0,0.0,0.0,0.0,0.0,0.0,0.0,0.0,0.0,0.0,0.0,0.0,0.0,0.0,0.0,0.0,0.0,0.0,0.0,0.0,0.0,0.0,0.0,0.0,0.0,0.0,0.0,0.0,0.0,0.0,0.0,0.0,0.0,0.0,0.0,0.0,0.0,0.0,0.0,0.0,0.0,0.0,0.0,0.6824,0.7583,0.7183,0.7033,0.7173,0.6387,0.5677,0.5097,0.4387,0.3647,0.0,0.0,0.0,0.0,0.0,0.0,0.0,0.0,0.0,0.0,0.0,0.0,0.0,0.0,0.0,0.0,0.0,0.0,0.0,0.0,0.0,0.0,0.0,0.0,0.0,0.0,0.0,0.0,0.0,0.0,0.0,0.0,0.0,0.0,0.0,0.0,0.0,0.0,0.0,0.0,0.0,0.0,0.4367,0.4144,0.0,0.0,0.0,0.2677,0.2178,0.0,0.0,0.0,0.0,0.0,0.0,0.0,0.0,0.0,0.0,0.0,0.0,0.0,0.0,0.0,0.0,0.0,0.0,0.0,0.0,0.0,0.0,0.0,0.0,0.0,0.0,0.0,0.0,0.0,0.0,0.0,0.0,0.0,0.0,0.0,0.0,0.0,0.0,0.0,0.0,0.0,0.0,0.0,0.0,0.0,0.0,0.0,0.0,0.0,0.0,0.0,0.0,0.0,0.0,0.0,0.0,0.0,0.8515,0.7934,0.7774,0.8013,0.7228,0.6564,0.6163,0.5275,0.0,0.0,0.0,0.0,0.0,0.0,0.0,0.0,0.0,0.0,0.0,0.0,0.0,0.0,0.0,0.0,0.0,0.0,0.0,0.0,0.0,0.0,0.0,0.0,0.0,0.0,0.0,0.4278,0.0,0.0,0.0,0.0,0.0,0.0,0.0,0.0,0.0,0.0,0.0,0.0,0.0,0.0,0.5366,0.4903,0.4656,0.4321,0.0,0.0,0.3191,0.2837,0.206,0.141,0.0,0.0,0.0,0.0,0.0,0.0,0.0,0.0,0.0,0.0,0.0,0.0,0.0,0.0,0.0,0.0,0.0,0.0,0.0,0.0,0.0,0.0,0.0,0.0,0.0,0.0,0.0,0.0,0.0,0.0,0.0,0.0,0.0,0.0,0.0,0.0,0.0,0.0,0.0,0.0,0.0,0.0,0.0,0.0,0.0,0.0,0.0,0.0,0.0,0.0,0.0,0.0,0.0,0.0,0.0,0.9167,0.8755,0.8615,0.8807,0.8072,0.758,0.7353,0.665,0.5953,0.0,0.0,0.0,0.0,0.0,0.0,0.0,0.0,0.0,0.0,0.0,0.0,0.0,0.0,0.0,0.0,0.0,0.0,0.0,0.0,0.0,0.0,0.0,0.0,0.0,0.0,0.0,0.0,0.0,0.0,0.0,0.0,0.0,0.0,0.0,0.0,0.0,0.0,0.0,0.0,0.0,0.6391,0.5642,0.5292,0.4884,0.0,0.0,0.3506,0.3073,0.2508,0.1976,0.1596,0.0,0.0,0.0,0.0,0.0,0.0,0.0,0.0,0.0,0.0,0.0,0.0,0.0,0.0,0.0,0.0,0.0,0.0,0.0,0.0,0.0,0.0,0.0,0.0,0.0,0.0,0.0,0.0,0.0,0.0,0.0,0.0,0.0,0.0,0.0,0.0,0.0,0.0,0.0,0.0,0.0,0.0,0.0,0.0,0.0,0.0,0.0,0.0,0.0,0.0,0.0,0.0,0.0,0.8941,0.9882,0.9445,0.9401,0.971,0.9078,0.8596,0.8364,0.7661,0.6993,0.0,0.0,0.0,0.0,0.0,0.0,0.0,0.0,0.0,0.0,0.0,0.0,0.0,0.0,0.0,0.0,0.0,0.0,0.0,0.0,0.0,0.0,0.0,0.0,0.0,0.0,0.0,0.0,0.6344,0.6465,0.6733,0.0,0.0,0.0,0.0,0.0,0.0,0.0,0.0,0.0,0.0,0.6583,0.6065,0.5614,0.0,0.0,0.431,0.3976,0.359,0.319,0.2722,0.2122,0.1454,0.0,0.0,0.0,0.0,0.0,0.0,0.0,0.0,0.0,0.0,0.0,0.0,0.0,0.0,0.0,0.0,0.0,0.0,0.0,0.0,0.0,0.0,0.0,0.0,0.0,0.0,0.0,0.0,0.0,0.0,0.0,0.0,0.0,0.0,0.0,0.0,0.0,0.0,0.0,0.0,0.0,0.0,0.0,0.0,0.0,0.0,0.0,0.0,0.0,0.0,0.0,0.0,0.9675,1.0465,1.0167,1.0168,1.0501,0.9907,0.951,0.9283,0.8671,0.8111,0.0,0.0,0.0,0.0,0.0,0.0,0.0,0.0,0.0,0.0,0.0,0.0,0.0,0.0,0.0,0.0,0.0,0.0,0.0,0.0,0.0,0.0,0.0,0.0,0.0,0.0,0.0,0.0,0.7237,0.7269,0.7375,0.0,0.0,0.0,0.0,0.0,0.0,0.0,0.0,0.0,0.0,0.6925,0.6468,0.6002,0.5587,0.5224,0.4836,0.4443,0.4102,0.3673,0.3188,0.2645,0.0,0.0,0.0,0.0,0.0,0.0,0.0,0.0,0.0,0.0,0.0,0.0,0.0,0.0,0.0,0.0,0.0,0.0,0.0,0.0,0.0,0.0,0.0,0.0,0.0,0.0,0.0,0.0,0.0,0.0,0.0,0.0,0.0,0.0,0.0,0.0,0.0,0.0,0.0,0.0,0.0,0.0,0.0,0.0,0.0,0.0,0.0,0.0,0.0,0.0,0.0,0.0,0.0,1.0676,1.091,1.0936,1.1,1.0977,1.0511,1.0294,1.025,0.982,0.9368,0.8969,0.0,0.0,0.0,0.0,0.0,0.0,0.0,0.0,0.0,0.0,0.0,0.0,0.0,0.0,0.0,0.0,0.0,0.0,0.0,0.0,0.0,0.0,0.0,0.0,0.0,0.0,0.7575,0.7704,0.7739,0.0,0.0,0.0,0.0,0.0,0.0,0.0,0.0,0.0,0.0,0.7933,0.7746,0.7021,0.6658,0.6241,0.5609,0.522,0.4872,0.4534,0.3985,0.3485,0.0,0.0,0.0,0.0,0.0,0.0,0.0,0.0,0.0,0.0,0.0,0.0,0.0,0.0,0.0,0.0,0.0,0.0,0.0,0.0,0.0,0.0,0.0,0.0,0.0,0.0,0.0,1.5912,1.5741,0.0,0.0,0.0,0.0,0.0,0.0,0.0,0.0,0.0,0.0,0.0,1.409,1.4013,0.0,0.0,0.0,0.0,0.0,0.0,0.0,0.0,0.0,0.0,0.0,0.0,1.1192,1.1542,1.16,1.1769,1.1923,1.1456,1.1241,1.1203,1.0895,1.0466,0.9857,0.0,0.0,0.0,0.0,0.0,0.0,0.0,0.0,0.0,0.0,0.0,0.0,0.0,0.0,0.0,0.0,0.0,0.0,0.0,0.0,0.0,0.0,0.0,0.0,0.0,0.7832,0.0,0.0,0.0,0.0,0.0,0.0,0.0,0.0,0.0,0.0,0.0,0.8195,0.8182,0.8241,0.8139,0.7822,0.7368,0.6962,0.0,0.0,0.0,0.0,0.0,0.0,0.0,0.0,0.0,0.0,0.0,0.0,0.0,0.0,-0.0038,-0.0843,-0.1239,-0.1567,-0.2114,0.0,0.0,0.0,0.0,0.0,0.0,0.0,0.0,0.0,0.0,0.0,0.0,0.0,0.0,0.0,0.0,1.6602,0.0,0.0,0.0,0.0,0.0,0.0,0.0,0.0,1.6585,1.658,1.5588,1.5499,1.5572,0.0,1.5229,1.4389,0.0,0.0,0.0,0.0,0.0,0.0,0.0,0.0,1.2118,1.2525,1.2484,1.2578,1.2693,1.2277,1.2057,1.2057,1.1716,1.1186,1.0543,0.9712,0.9129,0.0,0.0,0.0,0.0,0.0,0.0,0.0,0.0,0.0,0.0,0.0,0.0,0.0,0.0,0.0,0.0,0.0,0.0,0.0,0.0,0.0,0.0,0.0,0.852,0.0,0.0,0.0,0.0,0.0,0.0,0.0,0.0,0.0,0.8521,0.8536,0.8659,0.8687,0.8605,0.8471,0.8322,0.0,0.0,0.0,0.0,0.0,0.0,0.0,0.4921,0.4107,0.3523,0.2985,0.223,0.1898,0.1602,0.1344,0.0,0.0,-0.0339,-0.0711,-0.1049,-0.1723,-0.2047,-0.2375,-0.2836,-0.3102,-0.3331,0.0,0.0,0.0,0.0,0.0,0.0,0.0,0.0,1.9581,1.9573,0.0,1.8391,0.0,0.0,0.0,0.0,0.0,0.0,0.0,0.0,1.8231,1.8617,1.7843,1.7588,1.7607,1.7664,1.7029,1.6539,1.6062,1.4527,0.0,0.0,0.0,0.0,0.0,0.0,1.3413,1.3736,1.3532,1.3434,1.344,1.3009,1.2741,1.2723,1.2198,1.1641,1.0967,1.0507,0.9977,0.9421,0.8772,0.0,0.0,0.0,0.0,0.0,0.0,0.0,0.0,0.0,0.0,0.0,0.0,0.0,0.0,0.0,0.0,0.0,0.0,0.0,0.0,0.9227,0.0,0.0,0.0,0.0,0.0,0.0,0.0,0.0,0.0,0.0,0.9466,0.9208,0.9157,0.9415,0.0,0.0,0.0,0.0,0.8045,0.7524,0.7257,0.6982,0.6511,0.5934,0.5397,0.489,0.0,0.0,0.2835,0.256,0.2333,0.1997,0.1795,0.1297,0.0275,-0.0117,-0.0549,-0.1372,-0.1722,-0.2077,-0.2588,-0.2743,-0.294,2.3377,0.0,0.0,0.0,0.0,2.112,2.1203,2.1338,2.0838,2.0722,2.0801,1.9759,0.0,0.0,0.0,0.0,0.0,0.0,1.9186,1.8407,1.9496,1.9485,1.8513,1.833,1.8219,1.8183,1.7726,1.7575,1.772,1.6824,1.5734,1.4467,0.0,0.0,0.0,0.0,1.4543,1.461,1.4414,1.4321,1.4321,1.3928,1.3584,1.3354,1.2858,1.2419,1.1991,1.1371,1.0966,1.08,0.9919,0.0,0.0,0.0,0.0,0.0,0.0,0.0,0.0,0.0,0.0,0.0,0.0,0.0,0.0,0.0,0.0,0.0,0.0,0.0,0.9617,0.9804,1.003,0.0,0.0,0.0,0.0,0.0,0.0,0.0,0.0,0.0,1.0894,1.0636,1.0315,0.0,0.0,0.9337,0.8866,0.867,0.8451,0.8124,0.0,0.0,0.0,0.6725,0.6176,0.5672,0.4842,0.4065,0.3566,0.3327,0.3069,0.2683,0.2432,0.2002,0.1296,0.0589,0.0,-0.0589,-0.1099,-0.157,-0.1885,-0.2276,-0.2628,2.5343,2.3786,2.3052,2.2738,2.272,2.2657,2.276,2.2861,2.2316,2.2086,2.2175,2.1012,2.0455,2.0343,1.9974,0.0,0.0,0.0,2.0585,1.986,2.0654,2.0564,1.977,1.9416,1.9138,1.8964,1.8689,1.861,1.8736,1.8236,1.7591,1.6737,0.0,0.0,1.5558,1.5373,1.5344,1.544,1.5017,1.4818,1.4818,1.4451,1.4068,1.3738,1.3452,1.3072,1.2636,1.2212,1.1929,1.1774,1.0988,1.054,0.0,0.0,0.0,0.0,0.0,0.0,0.0,0.0,0.0,0.0,0.0,0.8553,0.0,0.0,0.0,0.0,0.998,1.0125,1.0351,1.0475,0.0,0.0,0.0,0.0,0.0,0.0,0.0,1.1233,1.1399,1.1615,1.1988,1.187,1.144,1.0699,1.0204,0.9786,0.9461,0.0,0.889,0.8563,0.8322,0.8055,0.7738,0.7156,0.6554,0.5877,0.5272,0.4695,0.4273,0.4049,0.3766,0.3369,0.3049,0.2666,0.208,0.1413,0.0706,0.0079,-0.0432,-0.0864,-0.1258,-0.1689,-0.2119,2.7131,2.6378,2.5083,2.4469,2.4383,2.4276,2.4253,2.4214,2.3741,2.3603,2.3519,2.2224,2.1442,2.1142,2.0329,0.0,2.011,2.1214,2.1513,2.1188,2.176,2.1722,2.1222,2.0683,2.0254,1.9981,1.9794,1.9597,1.9402,1.9022,1.8905,1.9045,1.7458,1.6581,1.6445,1.6037,1.5989,1.6269,1.5506,1.5057,1.5057,1.4684,1.4342,1.402,1.3967,1.3664,1.3068,1.301,1.282,1.2475,1.2031,1.1686,1.1373,0.0,0.0,0.0,0.0,0.0,0.0,0.0,0.0,0.0,0.0,0.0,0.0,0.0,0.0,0.0,1.1168,0.0,1.1186,1.1186,0.0,0.0,0.0,1.149,1.1484,1.1446,1.1576,1.1869,0.0,0.0,1.2653,0.0,1.2359,1.1394,1.0632,1.0149,1.0103,0.9749,0.9373,0.8902,0.8709,0.8424,0.7939,0.735,0.6669,0.5885,0.5529,0.5234,0.4902,0.4658,0.4369,0.394,0.3604,0.3251,0.2666,0.2196,0.1647,0.0628,0.0236,-0.0079,-0.0668,-0.11,-0.1571,2.7991,2.7482,2.6777,2.6076,2.5344,2.5343,2.5448,2.5533,2.459,2.4313,2.4411,2.3227,2.2669,2.2563,2.2403,2.2306,2.2316,2.283,2.2821,2.2416,2.2725,2.2439,2.166,2.1352,2.1007,2.0683,2.044,2.0333,2.0284,2.0042,1.9925,1.9923,1.9085,1.8368,1.7899,1.731,1.7044,1.7097,1.6321,1.5758,1.5459,1.5381,1.5141,1.4846,1.4673,1.4408,1.3992,1.3876,1.3768,1.3644,1.3091,1.2782,1.28,1.2215,0.0,0.0,0.0,0.0,0.0,0.0,0.0,0.0,0.0,1.0419,1.0776,0.0,1.1355,0.0,1.1879,1.1966,1.1781,1.1935,0.0,0.0,1.2194,1.2077,1.2083,1.1929,1.1884,1.2048,1.2109,1.2238,1.2535,1.2408,1.2187,1.1792,1.1187,1.0666,1.0308,0.9879,0.9495,0.9228,0.8869,0.8438,0.802,0.7401,0.6861,0.6498,0.6157,0.5791,0.5192,0.4989,0.4766,0.435,0.3956,0.3524,0.3051,0.2626,0.2117,0.1453,0.114,0.0746,-0.0039,-0.0786,-0.1375,2.8788,2.855,2.8084,2.7552,2.702,2.6696,2.662,2.6703,2.5762,2.5432,2.5381,2.4213,2.3734,2.3724,2.3734,2.3777,2.3897,2.3801,2.3673,2.3544,2.3279,2.2897,2.2362,2.1961,2.1659,2.1443,2.1213,2.0969,2.0713,2.0599,2.031,1.9924,1.9579,1.9193,1.8733,1.8055,1.7623,1.7519,1.6523,1.5934,1.5807,1.5548,1.5405,1.5401,1.5284,1.5114,1.4856,1.474,1.4605,1.4348,1.4144,1.3812,1.3336,1.3132,1.2737,0.0,0.0,0.0,0.0,0.0,0.0,0.0,0.0,0.0,0.0,0.0,1.2167,0.0,1.2467,1.2562,1.2526,1.2636,1.2783,1.2973,1.282,1.2709,1.268,1.2526,1.2455,1.2598,1.2554,1.2557,1.2804,1.2605,1.2359,1.208,1.1752,1.1308,1.0674,1.0195,0.9798,0.959,0.9289,0.8846,0.828,0.7695,0.7267,0.6954,0.6593,0.6218,0.5741,0.5473,0.5155,0.4696,0.4356,0.3944,0.3376,0.2959,0.2508,0.2016,0.1522,0.0958,0.0274,-0.0314,-0.0786,2.946,2.9361,2.8946,2.8817,2.8771,2.8028,2.7735,2.7625,2.6952,2.6506,2.6169,2.512,2.4669,2.468,2.4669,2.4776,2.4914,2.444,2.428,2.4347,2.3577,2.3161,2.3086,2.2491,2.2145,2.2092,2.1903,2.1439,2.0821,2.0821,2.0396,1.967,1.9611,1.9489,1.9269,1.8573,1.8052,1.7698,1.649,1.5907,1.6123,1.5617,1.554,1.5852,1.5913,1.5851,1.5649,1.5641,1.5357,1.4806,1.5065,1.4737,1.3639,1.3852,1.3477,0.0,1.1999,0.0,0.0,0.0,0.0,0.0,0.0,0.0,0.0,1.2946,1.2928,1.3025,1.3046,1.3119,1.3266,1.3302,1.3382,1.3528,1.3419,1.3302,1.3266,1.3083,1.3072,1.3264,1.3103,1.3022,1.3104,1.2969,1.2687,1.234,1.2189,1.1866,1.1135,1.0621,1.0267,1.0024,0.9691,0.9156,0.8556,0.8021,0.7586,0.726,0.6839,0.6541,0.6304,0.5934,0.5551,0.5024,0.4732,0.4338,0.3642,0.3245,0.281,0.2379,0.1794,0.1149,0.0537,0.0155,-0.0272,2.9802,2.9481,2.9381,2.9336,2.9314,2.8731,2.8258,2.7906,2.7377,2.6704,2.5956,2.5719,2.5633,2.5644,2.5633,2.5416,2.5068,2.4941,2.4526,2.384,2.3655,2.3362,2.3031,2.2708,2.2386,2.2033,2.1828,2.1449,2.098,2.0801,2.0652,2.0441,2.0079,1.9893,1.9827,0.0,0.0,0.0,1.6981,1.6474,1.6287,1.6264,1.623,1.622,1.6681,0.0,1.617,1.6269,1.6078,1.5622,1.5528,0.0,0.0,0.0,0.0,0.0,0.0,0.0,0.0,0.0,0.0,0.0,1.341,1.3243,1.3108,1.3547,1.378,1.363,1.3775,1.3811,1.3717,1.3848,1.3949,1.3985,1.3949,1.3848,1.3717,1.3492,1.3368,1.3235,1.3058,1.2924,1.2949,1.2926,1.277,1.2546,1.2353,1.2068,1.1536,1.117,1.088,1.0516,0.9724,0.9035,0.8619,0.7993,0.7546,0.7307,0.6949,0.6554,0.6372,0.6023,0.5735,0.5412,0.4923,0.4535,0.4171,0.3674,0.3159,0.2622,0.2295,0.1829,0.0959,0.037,-0.0111,3.0468,0.0,2.9963,2.986,0.0,2.9276,2.8735,2.8268,2.7598,2.6915,2.6229,2.6271,2.6229,2.6218,2.5975,2.5691,2.5415,2.4951,2.4465,2.399,2.3747,2.3541,2.3287,2.2945,2.2619,2.2388,2.2065,2.1609,2.106,2.0876,2.0631,2.0283,1.9982,1.9799,1.9799,1.9666,1.9208,1.8385,1.7701,1.7222,1.6968,1.6949,1.6883,1.6821,0.0,0.0,0.0,0.0,0.0,0.0,0.0,0.0,0.0,0.0,0.0,1.4456,1.4223,1.4079,1.4079,1.3805,1.3726,1.3886,1.3817,1.3842,1.3898,1.4277,1.4469,1.4361,1.4353,1.4353,1.4361,1.4433,1.4533,1.4633,1.4561,1.4371,1.4001,1.3777,1.3504,1.3179,1.3009,1.2903,1.2798,1.2791,1.2685,1.2438,1.2332,1.2107,1.1653,1.1301,1.0932,1.0401,0.979,0.925,0.8997,0.8478,0.7974,0.7948,0.7446,0.7019,0.6841,0.6412,0.6008,0.5828,0.5354,0.4891,0.4506,0.4022,0.3537,0.3011,0.2627,0.2174,0.1509,0.0894,0.0291,3.097,3.0808,3.0385,3.0149,3.0044,2.9472,2.8956,2.8451,0.0,0.0,0.0,2.685,2.6753,2.6651,2.6215,2.5933,2.5707,2.4867,2.4476,2.4386,2.3915,2.3641,2.3582,2.3037,2.2721,2.2596,2.2192,2.1677,2.1063,2.093,2.0544,1.9944,1.9716,1.9598,1.9522,1.9512,1.936,1.9046,1.8397,1.7952,1.7735,1.7591,1.7454,1.7376,1.7866,1.8054,1.7941,1.7708,1.7313,1.683,1.6748,1.6271,1.5273,1.5503,1.5291,1.4485,1.4398,1.4398,1.4369,1.4249,1.416,1.41,1.414,1.4311,1.4646,1.4788,1.4855,1.4855,1.4706,1.467,1.4828,1.4855,1.4925,1.5085,1.4917,1.4611,1.4207,1.3945,1.3629,1.322,1.3129,1.3031,1.2852,1.2826,1.2687,1.2424,1.2366,1.211,1.1696,1.1296,1.0835,1.0322,0.9967,0.9696,0.9404,0.8957,0.8672,0.8562,0.7992,0.7521,0.7429,0.694,0.6473,0.6253,0.5799,0.5316,0.4831,0.4445,0.3961,0.346,0.2956,0.2484,0.2057,0.1492,0.0854,3.0879,3.0326,3.0243,2.9918,2.9472,2.892,2.8445,2.7998,2.7877,2.7789,2.7731,2.7719,2.7474,2.7014,2.6944,2.6418,2.5529,2.5403,2.5123,0.0,2.4202,2.3875,2.3664,2.296,2.2343,2.1868,2.161,2.1251,2.0782,2.0737,2.0459,1.9961,1.9885,1.9632,1.9221,1.9158,1.9097,1.8936,1.8722,1.8467,1.8275,1.8051,1.7833,1.7677,1.8215,1.8256,1.777,1.8216,1.8103,1.7271,1.7219,1.6803,1.6011,1.5886,1.5673,1.5274,1.5235,1.5186,1.5059,1.4941,1.4725,1.4497,1.4693,1.4813,1.4635,1.4621,1.4655,1.4655,1.463,1.4621,1.4655,1.468,1.4706,1.4705,1.453,1.4347,1.4272,1.4023,1.3783,1.3636,1.3526,1.3377,1.3204,1.3194,1.3071,1.29,1.265,1.2394,1.1808,1.1364,1.1002,1.0661,1.0323,0.9992,0.9622,0.9196,0.8942,0.8799,0.8339,0.7935,0.7902,0.7337,0.6871,0.6655,0.6205,0.5723,0.5352,0.4964,0.4478,0.3974,0.3531,0.3101,0.2466,0.1961,0.136,3.1057,3.0434,3.0146,2.9881,2.9617,2.9088,2.8767,2.8514,2.8249,2.8009,2.7898,2.7599,2.734,2.707,2.6479,2.5963,2.5481,2.5223,2.486,2.4378,2.4119,2.3791,2.3384,2.2804,2.2333,2.2035,2.1417,2.1006,2.0818,2.0419,2.0045,1.975,1.9545,1.9331,1.9108,1.9097,1.9078,1.9018,1.8875,1.8577,1.8137,1.8251,1.8125,1.7728,1.8203,1.8342,1.8007,1.8037,1.7846,1.7413,1.7159,1.683,1.6392,1.6314,1.6132,1.5816,1.5787,1.571,1.5595,1.5478,1.5284,1.5001,1.5112,1.5151,1.5032,1.5083,1.513,1.513,1.513,1.5171,1.5139,1.5083,1.5026,1.5026,1.4846,1.4629,1.432,1.4181,1.3968,1.3688,1.3489,1.337,1.3315,1.3188,1.3068,1.2908,1.2644,1.2319,1.1992,1.1664,1.1293,1.0872,1.0626,1.0348,0.9996,0.9728,0.9472,0.921,0.8823,0.8506,0.8317,0.7792,0.7428,0.7167,0.6736,0.6277,0.5788,0.5402,0.4884,0.4296,0.3839,0.3359,0.2875,0.225,0.1487,3.1173,3.0643,3.0195,2.9989,2.9816,2.9298,2.9063,2.9014,2.8483,2.81,2.7869,2.7406,2.7103,2.6901,2.6144,2.5729,2.5551,2.5088,2.4624,2.4267,2.3983,2.3617,2.3169,2.2639,2.23,2.2047,2.1313,2.0877,2.0664,2.0152,1.975,1.9511,1.9181,1.9007,1.8996,1.8996,1.8996,1.8978,1.8872,1.8618,1.8211,1.8433,1.8308,1.7933,1.8208,1.8354,1.8203,1.7967,1.7755,1.7608,1.7255,1.6942,1.6722,1.6684,1.657,1.6285,1.6257,1.621,1.6087,1.5875,1.572,1.5584,1.5526,1.5507,1.5537,1.5621,1.5616,1.5531,1.5462,1.5472,1.5399,1.5332,1.5305,1.5305,1.5128,1.4818,1.4484,1.4338,1.4149,1.3714,1.3549,1.3476,1.3398,1.3277,1.3136,1.296,1.2644,1.2428,1.2274,1.212,1.1802,1.1341,1.1028,1.0814,1.0523,1.0295,1.004,0.9748,0.9402,0.9052,0.8698,0.8318,0.7898,0.7538,0.7145,0.664,0.6088,0.5716,0.5261,0.4651,0.4173,0.3691,0.3119,0.2441,0.1623,3.1241,3.0551,3.0451,3.015,2.9703,2.9163,2.895,2.885,2.8275,2.8013,2.7977,2.7631,2.7164,2.6785,2.6602,2.6284,2.5807,2.5328,2.5034,2.4851,2.3981,2.344,2.3151,2.2643,2.1981,2.1318,2.1116,2.0748,2.0252,2.0088,1.9795,1.931,1.8881,1.8682,1.8643,1.867,1.867,1.8658,1.862,1.8746,1.8952,1.8628,1.8404,1.8342,1.8364,1.8351,1.821,1.8574,1.8495,1.8024,1.7886,1.76,1.7047,1.6944,1.6909,1.6751,1.6722,1.6666,1.6524,1.6228,1.6056,1.6028,1.5933,1.5856,1.5856,1.5878,1.5684,1.5399,1.5261,1.524,1.5064,1.5062,1.5089,1.5078,1.4891,1.471,1.4639,1.4414,1.4186,1.4148,1.404,1.3881,1.3799,1.3739,1.358,1.3307,1.3072,1.2889,1.2736,1.2674,1.252,1.2097,1.167,1.1233,1.1021,1.0839,1.0546,1.0243,0.9932,0.9498,0.9017,0.8508,0.8036,0.7629,0.7203,0.6798,0.6358,0.5999,0.5597,0.507,0.4603,0.4161,0.3271,0.2626,0.1995,3.1383,3.0804,3.0791,3.0457,2.9943,2.9699,2.9404,2.8995,2.8431,2.8187,2.8113,2.7726,2.7309,2.697,2.6683,2.6236,2.5738,2.5502,2.5041,2.44,2.382,2.3411,2.2991,2.2341,2.183,2.1474,2.0887,2.0435,2.0149,1.978,1.9461,1.927,1.8976,1.8854,1.8839,1.8827,1.8839,1.8866,1.8827,1.8907,1.9001,1.8707,1.8426,1.8243,1.8226,1.8103,1.793,1.8102,1.8084,1.7839,1.7817,1.77,1.7423,1.7423,1.7357,1.7228,1.7032,1.6853,1.6722,1.6591,1.6495,1.6513,1.6467,1.6449,1.642,1.6431,1.6278,1.5972,1.574,1.5566,1.541,1.5313,1.5225,1.5117,1.497,1.4872,1.4872,1.4754,1.4666,1.4666,1.4547,1.4389,1.433,1.416,1.392,1.367,1.3519,1.3351,1.3147,1.3094,1.2904,1.247,1.1994,1.1692,1.1503,1.1193,1.0838,1.0421,0.9964,0.9511,0.9005,0.8717,0.8317,0.7766,0.7472,0.7057,0.6501,0.6269,0.5931,0.538,0.4682,0.4139,0.3491,0.2998,0.2504,3.153,3.1187,3.1003,3.0558,2.9997,2.9827,2.9525,2.9066,2.8502,2.8266,2.82,2.7649,2.7343,2.7152,2.6671,2.6135,2.5666,2.5443,2.4918,2.4147,2.3816,2.3391,2.2852,2.2346,2.1886,2.1473,2.0779,2.0293,2.0093,1.9643,1.937,1.9344,1.9265,1.9212,1.9212,1.9212,1.9198,1.9172,1.9146,1.9158,1.9078,1.8919,1.8652,1.8329,1.8247,1.8111,1.7904,1.7877,1.7877,1.7822,1.781,1.7783,1.7755,1.7755,1.77,1.7562,1.7329,1.7134,1.706,1.7004,1.7004,1.6965,1.6948,1.6892,1.6892,1.6892,1.6779,1.6563,1.6259,1.6019,1.5769,1.5633,1.5488,1.5391,1.5293,1.5235,1.5235,1.5205,1.5176,1.5117,1.4931,1.4804,1.4745,1.4508,1.427,1.4091,1.3874,1.3693,1.342,1.3224,1.2928,1.2534,1.2225,1.1972,1.1744,1.1279,1.0871,1.0525,1.0055,0.9525,0.8922,0.8775,0.8495,0.7863,0.7764,0.7472,0.6856,0.651,0.6088,0.5409,0.4781,0.4206,0.3766,0.336,0.3023,3.1585,3.1466,3.0933,3.0348,2.9789,2.9249,2.897,2.8877,2.8339,2.8086,2.8006,2.7474,2.7203,2.712,2.6712,2.6251,2.5641,2.5081,2.4766,2.4529,2.3915,2.333,2.2818,2.2754,2.2094,2.1105,2.0865,2.0456,1.9873,1.9798,1.9773,1.9747,1.9759,1.9759,1.9759,1.9734,1.9708,1.9578,1.9578,1.9539,1.9408,1.9368,1.9184,1.8825,1.8652,1.8491,1.8367,1.8367,1.8259,1.8084,1.8084,1.803,1.7925,1.7897,1.7854,1.7728,1.7673,1.7656,1.7617,1.7534,1.7468,1.744,1.7301,1.719,1.719,1.7106,1.7022,1.6955,1.6722,1.642,1.5979,1.5884,1.5856,1.5827,1.5827,1.5817,1.5827,1.5672,1.5575,1.542,1.5245,1.5041,1.4943,1.4804,1.4593,1.4401,1.4025,1.3577,1.3475,1.3056,1.2685,1.2449,1.2248,1.2041,1.1595,1.1197,1.0853,1.0479,1.008,0.9647,0.9217,0.876,0.8331,0.7933,0.7631,0.7351,0.7052,0.6596,0.6018,0.5434,0.4936,0.4439,0.4079,0.3777,0.3413,3.1748,3.1343,3.0751,3.0158,2.9626,2.9349,2.9066,2.8675,2.8082,2.784,2.7732,2.722,2.6748,2.6358,2.6223,2.5921,2.551,2.5239,2.4962,2.4566,2.3827,2.335,2.3115,2.2395,2.1728,2.1183,2.0759,2.0399,2.0105,2.0042,2.0042,2.0042,2.008,2.0042,2.0067,2.008,2.0029,1.9991,1.9965,1.9978,1.9888,1.9836,1.9668,1.9434,1.904,1.8786,1.8652,1.8572,1.8479,1.841,1.8425,1.8398,1.8344,1.8344,1.8302,1.815,1.815,1.8096,1.7975,1.7893,1.7865,1.7772,1.7689,1.7573,1.7534,1.7468,1.7396,1.7217,1.7117,1.6768,1.621,1.6036,1.598,1.5914,1.5904,1.5874,1.5885,1.5856,1.5788,1.569,1.5425,1.5016,1.4587,1.4351,1.424,1.4072,1.3839,1.359,1.3387,1.3122,1.2779,1.2368,1.2092,1.1819,1.1443,1.1139,1.0825,1.0454,1.0051,0.9534,0.9065,0.8863,0.853,0.8126,0.772,0.7386,0.7176,0.6663,0.6087,0.565,0.5124,0.4712,0.438,0.4052,0.3719,3.1586,3.0876,3.044,2.9921,2.9362,2.9176,2.8843,2.8407,2.782,2.753,2.7421,2.6933,2.6442,2.606,2.5855,2.5615,2.5354,2.5253,2.4916,2.4355,2.3773,2.3292,2.2815,2.2023,2.1485,2.1185,2.0794,2.0548,2.046,2.046,2.0447,2.046,2.046,2.046,2.046,2.046,2.0422,2.0346,2.0334,2.0283,2.0195,2.0118,2.0029,1.9888,1.9539,1.9198,1.9011,1.8919,1.8854,1.8854,1.8854,1.8827,1.8801,1.8735,1.8667,1.8598,1.8583,1.8545,1.8387,1.8205,1.8032,1.7917,1.7714,1.7554,1.747,1.739,1.7256,1.7106,1.6933,1.6607,1.6165,1.5968,1.588,1.5772,1.5744,1.5744,1.5733,1.5695,1.5629,1.5457,1.5172,1.4735,1.438,1.4267,1.418,1.3963,1.3796,1.3522,1.3352,1.3,1.2713,1.2269,1.1939,1.1722,1.1464,1.1238,1.0907,1.0526,1.0067,0.9532,0.9166,0.8989,0.8732,0.8307,0.7955,0.7628,0.7219,0.6707,0.6277,0.5868,0.5403,0.4991,0.4656,0.4325,0.4021,3.1068,3.0116,3.0011,2.9619,2.904,2.8526,2.8212,2.803,2.7465,2.7173,2.709,2.6583,2.6307,2.6212,2.5756,2.5397,2.5146,2.4907,2.4524,2.3998,2.3686,2.3018,2.2072,2.1898,2.1554,2.1065,2.101,2.0972,2.0923,2.0923,2.0909,2.0959,2.0923,2.0898,2.0959,2.0923,2.0822,2.0648,2.0598,2.0498,2.022,2.0258,2.0258,2.0195,2.0054,1.9773,1.941,1.9382,1.9368,1.9368,1.9356,1.933,1.9212,1.9044,1.8977,1.8941,1.8953,1.8927,1.884,1.8315,1.7987,1.7889,1.7411,1.7171,1.7107,1.691,1.6759,1.6667,1.6393,1.6023,1.5858,1.5704,1.5587,1.543,1.5474,1.5474,1.5411,1.5285,1.5123,1.4907,1.4708,1.4523,1.4466,1.4336,1.4244,1.4142,1.3814,1.3455,1.3323,1.2799,1.2267,1.2122,1.1977,1.1758,1.1588,1.136,1.1015,1.0614,1.0148,0.9673,0.9465,0.929,0.8982,0.8593,0.8088,0.7735,0.7402,0.6918,0.6571,0.6136,0.5677,0.5266,0.4936,0.4601,0.4322,3.0328,2.9955,2.9555,2.9044,2.8491,2.8284,2.7922,2.7467,2.6888,2.6653,2.6558,2.6047,2.5771,2.5743,2.5564,2.5232,2.4723,2.4614,2.4395,2.3947,2.3137,2.2583,2.2165,2.1736,2.1403,2.1158,2.1033,2.0997,2.0997,2.0997,2.0997,2.0997,2.0997,2.0997,2.1021,2.0997,2.0934,2.0885,2.0885,2.0822,2.0761,2.0749,2.0698,2.061,2.056,2.0266,1.967,1.9623,1.9669,1.9657,1.9656,1.9656,1.9542,1.9218,1.9032,1.8957,1.8586,1.8339,1.824,1.8069,1.7861,1.7726,1.7508,1.7326,1.7155,1.7021,1.6898,1.6736,1.6512,1.6235,1.5771,1.5584,1.5493,1.5403,1.542,1.5392,1.536,1.5315,1.5147,1.4797,1.4582,1.4346,1.399,1.3854,1.3806,1.3711,1.3476,1.3298,1.3081,1.2865,1.2588,1.2406,1.2175,1.1952,1.1828,1.1653,1.1352,1.0998,1.0523,1.0035,0.9803,0.9543,0.9237,0.8824,0.8301,0.7895,0.7536,0.7214,0.6864,0.6463,0.6059,0.565,0.5266,0.4932,0.468,3.0261,2.9991,2.9645,2.9097,2.854,2.833,2.7825,2.7196,2.6609,2.6358,2.6274,2.5966,2.5785,2.5785,2.5785,2.5548,2.5075,2.4657,2.4289,2.3927,2.2973,2.236,2.2128,2.1759,2.1496,2.135,2.1253,2.1204,2.1155,2.1169,2.1131,2.1155,2.1155,2.1155,2.1155,2.1155,2.1131,2.1095,2.1071,2.1057,2.1021,2.0997,2.0959,2.0883,2.0871,2.0518,1.9961,1.993,1.9772,1.9544,1.9482,1.947,1.9431,1.9102,1.8876,1.8812,1.8537,1.8215,1.8119,1.7909,1.7691,1.7526,1.7296,1.7045,1.6858,1.6776,1.6575,1.6432,1.6254,1.5995,1.5588,1.5449,1.537,1.5321,1.5194,1.5163,1.5114,1.5053,1.4885,1.4558,1.4383,1.4128,1.3833,1.3692,1.3563,1.3443,1.3362,1.329,1.3128,1.2988,1.2798,1.2627,1.2421,1.2249,1.215,1.1952,1.1703,1.1377,1.0989,1.0531,1.0172,0.9888,0.9577,0.9061,0.854,0.8195,0.7836,0.7563,0.7241,0.6815,0.6436,0.6082,0.5727,0.5371,0.5066,3.064,3.014,3.0142,2.9697,2.8982,2.8497,2.7869,2.7183,2.6613,2.6343,2.6329,2.6301,2.6299,2.6299,2.6286,2.6133,2.5909,2.5015,2.4399,2.3969,2.3205,2.2502,2.1945,2.1797,2.1688,2.1616,2.1592,2.1506,2.1423,2.1423,2.141,2.1423,2.1423,2.1423,2.1423,2.1423,2.1375,2.1277,2.1253,2.1191,2.1106,2.1095,2.1082,2.1082,2.1068,2.0839,2.0368,2.007,1.9691,1.9054,1.9047,1.9063,1.8933,1.8773,1.8688,1.8652,1.856,1.8349,1.8252,1.7788,1.7457,1.7322,1.6882,1.6383,1.6348,1.6232,1.6063,1.5984,1.5802,1.5563,1.5461,1.5382,1.5325,1.5154,1.5026,1.4863,1.4648,1.4554,1.4504,1.4343,1.4138,1.4044,1.402,1.402,1.3915,1.3787,1.3692,1.3573,1.343,1.3224,1.2992,1.2813,1.2691,1.2544,1.2421,1.2249,1.2002,1.1753,1.1427,1.1049,1.0539,1.0172,0.981,0.9297,0.8877,0.8507,0.8189,0.7916,0.7595,0.7214,0.6869,0.6544,0.6191,0.5837,0.5481,3.0606,3.0462,3.0462,2.9826,2.8857,2.8611,2.7917,2.6922,2.6705,2.6604,2.6604,2.6604,2.6604,2.6578,2.6604,2.6332,2.5928,2.5553,2.5041,2.4482,2.3783,2.287,2.2094,2.1841,2.1807,2.1783,2.1769,2.1722,2.1712,2.1674,2.1688,2.1712,2.1674,2.1688,2.1712,2.1688,2.1674,2.165,2.1626,2.1602,2.1578,2.1554,2.1592,2.1578,2.1592,2.1277,2.0685,1.985,1.9371,1.9246,1.9201,1.9201,1.9118,1.872,1.8473,1.842,1.8047,1.7712,1.7583,1.7424,1.7248,1.705,1.6884,1.6663,1.6436,1.6371,1.6241,1.6122,1.5947,1.5846,1.5802,1.5681,1.5547,1.5379,1.5131,1.4926,1.4823,1.4731,1.4684,1.4661,1.4511,1.4407,1.4314,1.4221,1.4116,1.401,1.3915,1.3844,1.3692,1.3525,1.331,1.3166,1.3021,1.2861,1.27,1.2529,1.2323,1.2101,1.1828,1.1578,1.0964,1.0377,0.9991,0.9517,0.9237,0.887,0.8586,0.8328,0.7975,0.7616,0.7246,0.6923,0.6598,0.6245,0.5896,3.097,3.0984,3.0984,3.0205,2.9032,2.8959,2.8171,2.7094,2.6893,2.6907,2.6907,2.6933,2.6919,2.6919,2.6919,2.6729,2.6378,2.6086,2.5739,2.5311,2.4626,2.3559,2.256,2.2147,2.2114,2.2053,2.2067,2.2006,2.1959,2.1912,2.1902,2.1878,2.1831,2.1793,2.1769,2.1793,2.1793,2.1793,2.1793,2.1793,2.1793,2.1793,2.1793,2.1793,2.1766,2.1457,2.0604,1.9725,1.9148,1.8921,1.8835,1.8835,1.8822,1.8461,1.8238,1.8211,1.7806,1.7549,1.744,1.7378,1.724,1.7073,1.701,1.6918,1.6727,1.6586,1.6448,1.634,1.6188,1.6122,1.6078,1.5969,1.5893,1.5792,1.5524,1.5322,1.5187,1.5074,1.5028,1.4971,1.4846,1.4697,1.4605,1.4512,1.4407,1.4302,1.4221,1.4093,1.3965,1.38,1.3634,1.3491,1.3276,1.3094,1.292,1.2725,1.2554,1.2332,1.2051,1.1852,1.1377,1.0684,1.0249,0.9862,0.9577,0.929,0.8982,0.8699,0.8374,0.8023,0.7649,0.7327,0.7004,0.6712,0.6332,3.1537,3.1537,3.1462,3.0644,2.9459,2.9253,2.8497,2.7458,2.731,2.731,2.7295,2.731,2.731,2.7284,2.7295,2.7269,2.7236,2.6747,2.6411,2.6051,2.5452,2.4407,2.3086,2.2853,2.2746,2.2619,2.2534,2.2356,2.2263,2.2161,2.2091,2.2091,2.1996,2.1926,2.1973,2.1935,2.1902,2.1949,2.1959,2.1983,2.1983,2.1983,2.1996,2.1983,2.1983,2.149,2.0636,1.9859,1.9271,1.8454,1.8303,1.8313,1.8285,1.8137,1.8069,1.8037,1.7929,1.7747,1.7706,1.7611,1.7455,1.7303,1.7253,1.7149,1.696,1.6769,1.6641,1.6577,1.6396,1.6331,1.6287,1.6265,1.6222,1.6166,1.6066,1.5879,1.5647,1.5435,1.5357,1.5335,1.5108,1.4983,1.4915,1.488,1.4799,1.4569,1.4512,1.4419,1.428,1.4093,1.3952,1.381,1.3563,1.33,1.3128,1.2944,1.2759,1.2554,1.2234,1.1952,1.1628,1.1074,1.0616,1.0231,0.9991,0.9655,0.929,0.9001,0.8738,0.8454,0.8082,0.7756,0.7461,0.7144,0.682,3.1896,3.1851,3.1336,3.0628,2.983,2.9301,2.8595,2.7821,2.7806,2.7781,2.779,2.7806,2.7806,2.7806,2.7781,2.7831,2.7781,2.7555,2.7299,2.6645,2.6321,2.5379,2.4254,2.3841,2.3612,2.3398,2.2887,2.264,2.2572,2.2532,2.2477,2.2477,2.2417,2.2417,2.2417,2.2394,2.2417,2.2431,2.2417,2.2394,2.2379,2.2394,2.2417,2.2394,2.2417,2.2033,2.1366,2.0727,2.0116,1.9486,1.8824,1.8464,1.8406,1.8319,1.8246,1.8206,1.8155,1.8049,1.7955,1.7855,1.776,1.7618,1.7502,1.7344,1.717,1.7073,1.6968,1.6854,1.6748,1.6663,1.659,1.6568,1.6525,1.6405,1.6328,1.6241,1.6044,1.5792,1.5649,1.557,1.5468,1.5322,1.5221,1.521,1.5074,1.488,1.4811,1.4766,1.4605,1.4396,1.4233,1.4082,1.3881,1.361,1.3382,1.3162,1.2895,1.271,1.2431,1.211,1.1778,1.1502,1.1049,1.0718,1.0411,1.0069,0.9706,0.9387,0.9152,0.8817,0.8507,0.8189,0.7863,0.7574,0.7252,3.2216,3.1893,3.154,3.0753,2.9776,2.9322,2.8743,2.8096,2.798,2.798,2.798,2.798,2.798,2.798,2.798,2.798,2.798,2.798,2.7773,2.7397,2.7169,2.6609,2.5768,2.5044,2.4562,2.3758,2.3206,2.2994,2.2971,2.2896,2.2851,2.2828,2.2768,2.2723,2.2746,2.276,2.2723,2.2737,2.276,2.276,2.2746,2.2746,2.2746,2.2783,2.2777,2.2525,2.1903,2.1338,2.0706,2.0078,1.9358,1.8812,1.8678,1.8572,1.8539,1.8514,1.8464,1.8366,1.8248,1.8121,1.8016,1.7868,1.7754,1.7625,1.7461,1.7357,1.7199,1.7073,1.6981,1.691,1.6803,1.6803,1.674,1.6684,1.6641,1.6599,1.647,1.6178,1.5937,1.5915,1.5802,1.5681,1.5592,1.5537,1.5413,1.5232,1.5119,1.5051,1.4903,1.472,1.4501,1.4339,1.4163,1.3928,1.3668,1.3392,1.3065,1.2847,1.2627,1.2332,1.2036,1.1778,1.1502,1.115,1.0769,1.0514,1.0146,0.9855,0.9543,0.923,0.8923,0.858,0.8268,0.7949,0.7628,3.2293,3.1639,3.1529,3.0701,2.9564,2.9339,2.887,2.8213,2.8118,2.8192,2.8128,2.8128,2.8177,2.8128,2.8152,2.8143,2.8143,2.8168,2.8125,2.807,2.7768,2.7257,2.6579,2.5819,2.489,2.3518,2.3385,2.3385,2.3326,2.3253,2.3164,2.3127,2.3024,2.2957,2.2957,2.2957,2.2957,2.2971,2.2971,2.2971,2.2971,2.2971,2.2971,2.2994,2.3046,2.2915,2.2359,2.1741,2.1132,2.0568,1.9826,1.9286,1.9007,1.8841,1.8841,1.8822,1.8736,1.862,1.8523,1.8397,1.8279,1.8068,1.7982,1.7889,1.7747,1.7597,1.744,1.7295,1.7204,1.7065,1.6994,1.6973,1.6939,1.6918,1.6897,1.691,1.6846,1.6547,1.634,1.621,1.611,1.5979,1.5903,1.5814,1.5691,1.558,1.5458,1.5335,1.521,1.5017,1.48,1.4617,1.4443,1.414,1.3868,1.3597,1.3262,1.3055,1.2847,1.2578,1.2332,1.2135,1.1877,1.1452,1.1065,1.0837,1.0557,1.0223,0.994,0.9647,0.9335,0.8995,0.8659,0.8321,0.8029,3.1576,3.0912,3.0361,2.9946,2.9657,2.9143,2.8839,2.8691,2.8628,2.8676,2.8652,2.8652,2.8628,2.8628,2.8652,2.8676,2.8604,2.858,2.8573,2.8394,2.7928,2.7242,2.6442,2.5785,2.4807,2.4115,2.3797,2.3754,2.3668,2.3538,2.3466,2.3407,2.3319,2.326,2.326,2.3238,2.3238,2.3238,2.3253,2.3216,2.3216,2.3216,2.3216,2.3216,2.326,2.3209,2.2877,2.2037,2.1329,2.1158,2.0062,1.9505,1.9269,1.9124,1.9082,1.9026,1.8912,1.8798,1.8741,1.8678,1.8576,1.8425,1.8293,1.8141,1.7996,1.7868,1.7727,1.7597,1.7432,1.7321,1.7321,1.7212,1.7107,1.7044,1.7002,1.6981,1.6931,1.6812,1.6663,1.65,1.6392,1.6284,1.6188,1.61,1.6013,1.5891,1.5792,1.5659,1.5547,1.5334,1.5085,1.4903,1.4731,1.4384,1.401,1.3763,1.3491,1.3334,1.3128,1.292,1.27,1.2554,1.2258,1.1852,1.1469,1.1167,1.0888,1.059,1.0308,1.0043,0.9706,0.9387,0.9106,0.8817,0.856,3.1077,3.0474,3.0129,2.972,2.9327,2.8998,2.8826,2.881,2.881,2.881,2.881,2.881,2.881,2.881,2.881,2.881,2.8803,2.881,2.8592,2.821,2.7751,2.6991,2.6184,2.5549,2.4997,2.4471,2.424,2.4073,2.3903,2.3797,2.3747,2.3747,2.3689,2.3646,2.3625,2.3603,2.356,2.3545,2.3501,2.3458,2.3458,2.3473,2.3458,2.3458,2.3458,2.3458,2.3279,2.2625,2.1912,2.1431,2.0599,1.999,1.9627,1.9431,1.9335,1.9246,1.912,1.9011,1.8969,1.8903,1.8807,1.8678,1.8548,1.8431,1.8293,1.8155,1.8029,1.7842,1.7659,1.7515,1.7461,1.7406,1.7303,1.7225,1.7204,1.7149,1.7086,1.7052,1.6926,1.6799,1.6714,1.6607,1.647,1.6383,1.6318,1.621,1.61,1.5991,1.5881,1.5625,1.5367,1.5198,1.4994,1.4708,1.4361,1.4093,1.3823,1.3644,1.344,1.3224,1.3041,1.2861,1.2652,1.2332,1.1952,1.1594,1.1217,1.0922,1.0667,1.0411,1.0069,0.9784,0.9577,0.9349,0.9061,3.0591,2.9975,2.9975,2.9596,2.899,2.899,2.8943,2.8936,2.8936,2.8983,2.8936,2.8944,2.8959,2.8944,2.8944,2.8897,2.8771,2.8708,2.8323,2.7742,2.7406,2.6741,2.6088,2.5587,2.5201,2.4698,2.4605,2.4467,2.4213,2.4073,2.4051,2.4024,2.4024,2.3982,2.394,2.3839,2.3839,2.3818,2.3739,2.3674,2.3674,2.3696,2.3696,2.3696,2.3696,2.3696,2.3614,2.3035,2.2374,2.1754,2.1079,2.043,1.9876,1.9702,1.9593,1.9468,1.9376,1.925,1.9176,1.913,1.9036,1.886,1.8812,1.8697,1.8562,1.8392,1.8234,1.8009,1.7848,1.7706,1.7645,1.7563,1.7488,1.7419,1.7378,1.7378,1.7303,1.7248,1.722,1.7115,1.7031,1.6897,1.6727,1.6663,1.6577,1.6491,1.6383,1.6253,1.6132,1.5913,1.568,1.5479,1.5266,1.4994,1.472,1.4466,1.4233,1.4022,1.3797,1.3536,1.3344,1.3166,1.2958,1.274,1.248,1.2116,1.1703,1.1301,1.1099,1.082,1.0462,1.018,0.9999,0.9732,0.942,2.9896,2.9264,2.924,2.9161,2.9098,2.9213,2.9259,2.9252,2.9337,2.9421,2.936,2.9382,2.9382,2.9344,2.9296,2.8984,2.8602,2.8357,2.8001,2.7344,2.6835,2.6444,2.6012,2.5445,2.5183,2.4846,2.4786,2.4686,2.4528,2.4364,2.4261,2.4255,2.413,2.4003,2.4082,2.4024,2.3982,2.3982,2.3961,2.3909,2.3894,2.3894,2.3925,2.3925,2.3925,2.3903,2.3822,2.3343,2.2707,2.1966,2.1315,2.0664,2.0073,1.9863,1.9795,1.9672,1.9545,1.9376,1.9358,1.9302,1.9246,1.9101,1.9045,1.895,1.8779,1.86,1.8411,1.8279,1.8095,1.7955,1.7855,1.7747,1.7645,1.7563,1.7543,1.7509,1.7434,1.7372,1.7365,1.7378,1.7274,1.7107,1.696,1.6897,1.6854,1.6769,1.6663,1.6543,1.6392,1.6163,1.5923,1.5714,1.558,1.5356,1.5131,1.488,1.4651,1.4454,1.4174,1.3915,1.375,1.3597,1.3348,1.3132,1.29,1.2642,1.224,1.1893,1.1569,1.1276,1.0972,1.0693,1.047,1.0154,0.9862,2.9607,2.9321,2.9321,2.9337,2.9321,2.9389,2.9412,2.9412,2.9473,2.9496,2.9496,2.9496,2.9496,2.939,2.9112,2.8696,2.8345,2.7998,2.7433,2.6926,2.6446,2.607,2.5679,2.5376,2.5158,2.5103,2.508,2.5064,2.489,2.465,2.4467,2.4467,2.4385,2.4338,2.4271,2.4213,2.4166,2.4103,2.3994,2.3806,2.3654,2.3791,2.3988,2.3988,2.3988,2.4003,2.3912,2.3775,2.2996,2.2221,2.1645,2.1053,2.0294,1.9937,1.9919,1.9917,1.9812,1.9669,1.9538,1.945,1.9358,1.9302,1.9265,1.9191,1.8988,1.8798,1.8639,1.8542,1.8372,1.8234,1.8135,1.8049,1.7889,1.7788,1.7727,1.7632,1.7591,1.7496,1.7455,1.7488,1.7481,1.7357,1.7212,1.7073,1.701,1.6939,1.6854,1.6748,1.6629,1.6479,1.6197,1.5891,1.5802,1.5714,1.5513,1.53,1.5085,1.4857,1.4616,1.4373,1.4221,1.4046,1.38,1.3563,1.3348,1.306,1.2745,1.2353,1.1968,1.1728,1.1502,1.1226,1.0981,1.0693,1.0377,2.8849,2.8897,2.9317,2.9496,2.9518,2.9547,2.957,2.9576,2.9675,2.9585,2.9353,2.9198,2.908,2.9032,2.8576,2.821,2.7959,2.7488,2.6877,2.6426,2.6133,2.5915,2.568,2.5467,2.5432,2.5394,2.5394,2.5355,2.5201,2.5009,2.4795,2.4731,2.465,2.4605,2.4559,2.4446,2.4297,2.3958,2.3641,2.3279,2.3045,2.3514,2.3722,2.3859,2.3966,2.4051,2.4051,2.3813,2.3127,2.2335,2.1816,2.1149,2.0294,2.0061,2.0025,2.0008,1.9955,1.9899,1.9738,1.9596,1.9505,1.9465,1.9409,1.9321,1.9191,1.8988,1.8855,1.8812,1.8659,1.8528,1.8411,1.8327,1.8175,1.8069,1.7989,1.7848,1.7733,1.7733,1.772,1.7774,1.7767,1.7645,1.7468,1.7282,1.7157,1.7107,1.7023,1.6939,1.6812,1.6671,1.6479,1.6175,1.6132,1.6022,1.5802,1.5625,1.5446,1.5266,1.5017,1.4789,1.4628,1.443,1.4186,1.3975,1.3787,1.3525,1.3262,1.2803,1.2363,1.2141,1.1927,1.1703,1.1477,1.1175,1.0871,2.7094,2.7219,2.8769,2.9406,2.9461,2.9694,2.9739,2.961,2.9924,2.9629,2.9058,2.8502,2.8253,2.8143,2.8074,2.7649,2.7065,2.697,2.6493,2.6085,2.5893,2.5807,2.566,2.5623,2.5687,2.5663,2.5661,2.5549,2.5454,2.5394,2.5224,2.5088,2.493,2.4842,2.4695,2.4521,2.4087,2.3608,2.308,2.267,2.2636,2.2983,2.3328,2.3497,2.3897,2.4266,2.4214,2.3707,2.2996,2.2152,2.1691,2.1142,2.0402,2.0181,2.0115,2.0098,2.0061,2.0008,1.9902,1.9812,1.972,1.9593,1.9501,1.9413,1.9372,1.9176,1.9082,1.9045,1.8893,1.8774,1.8659,1.8542,1.8411,1.8307,1.8228,1.8115,1.8036,1.8049,1.8036,1.8089,1.8009,1.7889,1.7754,1.755,1.7323,1.7253,1.7107,1.6989,1.6939,1.682,1.6727,1.6543,1.6479,1.6328,1.6032,1.5856,1.5758,1.558,1.5356,1.5153,1.496,1.4754,1.4546,1.4384,1.4186,1.3986,1.375,1.3382,1.2987,1.2632,1.2348,1.2175,1.1803,1.1427,1.1175,2.6234,2.6297,2.7013,2.7782,2.8593,2.866,2.8706,2.8722,2.8882,2.8869,2.8596,2.8316,2.8184,2.8053,2.7657,2.7394,2.7031,2.6607,2.6012,2.555,2.5336,2.5352,2.5335,2.5382,2.546,2.5719,2.5797,2.5809,2.5733,2.555,2.568,2.5527,2.5131,2.5084,2.4922,2.4328,2.37,2.3177,2.268,2.2372,2.2077,2.2506,2.2874,2.2917,2.3416,2.3458,2.3196,2.3291,2.2644,2.1935,2.1458,2.0921,2.0443,2.0268,2.0202,2.0202,2.0166,2.0131,2.0061,1.9973,1.9848,1.9741,1.9611,1.952,1.952,1.9376,1.9288,1.9213,1.9101,1.8969,1.8931,1.8798,1.8644,1.8542,1.8445,1.8352,1.8313,1.8293,1.8268,1.8268,1.8189,1.8069,1.7935,1.7814,1.7604,1.7412,1.7233,1.7073,1.701,1.696,1.6854,1.6769,1.6684,1.6599,1.6328,1.6197,1.6066,1.5891,1.5691,1.5491,1.53,1.5074,1.488,1.472,1.4593,1.4361,1.414,1.3928,1.3563,1.3094,1.2837,1.2642,1.2215,1.1744,1.1553,2.4987,2.502,2.5286,2.6305,2.7659,2.7813,2.7948,2.8132,2.8312,2.8188,2.8047,2.7881,2.7767,2.7568,2.6969,2.6604,2.6323,2.5859,2.5311,2.4946,2.4763,2.4763,2.4746,2.4796,2.4927,2.5389,2.5437,2.5319,2.5218,2.5332,2.5146,2.5005,2.4989,2.477,2.4665,2.3827,2.3035,2.2621,2.2189,2.1945,2.1508,2.1985,2.2321,2.243,2.2866,2.2983,2.2704,2.2635,2.2276,2.1623,2.1159,2.0817,2.0507,2.0321,2.0304,2.0287,2.0287,2.0252,2.015,2.0043,1.9955,1.9848,1.9792,1.972,1.9647,1.9556,1.9472,1.9431,1.9288,1.9176,1.9176,1.9026,1.8893,1.8812,1.8644,1.8567,1.8514,1.8509,1.847,1.8431,1.8347,1.8248,1.8129,1.7975,1.7686,1.7494,1.735,1.7191,1.7115,1.7052,1.7023,1.6918,1.6867,1.6748,1.6641,1.6457,1.6284,1.6197,1.6001,1.5836,1.5637,1.5401,1.5198,1.5051,1.4891,1.4708,1.4523,1.4326,1.3952,1.3501,1.3238,1.2949,1.2691,1.2249,1.2051,2.3191,2.3239,2.3943,2.5311,2.6871,2.7282,2.7655,2.7904,2.8131,2.787,2.7219,2.6769,2.6519,2.6334,2.5765,2.5547,2.538,2.4812,2.436,2.4277,2.421,2.421,2.4194,2.4227,2.4329,2.4244,2.4446,2.453,2.4331,2.4431,2.4249,2.4082,2.4079,2.4056,2.4286,2.295,2.219,2.2045,2.1467,2.1163,2.116,2.1549,2.1733,2.1902,2.2314,2.2493,2.2228,2.2033,2.1735,2.1344,2.0843,2.0545,2.0436,2.0339,2.0321,2.0321,2.0304,2.0287,2.027,2.0129,2.0041,1.9973,1.9917,1.9899,1.9812,1.9726,1.9654,1.9596,1.9453,1.9395,1.9339,1.9232,1.9139,1.9045,1.8893,1.8803,1.8784,1.8702,1.8678,1.8639,1.8562,1.8445,1.8327,1.8129,1.7788,1.7556,1.7446,1.7308,1.7199,1.7136,1.7107,1.7044,1.6973,1.6897,1.6769,1.6629,1.65,1.6436,1.6328,1.6122,1.5947,1.5758,1.5558,1.5368,1.5222,1.5074,1.4914,1.4731,1.4326,1.3928,1.3491,1.318,1.2958,1.2774,1.2544,2.2367,2.24,2.2729,2.352,2.4579,2.5096,2.543,2.5648,2.5749,2.5715,2.5528,2.5224,2.5173,2.5039,2.4972,2.4753,2.4686,2.4635,2.428,2.3691,2.3659,2.3658,2.3643,2.3647,2.3817,2.4172,2.4258,2.4109,2.4228,2.3996,2.4063,2.3999,2.3454,2.3523,2.3569,2.2881,2.2361,2.2165,2.1601,2.1119,2.1054,2.1228,2.1321,2.1353,2.1832,2.1888,2.1605,2.1473,2.1372,2.1042,2.0554,2.0506,2.0458,2.0407,2.0371,2.0356,2.0339,2.0287,2.0287,2.0218,2.0166,2.0096,2.0025,1.999,1.9919,1.9902,1.983,1.9741,1.9636,1.9578,1.952,1.9395,1.9302,1.9284,1.9191,1.9139,1.9101,1.8979,1.8898,1.8851,1.8774,1.8615,1.8459,1.8288,1.7949,1.7699,1.7569,1.737,1.724,1.7199,1.717,1.7128,1.7065,1.7002,1.6905,1.6778,1.6705,1.6641,1.6534,1.6383,1.6219,1.6044,1.5869,1.5659,1.5547,1.5447,1.521,1.4983,1.4708,1.4326,1.3941,1.361,1.3406,1.319,1.2949,2.2155,2.2172,2.2265,2.2581,2.3074,2.3646,2.4052,2.427,2.44,2.4478,2.4574,2.4572,2.4605,2.4537,2.4282,2.4166,2.4115,2.3797,2.3613,2.3021,2.3004,2.2989,2.2977,2.3028,2.3119,2.3592,2.3629,2.3499,2.3399,2.3469,2.3371,2.3158,2.2974,2.2852,2.2797,2.2439,2.2117,2.1923,2.1518,2.131,2.1231,2.1231,2.1199,2.1247,2.1339,2.1351,2.108,2.1043,2.1147,2.0737,2.0578,2.0577,2.0543,2.0477,2.0457,2.0424,2.0373,2.0339,2.0337,2.0304,2.022,2.0168,2.0113,2.0078,2.0043,2.0025,1.9973,1.9884,1.978,1.9741,1.9669,1.9541,1.9468,1.9465,1.9395,1.9339,1.9302,1.9168,1.913,1.9097,1.8965,1.8774,1.8576,1.838,1.8129,1.7922,1.7713,1.7502,1.7303,1.7253,1.7233,1.7191,1.7149,1.7107,1.7031,1.6947,1.6876,1.6825,1.6718,1.6599,1.6436,1.6262,1.611,1.5969,1.5836,1.5681,1.5458,1.521,1.4983,1.4766,1.4478,1.4176,1.3871,1.361,1.3348,2.2487,2.2501,2.2501,2.2487,2.2613,2.3146,2.3746,2.4355,2.4388,2.4384,2.4448,2.4347,2.4275,2.4337,2.3779,2.3476,2.3425,2.281,2.2592,2.2457,2.2539,2.2474,2.2457,2.246,2.2646,2.2479,2.2516,2.2786,2.24,2.2594,2.2485,2.226,2.2329,2.2319,2.2197,2.2076,2.1875,2.1782,2.1687,2.1511,2.1434,2.134,2.1294,2.1279,2.1231,2.1166,2.1022,2.1004,2.0939,2.0794,2.0728,2.0726,2.0676,2.0578,2.0527,2.0492,2.0424,2.0407,2.0405,2.034,2.0321,2.0287,2.0287,2.0235,2.0168,2.0115,2.0078,1.999,1.9887,1.9851,1.978,1.9705,1.9611,1.9556,1.9487,1.945,1.9431,1.9376,1.9376,1.9302,1.9139,1.895,1.8692,1.8478,1.8307,1.8129,1.7922,1.774,1.7522,1.7295,1.7274,1.7253,1.7233,1.7212,1.7136,1.7073,1.6989,1.6918,1.6876,1.6769,1.6629,1.65,1.6383,1.6253,1.6088,1.5913,1.5703,1.5503,1.5312,1.5097,1.4903,1.4581,1.4233,1.3999,1.3763,2.2501,2.2501,2.2501,2.2501,2.2521,2.2698,2.2906,2.3076,2.3076,2.3076,2.309,2.3107,2.3289,2.3102,2.2883,2.2832,2.2716,2.2596,2.2514,2.2432,2.2419,2.2432,2.2432,2.2419,2.2449,2.2432,2.2419,2.2419,2.2453,2.2363,2.2279,2.2254,2.2192,2.2194,2.2137,2.208,2.1947,2.1842,2.1799,2.1693,2.1617,2.1526,2.1465,2.1356,2.1278,2.1183,2.1119,2.1055,2.1006,2.0893,2.086,2.0844,2.0745,2.0694,2.0643,2.051,2.0477,2.046,2.0475,2.0458,2.0455,2.045,2.045,2.0337,2.027,2.0297,2.0262,2.0096,2.001,1.9957,1.9904,1.983,1.9774,1.972,1.965,1.9632,1.9596,1.956,1.9541,1.9465,1.9302,1.9082,1.8827,1.8634,1.8478,1.8307,1.8149,1.7949,1.7747,1.7502,1.7337,1.7316,1.7295,1.7261,1.722,1.7157,1.7073,1.701,1.6981,1.6939,1.6833,1.6727,1.6641,1.6491,1.6306,1.611,1.5935,1.577,1.5604,1.5492,1.53,1.496,1.4616,1.4396,1.4174,2.2676,2.2659,2.2646,2.2659,2.2659,2.2659,2.2646,2.2663,2.2538,2.2515,2.2542,2.259,2.2555,2.2651,2.262,2.2576,2.2576,2.2535,2.2487,2.2487,2.2501,2.2487,2.2487,2.2501,2.2487,2.2501,2.2501,2.2474,2.2487,2.2491,2.2422,2.2377,2.2366,2.2324,2.2282,2.2223,2.2166,2.2063,2.1959,2.1855,2.1783,2.1724,2.1617,2.1526,2.1465,2.1372,2.1246,2.1199,2.1103,2.099,2.0958,2.0877,2.0828,2.0778,2.0727,2.0628,2.061,2.0594,2.0577,2.0543,2.0632,2.0802,2.0878,2.1062,2.0885,2.0802,2.047,2.02,2.0133,2.0048,2.001,1.994,1.9919,1.9881,1.9848,1.983,1.9777,1.9723,1.965,1.9574,1.9409,1.9209,1.9003,1.8807,1.8667,1.8517,1.8386,1.8234,1.7989,1.7727,1.7543,1.7427,1.7385,1.7344,1.7303,1.7261,1.7199,1.7136,1.7107,1.7065,1.6994,1.6897,1.6812,1.665,1.6479,1.6328,1.6197,1.6057,1.5903,1.5804,1.5693,1.5413,1.5085,1.48,1.4581,2.2889,2.2893,2.2889,2.2876,2.2889,2.2876,2.2863,2.2863,2.2646,2.2552,2.2605,2.2605,2.2632,2.2646,2.2619,2.2605,2.2592,2.2569,2.2555,2.2515,2.2542,2.2555,2.2525,2.2528,2.2538,2.2542,2.2528,2.2555,2.2515,2.2501,2.2501,2.2501,2.2432,2.2391,2.2377,2.2352,2.231,2.2251,2.2118,2.2015,2.1945,2.1857,2.1783,2.1724,2.1634,2.1527,2.1371,2.1293,2.1246,2.1119,2.1022,2.0958,2.0893,2.0828,2.0794,2.0761,2.0711,2.0694,2.0756,2.0784,2.1078,2.1358,2.1655,2.1887,2.1721,2.1414,2.1047,2.0826,2.0804,2.0581,2.0482,2.0167,2.0008,1.9973,1.9955,1.9919,1.9884,1.9812,1.9708,1.9632,1.952,1.9321,1.9172,1.8998,1.887,1.875,1.86,1.847,1.8268,1.7989,1.7788,1.7611,1.7522,1.7481,1.7385,1.7365,1.7323,1.7282,1.7253,1.7191,1.7141,1.7044,1.6981,1.6799,1.665,1.6607,1.6513,1.634,1.6188,1.61,1.5969,1.5836,1.558,1.5277,1.5006,2.2889,2.2889,2.2889,2.2889,2.2889,2.2889,2.2889,2.2889,2.2842,2.2777,2.2751,2.2712,2.2685,2.2712,2.2699,2.2685,2.2672,2.2672,2.2646,2.2646,2.2663,2.2649,2.2646,2.2632,2.2646,2.2646,2.2663,2.2623,2.2582,2.2569,2.2555,2.2515,2.2487,2.2474,2.2474,2.2446,2.2405,2.238,2.2321,2.2206,2.2123,2.2017,2.1911,2.1855,2.1783,2.1693,2.1572,2.1449,2.1356,2.123,2.1167,2.1055,2.0893,2.0828,2.0811,2.081,2.0778,2.0777,2.0887,2.1121,2.156,2.1821,2.2117,2.2394,2.2399,2.212,2.1876,2.1719,2.1481,2.1196,2.0926,2.0518,2.0218,2.02,2.0089,2.0071,2.0036,1.9902,1.978,1.9687,1.9578,1.9468,1.9321,1.9209,1.9097,1.895,1.8817,1.8683,1.8542,1.8321,1.8123,1.7929,1.774,1.7638,1.7563,1.7502,1.7468,1.7427,1.7378,1.735,1.73,1.7191,1.7094,1.6981,1.6876,1.6812,1.6727,1.6565,1.6436,1.6349,1.6219,1.6078,1.6035,1.579,1.5513,2.2977,2.2995,2.2977,2.2995,2.2995,2.2995,2.2995,2.2995,2.2957,2.2914,2.2876,2.2829,2.279,2.2773,2.279,2.279,2.279,2.279,2.279,2.279,2.2751,2.2755,2.2738,2.2725,2.2699,2.2699,2.2716,2.2689,2.2646,2.2649,2.2623,2.2596,2.2569,2.2555,2.2555,2.2528,2.2487,2.2463,2.2446,2.2394,2.2282,2.2163,2.2075,2.202,2.1945,2.1857,2.1753,2.1601,2.151,2.1356,2.1246,2.1071,2.0942,2.0877,2.0828,2.0811,2.081,2.081,2.1015,2.1442,2.2025,2.2335,2.2868,2.3274,2.3824,2.354,2.2895,2.2655,2.2201,2.1897,2.1842,2.1538,2.1421,2.1351,2.0901,2.0607,2.0309,2.001,1.9887,1.9759,1.9669,1.9596,1.9468,1.9372,1.9246,1.9157,1.9026,1.8893,1.8755,1.8615,1.842,1.8262,1.8063,1.7889,1.7801,1.7733,1.7652,1.7604,1.7543,1.7461,1.7419,1.7316,1.722,1.7149,1.7086,1.7002,1.6897,1.6778,1.6714,1.6663,1.6491,1.6306,1.6297,1.6231,1.5969,2.3107,2.3107,2.3107,2.3107,2.3107,2.3107,2.3107,2.3095,2.3045,2.3008,2.3008,2.2957,2.2914,2.2889,2.2889,2.2889,2.2876,2.285,2.2893,2.2881,2.2825,2.2816,2.279,2.2764,2.2764,2.2751,2.2751,2.2738,2.2712,2.2712,2.2699,2.2685,2.2646,2.2605,2.2592,2.2565,2.2542,2.2528,2.2515,2.2457,2.2377,2.2279,2.2209,2.2166,2.2092,2.1957,2.1886,2.1768,2.1663,2.1495,2.1325,2.1135,2.1023,2.0958,2.0877,2.0844,2.0827,2.0906,2.1143,2.1742,2.2359,2.2975,2.3654,2.4239,2.4741,2.4559,2.3892,2.349,2.3033,2.2692,2.2652,2.2474,2.2368,2.22,2.1642,2.1129,2.0689,2.0268,2.0096,1.9954,1.9792,1.972,1.9596,1.9501,1.9428,1.9339,1.9228,1.9116,1.8998,1.8827,1.8673,1.8523,1.8386,1.822,1.8062,1.7962,1.7889,1.7828,1.7767,1.7652,1.7529,1.7447,1.7385,1.7391,1.7308,1.7212,1.7107,1.6981,1.696,1.6897,1.6748,1.6577,1.6534,1.647,1.6352,2.3107,2.3107,2.3107,2.3107,2.3107,2.3107,2.3107,2.3107,2.3095,2.3095,2.3082,2.307,2.3003,2.2889,2.2889,2.2902,2.2914,2.2914,2.2902,2.2876,2.2876,2.2893,2.2881,2.2842,2.2855,2.2838,2.2812,2.2829,2.279,2.2777,2.2751,2.2712,2.2699,2.2685,2.2685,2.2646,2.2649,2.2609,2.2582,2.2538,2.2487,2.2391,2.2338,2.2265,2.2194,2.2168,2.2097,2.1886,2.1797,2.1663,2.1449,2.1262,2.1151,2.1071,2.099,2.0909,2.0877,2.1144,2.1508,2.2155,2.2819,2.3512,2.4128,2.4653,2.4954,2.4938,2.4512,2.443,2.3978,2.3533,2.3331,2.2942,2.2764,2.2558,2.2145,2.1723,2.1316,2.0934,2.0642,2.0273,1.9911,1.9825,1.9708,1.9632,1.9574,1.9487,1.9376,1.9265,1.9134,1.9003,1.8884,1.8774,1.8664,1.8464,1.8248,1.8189,1.8109,1.8069,1.7989,1.7835,1.7693,1.757,1.7509,1.7515,1.7481,1.7406,1.7282,1.7191,1.7107,1.7044,1.6952,1.6825,1.6782,1.6697,1.6568]}]]